[[{"header":{"parameterUnit":"m.s-1","parameterCategory":1,"la1":30.6,"la2":29.2853,"lo1":-89.7004,"lo2":-87.6739,"dy":0.0162,"dx":0.0183,"nx":112,"ny":82,"refTime":"2025-01-15T06:00:00:Z","depth":0,"parameterNumber":2,"parameterNumberName":"U-component_of_WINDS"},"data":[0.0,0.0,0.0,0.0,0.0,0.0,0.0,0.0,0.0,0.0,0.0,0.0,0.0,0.0,0.0,0.0,0.0,0.0,0.0,0.0,0.0,0.0,0.0,0.0,0.0,0.0,0.0,0.0,0.0,0.0,0.0,0.0,0.0,0.0,0.0,0.0,0.0,0.0,0.0,0.0,0.0,0.0,0.0,0.0,0.0,0.0,0.0,0.0,0.0,0.0,0.0,0.0,0.0,0.0,0.0,0.0,0.0,0.0,0.0,0.0,0.0,0.0,0.0,0.0,0.0,0.0,0.0,0.0,0.0,0.0,0.0,0.0,0.0,0.0,0.0,0.0,0.0,0.0,0.0,0.0,0.0,0.0,0.0,0.0,0.0,0.0,0.0,0.0,0.0,0.0,1.6428,1.7524,1.8456,1.9104,1.9328,1.9565,1.9758,1.9834,0.0,0.0,0.0,0.0,0.0,0.0,0.0,0.0,0.0,0.0,0.0,0.0,0.0,0.0,0.0,0.0,0.0,0.0,0.0,0.0,0.0,0.0,0.0,0.0,0.0,0.0,0.0,0.0,0.0,0.0,0.0,0.0,0.0,0.0,0.0,0.0,0.0,0.0,0.0,0.0,0.0,0.0,0.0,0.0,0.0,0.0,0.0,0.0,0.0,0.0,0.0,0.0,0.0,0.0,0.0,0.0,0.0,0.0,0.0,0.0,0.0,0.0,0.0,0.0,0.0,0.0,0.0,0.0,0.0,0.0,0.0,0.0,0.0,0.0,0.0,0.0,0.0,0.0,0.0,0.0,0.0,0.0,0.0,0.0,0.0,0.0,0.0,0.0,0.0,0.0,0.0,0.0,0.0,0.0,0.0,0.0,0.0,0.0,0.0,0.0,0.0,0.0,0.0,0.0,1.6917,1.8882,1.9373,1.9677,1.9949,2.0062,2.009,2.007,0.0,0.0,0.0,0.0,0.0,0.0,0.0,0.0,0.0,0.0,0.0,0.0,0.0,0.0,0.0,0.0,0.0,0.0,0.0,0.0,0.0,0.0,0.0,0.0,0.0,0.0,0.0,0.0,0.0,0.0,0.0,0.0,0.0,0.0,0.0,0.0,0.0,0.0,0.0,0.0,0.0,0.0,0.0,0.0,0.0,0.0,0.0,0.0,0.0,0.0,0.0,0.0,0.0,0.0,0.0,0.0,0.0,0.0,0.0,0.0,0.0,0.0,0.0,0.0,0.0,0.0,0.0,0.0,0.0,0.0,0.0,0.0,0.0,0.0,0.0,0.0,0.0,0.0,0.0,0.0,0.0,0.0,0.0,0.0,0.0,0.0,0.0,0.0,0.0,0.0,0.0,0.0,0.0,0.0,0.0,0.0,0.0,0.0,0.0,0.0,0.0,0.0,0.0,1.7912,1.8344,1.9253,1.9288,1.9321,1.9419,1.9926,2.0083,1.9645,1.9609,0.0,0.0,0.0,0.0,0.0,0.0,0.0,0.0,0.0,0.0,0.0,0.0,0.0,0.0,0.0,0.0,0.0,0.0,0.0,0.0,0.0,0.0,0.0,0.0,0.0,0.0,0.0,0.0,0.0,0.0,0.0,0.0,0.0,0.0,0.0,0.0,0.0,0.0,0.0,0.0,0.0,0.0,0.0,0.0,0.0,0.0,0.0,0.0,0.0,0.0,0.0,0.0,0.0,0.0,0.0,0.0,0.0,0.0,0.0,0.0,0.0,0.0,0.0,0.0,0.0,0.0,0.0,0.0,0.0,0.0,0.0,0.0,0.0,0.0,0.0,0.0,0.0,0.0,0.0,0.0,0.0,0.0,0.0,0.0,0.0,0.0,0.0,0.0,0.0,0.0,0.0,0.0,0.0,0.0,0.0,0.0,0.0,0.0,0.0,0.0,0.0,0.0,1.9653,2.0116,2.0028,1.9802,1.9687,1.9722,2.0178,2.0201,1.9665,1.9561,0.0,0.0,0.0,0.0,0.0,0.0,0.0,0.0,0.0,0.0,0.0,0.0,0.0,0.0,0.0,0.0,0.0,0.0,0.0,0.0,0.0,0.0,0.0,0.0,0.0,0.0,0.0,0.0,0.0,0.0,0.0,0.0,0.0,0.0,0.0,0.0,0.0,0.0,0.0,0.0,0.0,0.0,0.0,0.0,0.0,0.0,0.0,0.0,0.0,0.0,0.0,0.0,0.0,0.0,0.0,0.0,0.0,0.0,0.0,0.0,0.0,0.0,0.0,0.0,0.0,0.0,0.0,0.0,0.0,0.0,0.0,0.0,0.0,0.0,0.0,0.0,0.0,0.0,0.0,0.0,0.0,0.0,0.0,0.0,0.0,0.0,0.0,0.0,0.0,0.0,0.0,0.0,0.0,0.0,0.0,0.0,0.0,0.0,0.0,0.0,0.0,0.0,2.065,2.2031,2.2086,2.2013,2.2003,2.2132,2.1378,2.0858,2.0866,1.8969,0.0,0.0,0.0,0.0,0.0,0.0,0.0,0.0,0.0,0.0,0.0,0.0,0.0,0.0,0.0,0.0,0.0,0.0,0.0,0.0,0.0,0.0,0.0,0.0,0.0,0.0,0.0,0.0,0.0,0.0,0.0,0.0,0.0,0.0,0.0,0.0,0.0,0.0,0.0,0.0,0.0,0.0,0.0,0.0,0.0,0.0,0.0,0.0,0.0,0.0,0.0,0.0,0.0,0.0,0.0,0.0,0.0,0.0,0.0,0.0,0.0,0.0,0.0,0.0,0.0,0.0,0.0,0.0,0.0,0.0,0.0,0.0,0.0,0.0,0.0,0.0,0.0,0.0,0.0,0.0,0.0,0.0,0.0,0.0,0.0,0.0,0.0,0.0,0.0,0.0,0.0,0.0,0.0,0.0,0.0,0.0,0.0,0.0,0.0,0.0,0.0,0.0,2.1417,2.2171,0.0,2.1796,2.173,2.1816,2.1456,2.104,2.0634,0.0,0.0,0.0,0.0,0.0,0.0,0.0,0.0,0.0,0.0,0.0,0.0,0.0,0.0,0.0,0.0,0.0,0.0,0.0,0.0,0.0,0.0,0.0,0.0,0.0,0.0,0.0,0.0,0.0,0.0,0.0,0.0,0.0,0.0,0.0,0.0,0.0,0.0,0.0,0.0,0.0,0.0,0.0,0.0,0.0,0.0,0.0,0.0,0.0,0.0,0.0,0.0,0.0,0.0,0.0,0.0,0.0,0.0,0.0,0.0,0.0,0.0,0.0,0.0,0.0,0.0,0.0,0.0,0.0,0.0,0.0,0.0,0.0,0.0,0.0,0.0,0.0,0.0,0.0,0.0,0.0,0.0,0.0,0.0,0.0,0.0,0.0,0.0,0.0,0.0,0.0,0.0,0.0,0.0,0.0,0.0,0.0,0.0,0.0,0.0,0.0,0.0,2.1095,2.2258,2.2951,0.0,2.2429,2.2373,2.2373,2.2025,2.1534,2.0825,0.0,0.0,0.0,0.0,0.0,0.0,0.0,0.0,0.0,0.0,0.0,0.0,0.0,0.0,0.0,0.0,0.0,0.0,0.0,0.0,0.0,0.0,0.0,0.0,0.0,0.0,0.0,0.0,0.0,0.0,0.0,0.0,0.0,0.0,0.0,0.0,0.0,0.0,0.0,0.0,0.0,0.0,0.0,0.0,0.0,0.0,0.0,0.0,0.0,0.0,0.0,0.0,0.0,0.0,0.0,0.0,0.0,0.0,0.0,0.0,0.0,0.0,0.0,0.0,0.0,0.0,0.0,0.0,0.0,0.0,0.0,0.0,0.0,0.0,0.0,0.0,0.0,0.0,0.0,0.0,0.0,0.0,0.0,0.0,0.0,0.0,0.0,0.0,0.0,0.0,0.0,0.0,0.0,0.0,0.0,0.0,0.0,0.0,0.0,0.0,0.0,0.0,2.1141,2.3205,2.466,2.4493,2.4428,2.4376,2.4303,2.3382,2.2446,0.0,0.0,0.0,0.0,0.0,0.0,0.0,0.0,0.0,0.0,0.0,0.0,0.0,0.0,0.0,0.0,0.0,0.0,0.0,0.0,0.0,0.0,0.0,0.0,0.0,0.0,0.0,0.0,0.0,0.0,0.0,0.0,0.0,0.0,0.0,0.0,0.0,0.0,0.0,0.0,0.0,0.0,0.0,0.0,0.0,0.0,0.0,0.0,0.0,0.0,0.0,0.0,0.0,0.0,0.0,0.0,0.0,0.0,0.0,0.0,0.0,0.0,0.0,0.0,0.0,0.0,0.0,0.0,0.0,0.0,0.0,0.0,0.0,0.0,0.0,0.0,0.0,0.0,0.0,0.0,0.0,0.0,0.0,0.0,0.0,0.0,0.0,0.0,0.0,0.0,0.0,0.0,0.0,0.0,0.0,0.0,0.0,0.0,0.0,0.0,0.0,0.0,0.0,2.1783,2.3446,2.4513,2.4442,2.4375,2.4303,2.4247,2.3419,2.2795,2.2464,0.0,0.0,0.0,0.0,0.0,0.0,0.0,0.0,0.0,0.0,0.0,0.0,0.0,0.0,0.0,0.0,0.0,0.0,0.0,0.0,0.0,0.0,0.0,0.0,0.0,0.0,0.0,0.0,0.0,0.0,0.0,0.0,0.0,0.0,0.0,0.0,0.0,0.0,0.0,0.0,0.0,0.0,0.0,0.0,0.0,0.0,0.0,0.0,0.0,0.0,0.0,0.0,0.0,0.0,0.0,0.0,0.0,0.0,0.0,0.0,0.0,0.0,0.0,0.0,0.0,0.0,0.0,0.0,0.0,0.0,0.0,0.0,0.0,0.0,0.0,0.0,0.0,0.0,0.0,0.0,0.0,0.0,0.0,0.0,0.0,0.0,0.0,0.0,0.0,0.0,0.0,0.0,0.0,0.0,0.0,0.0,0.0,0.0,0.0,0.0,0.0,0.0,2.239,2.3644,2.4559,2.48,2.4838,2.4783,2.4707,2.456,2.4135,2.3361,0.0,0.0,0.0,0.0,0.0,0.0,0.0,0.0,0.0,0.0,0.0,0.0,0.0,0.0,0.0,0.0,0.0,0.0,0.0,0.0,0.0,0.0,0.0,0.0,0.0,0.0,0.0,0.0,0.0,0.0,0.0,0.0,0.0,0.0,0.0,0.0,0.0,0.0,0.0,0.0,0.0,0.0,0.0,0.0,0.0,0.0,0.0,0.0,0.0,0.0,0.0,0.0,0.0,0.0,0.0,0.0,0.0,0.0,0.0,0.0,0.0,0.0,0.0,0.0,0.0,0.0,0.0,0.0,0.0,0.0,0.0,0.0,0.0,0.0,0.0,0.0,0.0,0.0,0.0,0.0,0.0,0.0,0.0,0.0,0.0,0.0,0.0,0.0,0.0,0.0,0.0,0.0,0.0,0.0,0.0,0.0,0.0,0.0,0.0,0.0,0.0,0.0,2.2995,2.3933,2.4783,2.5541,2.5671,2.5708,2.563,2.6294,2.6013,2.4424,0.0,0.0,0.0,0.0,0.0,0.0,0.0,0.0,0.0,0.0,0.0,0.0,0.0,0.0,0.0,0.0,0.0,0.0,0.0,0.0,0.0,0.0,0.0,0.0,0.0,0.0,0.0,0.0,0.0,0.0,0.0,0.0,0.0,0.0,0.0,0.0,0.0,0.0,0.0,0.0,0.0,0.0,0.0,0.0,0.0,0.0,0.0,0.0,0.0,0.0,0.0,0.0,0.0,0.0,0.0,0.0,0.0,0.0,0.0,0.0,1.6798,0.0,0.0,0.0,0.0,0.0,0.0,0.0,0.0,0.0,0.0,0.0,0.0,0.0,0.0,0.0,0.0,0.0,0.0,0.0,0.0,0.0,0.0,0.0,0.0,0.0,0.0,0.0,0.0,0.0,0.0,0.0,0.0,0.0,0.0,0.0,0.0,0.0,0.0,0.0,0.0,0.0,2.3732,2.4726,2.5615,2.6581,2.6599,2.656,2.6599,2.6709,2.6552,2.602,2.5356,0.0,0.0,0.0,0.0,0.0,0.0,0.0,0.0,0.0,0.0,0.0,0.0,0.0,0.0,0.0,0.0,0.0,0.0,0.0,0.0,0.0,0.0,0.0,0.0,0.0,0.0,0.0,0.0,0.0,0.0,0.0,0.0,0.0,0.0,0.0,0.0,0.0,0.0,0.0,0.0,0.0,0.0,0.0,0.0,0.0,0.0,0.0,0.0,0.0,0.0,0.0,0.0,0.0,0.0,0.0,0.0,0.0,0.0,0.0,0.0,1.7503,0.0,0.0,0.0,0.0,0.0,0.0,0.0,0.0,0.0,0.0,0.0,0.0,0.0,0.0,0.0,0.0,0.0,0.0,0.0,0.0,0.0,0.0,0.0,0.0,0.0,0.0,0.0,0.0,0.0,0.0,0.0,0.0,0.0,0.0,0.0,0.0,0.0,0.0,0.0,0.0,2.4518,2.5495,2.6532,2.7934,2.7655,2.7581,2.8012,2.8046,2.7779,2.7306,2.678,0.0,0.0,0.0,0.0,0.0,0.0,0.0,0.0,0.0,0.0,0.0,0.0,0.0,0.0,0.0,0.0,0.0,0.0,0.0,0.0,0.0,0.0,0.0,0.0,0.0,0.0,0.0,0.0,0.0,0.0,0.0,0.0,0.0,0.0,0.0,0.0,0.0,0.0,0.0,0.0,0.0,0.0,0.0,0.0,0.0,0.0,0.0,0.0,0.0,0.0,0.0,0.0,0.0,2.0517,2.0916,2.1637,2.1366,2.1529,2.1909,1.9991,1.9232,1.9326,0.0,0.0,0.0,0.0,0.0,0.0,0.0,0.0,0.0,0.0,0.0,0.0,0.0,0.0,0.0,0.0,0.0,0.0,0.0,0.0,0.0,0.0,0.0,0.0,0.0,2.0029,2.0453,0.0,0.0,0.0,0.0,0.0,0.0,0.0,0.0,0.0,0.0,0.0,0.0,2.5314,2.624,2.7448,2.9052,2.8783,2.8751,2.9481,2.9683,2.9418,2.8582,2.8233,2.7669,0.0,0.0,0.0,0.0,0.0,0.0,0.0,0.0,0.0,0.0,0.0,0.0,0.0,0.0,0.0,0.0,0.0,0.0,0.0,0.0,0.0,0.0,0.0,0.0,0.0,0.0,0.0,0.0,0.0,0.0,0.0,0.0,1.6034,1.6773,0.0,0.0,0.0,0.0,0.0,0.0,0.0,0.0,0.0,0.0,0.0,0.0,0.0,2.0446,2.1204,2.1187,2.1224,2.1425,2.1126,2.1458,2.2288,2.195,2.2588,2.4005,2.3732,0.0,2.09,2.0442,0.0,0.0,0.0,0.0,0.0,0.0,0.0,0.0,0.0,0.0,0.0,0.0,0.0,0.0,0.0,0.0,0.0,0.0,0.0,0.0,0.0,0.0,2.16,2.1548,2.1591,2.1607,0.0,2.1263,2.1279,2.1184,0.0,0.0,0.0,0.0,0.0,0.0,0.0,0.0,2.6146,2.7148,2.8138,2.9159,2.9869,3.032,3.0478,3.1208,3.1241,3.0315,2.9567,2.8682,2.7699,2.6759,0.0,0.0,0.0,0.0,0.0,0.0,0.0,0.0,0.0,0.0,0.0,0.0,0.0,0.0,0.0,0.0,0.0,0.0,0.0,0.0,0.0,0.0,0.0,0.0,0.0,0.0,0.0,0.0,0.0,1.5612,1.6383,1.7517,1.7011,1.6873,0.0,0.0,0.0,0.0,0.0,0.0,0.0,0.0,0.0,2.0698,2.1385,2.21,2.2936,2.2917,2.3252,2.3947,2.3334,2.3412,2.4014,2.3711,2.4095,2.4962,2.4723,2.4165,2.3302,2.2411,2.1243,2.0038,0.0,0.0,0.0,0.0,0.0,1.9572,1.9459,1.9961,0.0,0.0,0.0,0.0,0.0,0.0,0.0,0.0,0.0,0.0,0.0,0.0,0.0,2.3713,2.408,2.4368,2.4328,2.4388,2.4004,0.0,2.2189,2.2363,2.3283,0.0,0.0,0.0,0.0,2.6439,2.7765,2.8676,2.9783,3.1221,3.1362,3.1576,3.2131,3.2035,3.1848,3.147,3.1054,3.0597,3.0072,2.883,2.8021,0.0,0.0,0.0,0.0,0.0,0.0,0.0,0.0,0.0,0.0,0.0,0.0,0.0,0.0,0.0,0.0,0.0,0.0,0.0,0.0,0.0,0.0,0.0,0.0,0.0,0.0,0.0,0.0,1.6726,1.731,1.8565,1.8317,1.8242,0.0,0.0,0.0,0.0,0.0,0.0,2.0151,2.0993,2.1806,2.2557,2.291,2.353,2.436,2.4338,2.4823,2.5775,2.5358,2.5384,2.5918,2.5576,2.5715,2.6092,2.5532,2.533,2.5196,2.4007,2.2607,2.1265,2.1049,2.0939,2.0883,2.0651,2.0695,2.0872,2.0749,2.0956,2.1263,2.1212,0.0,2.1831,2.2154,0.0,0.0,0.0,0.0,2.285,2.3657,2.4295,2.4819,2.5345,2.5943,2.6453,2.6568,2.6604,2.6023,0.0,2.3479,2.3811,2.5023,0.0,0.0,0.0,0.0,2.8237,2.9205,3.0107,3.1219,3.2567,3.2434,3.2537,3.3259,3.2901,3.2564,3.2398,3.2318,3.2157,3.1823,3.059,2.985,2.9655,0.0,0.0,0.0,0.0,0.0,0.0,0.0,0.0,0.0,0.0,0.0,0.0,0.0,0.0,0.0,0.0,0.0,0.0,0.0,0.0,0.0,0.0,0.0,0.0,0.0,0.0,0.0,0.0,0.0,2.0564,2.0633,0.0,0.0,0.0,0.0,1.9427,1.9315,2.0173,2.2225,2.323,2.4112,2.4911,2.448,2.465,2.5593,2.548,2.5567,2.5825,2.6277,2.6936,2.7677,2.7137,2.7329,2.8012,2.7291,2.6539,2.5791,2.497,2.4091,2.3255,2.2519,2.1915,2.1343,2.044,2.0431,2.0793,2.0785,2.1344,2.2056,2.21,2.2642,2.3481,2.4359,2.4252,0.0,0.0,2.4996,2.5199,2.6038,2.6235,2.6271,2.6241,2.6322,2.6585,2.7282,2.751,2.7219,0.0,2.5912,2.5971,2.609,0.0,2.6449,2.7387,2.8343,2.9242,3.012,3.1094,3.1786,3.1927,3.2708,3.3243,3.3318,3.4036,3.4111,3.328,3.3178,3.2717,3.1861,3.1667,3.1524,3.1492,2.9984,0.0,0.0,0.0,0.0,0.0,0.0,0.0,0.0,0.0,0.0,0.0,0.0,0.0,0.0,0.0,0.0,0.0,0.0,0.0,0.0,0.0,0.0,0.0,0.0,0.0,0.0,0.0,0.0,2.1414,2.1507,0.0,2.1438,2.1168,2.0862,2.0535,2.1169,2.2373,2.4338,2.4559,2.5012,2.5855,2.6523,2.6997,2.7228,2.8074,2.8393,2.8119,2.8303,2.8451,2.8561,2.7845,2.7674,2.7913,2.7265,2.6821,2.6517,2.6249,2.5336,2.4147,2.3846,2.3604,2.342,2.309,2.3157,2.3315,2.3404,2.3692,2.4007,2.4216,2.4534,2.4967,2.5482,2.5876,2.6209,2.659,2.664,2.6835,2.7658,2.7852,2.7937,2.842,2.9003,2.9526,2.9755,2.9879,2.9794,2.9428,2.8955,2.8773,2.9344,2.9416,2.9575,2.999,3.0332,3.0906,3.1908,3.2901,3.3477,3.3568,3.4892,3.5312,3.4223,3.4958,3.5071,3.4186,3.4067,3.3889,3.3545,3.2933,3.259,3.2567,3.1987,3.0953,0.0,0.0,0.0,0.0,0.0,0.0,0.0,0.0,0.0,0.0,0.0,0.0,0.0,0.0,0.0,0.0,0.0,0.0,0.0,0.0,0.0,0.0,0.0,0.0,0.0,0.0,2.1302,2.2667,2.2919,2.3033,2.2996,2.2997,2.2685,2.2009,2.2735,2.4158,2.6429,2.6604,2.6874,2.7393,2.8344,2.8834,2.8688,2.9554,2.9789,2.9386,2.9696,2.9729,2.9479,2.8931,2.8657,2.8554,2.7776,2.7402,2.7369,2.706,2.6623,2.6149,2.5473,2.4932,2.4461,2.4523,2.4615,2.4701,2.4942,2.5201,2.5502,2.6037,2.6478,2.6889,2.7361,2.8011,2.8572,2.8648,2.8648,2.8757,2.9326,2.9461,2.958,3.0114,3.0737,3.1227,3.1518,3.1853,3.2135,3.2428,3.1378,3.0586,3.1159,3.1451,3.1796,3.2217,3.2525,3.3105,3.4117,3.4833,3.5264,3.5356,3.64,3.6648,3.5522,3.5972,3.5935,3.5071,3.5011,3.4817,3.4495,3.3904,3.356,3.3538,3.3276,3.211,3.0058,0.0,0.0,0.0,0.0,0.0,0.0,0.0,0.0,0.0,0.0,0.0,0.0,0.0,0.0,0.0,0.0,0.0,0.0,0.0,0.0,0.0,0.0,0.0,2.0039,2.195,2.3644,2.4375,2.504,2.5421,2.5417,2.5356,2.4965,2.4076,2.4006,2.5407,2.8479,2.9481,2.9836,2.9665,2.988,2.9989,2.9828,2.9728,2.9592,2.9489,3.0317,3.0662,3.0554,3.048,3.037,3.019,2.8924,2.8448,2.8345,2.7456,2.8065,2.9296,2.7469,2.5814,2.4536,2.4596,2.472,2.4902,2.531,2.5847,2.6551,2.7566,2.8363,2.9097,3.0026,3.0553,3.0887,3.0887,3.1,3.1111,3.1111,3.113,3.121,3.121,3.1289,3.1613,3.2418,3.3276,3.41,3.488,3.304,3.1378,3.1466,3.2114,3.2973,3.395,3.4803,0.0,3.6593,3.6833,3.6932,3.7004,3.7113,3.7136,3.7099,3.7099,3.6761,3.5935,3.5935,3.5537,3.457,3.457,3.4547,3.4442,3.3768,3.2693,3.1286,0.0,0.0,0.0,0.0,0.0,0.0,0.0,0.0,0.0,0.0,0.0,0.0,0.0,0.0,0.0,0.0,0.0,0.0,0.0,0.0,0.0,2.0648,2.3041,2.4716,2.5132,2.5464,2.5926,2.6078,2.6118,2.6053,2.5964,2.6041,2.6403,2.6922,2.7886,2.9377,3.017,3.0556,3.054,3.069,3.076,3.0696,3.0869,3.0888,3.0734,3.1404,3.1885,3.2212,3.123,3.0886,3.0857,2.9431,2.9028,2.9304,2.905,2.9151,2.9397,2.8135,2.7387,2.7047,2.7463,2.7741,2.8015,2.831,2.861,2.898,2.9351,2.9656,2.9925,3.0141,3.124,3.2378,3.2378,3.2961,3.361,3.361,3.3176,3.2915,3.3495,3.372,3.4053,3.4856,3.5337,3.5679,3.5899,3.5413,3.4972,3.5,3.5202,3.5504,3.5843,3.6091,0.0,3.6795,3.7368,3.7592,3.7113,3.8188,3.8437,3.7174,3.7601,3.7314,3.5972,3.6283,3.6222,3.5394,3.5946,3.5984,3.5446,3.4089,3.3214,0.0,0.0,0.0,0.0,0.0,0.0,0.0,0.0,0.0,0.0,0.0,0.0,0.0,0.0,0.0,0.0,0.0,0.0,0.0,0.0,0.0,0.0,2.289,2.4883,2.8016,2.7159,2.6597,2.75,2.7163,2.7245,2.824,2.7899,2.7958,2.8815,2.9035,2.9467,3.0198,3.0693,3.0969,3.11,3.1696,3.1952,3.1917,3.2276,3.2383,3.2344,3.2544,3.2807,3.3066,3.2374,3.2063,0.0,3.0903,3.0639,3.0992,3.1179,3.128,0.0,0.0,0.0,0.0,0.0,2.914,2.9386,2.9723,3.0099,3.0547,3.1062,3.1264,3.1367,3.2075,3.2624,3.3127,3.345,3.4073,3.4624,3.4624,3.4546,3.4576,3.5078,3.5271,3.5469,3.601,3.6465,3.678,3.678,0.0,0.0,3.7468,3.7202,3.7036,3.7081,3.7377,3.7681,0.0,3.8637,3.885,3.8177,3.9264,3.9502,3.8153,3.8465,0.0,0.0,0.0,3.7044,3.6269,3.6694,0.0,0.0,0.0,0.0,0.0,0.0,0.0,0.0,3.0636,2.9781,0.0,0.0,0.0,0.0,0.0,0.0,0.0,0.0,0.0,0.0,0.0,0.0,0.0,0.0,0.0,0.0,2.4615,2.6061,2.9746,2.8359,2.7552,2.9085,2.8445,2.8724,3.0803,3.0297,3.0143,3.09,3.0471,3.0514,3.1146,0.0,0.0,0.0,0.0,3.3269,3.3236,3.3499,3.3714,3.3877,3.3575,3.3516,3.3626,3.3634,3.3567,3.3415,3.2722,3.2588,3.285,3.3296,3.3609,3.3516,3.1004,2.9681,2.924,2.9649,2.9832,0.0,0.0,0.0,0.0,3.2776,3.3022,3.3204,3.4692,3.4396,3.3656,3.4375,3.479,3.5023,3.5023,3.5489,3.6054,3.6219,3.6279,3.6406,3.6641,3.7257,3.7734,3.7771,3.8368,3.8929,3.9039,3.8375,3.7914,3.8072,3.8674,0.0,3.9522,4.0103,4.0253,3.9589,0.0,0.0,3.9447,3.9425,3.9088,3.8177,3.8153,3.7941,3.7304,3.7192,3.7178,3.7211,3.7136,3.7122,3.7167,3.6465,3.6171,3.6252,3.4018,3.2536,0.0,0.0,0.0,0.0,0.0,0.0,0.0,0.0,0.0,0.0,0.0,0.0,0.0,0.0,0.0,2.4155,2.5869,2.7395,2.8154,2.8868,2.9698,3.0659,3.0581,3.0414,3.0395,3.0484,3.0815,3.1361,3.1446,3.2092,3.3553,3.3605,3.3766,3.4058,3.3897,3.3722,3.3441,3.3152,3.3302,3.3753,0.0,0.0,3.4745,3.4197,3.3885,3.3782,3.2794,3.2856,3.3668,3.3939,3.3617,3.2883,3.2211,3.2152,3.2521,3.3148,3.2906,3.2376,3.3385,3.3706,3.3844,3.4679,3.4957,3.496,3.5249,3.5672,0.0,3.6206,3.6847,3.7486,3.7486,3.7156,3.6939,3.7624,3.7834,3.8081,3.8798,3.9118,3.9292,3.9423,3.9111,3.9054,3.9741,3.9303,3.9092,3.976,4.002,4.0207,4.0401,4.0493,4.0242,3.9639,3.9589,3.956,3.9436,3.9283,3.8947,3.8152,3.8103,3.839,3.8989,3.8353,3.7978,3.8003,3.7376,3.7052,3.6956,3.6911,3.6859,3.6798,3.545,3.4347,0.0,0.0,0.0,0.0,0.0,0.0,0.0,0.0,0.0,0.0,0.0,2.1352,2.2574,0.0,2.4478,2.5622,2.7222,2.8622,2.9357,3.0316,3.0992,3.1101,3.1084,3.122,3.173,3.1887,3.2127,3.2553,3.2941,3.3547,3.4513,3.4517,3.4517,3.4506,3.4347,3.4267,3.4226,3.4206,3.4431,3.4916,3.4802,3.4947,3.5329,3.5093,3.4901,3.4762,3.4414,3.4474,3.4856,3.5086,3.4958,3.4734,3.4925,3.4486,3.3854,3.3782,3.3539,3.3433,3.4868,3.5368,3.5398,3.5744,3.5954,3.617,3.6602,3.6811,3.6949,3.7246,3.7747,3.8282,3.8681,3.879,3.8862,3.9329,3.9472,3.9649,4.0148,4.0288,4.0354,4.0455,4.022,4.0197,4.0755,4.0606,4.0579,4.1017,4.1176,4.122,4.1263,4.1193,4.0867,4.0124,3.9944,3.9713,3.9266,3.9202,3.9043,3.8775,3.8686,3.9111,4.0076,3.9638,3.96,4.0038,3.9252,3.8814,3.8738,3.8465,3.8265,3.824,3.787,3.702,0.0,0.0,0.0,0.0,0.0,0.0,0.0,2.1298,2.1805,2.204,2.209,2.252,2.3927,2.4411,2.5201,2.7031,2.8312,2.96,3.1133,3.1829,3.2037,3.1629,3.1646,3.2213,3.3466,3.3548,3.3713,3.4126,3.441,3.4695,3.4974,3.4961,3.4805,3.4619,3.4711,3.4882,3.5053,3.5487,3.5859,3.6146,3.5949,3.5912,3.5971,3.6197,3.6059,3.5693,3.6311,3.65,3.632,3.6389,3.6612,3.7062,3.7733,3.7103,3.5683,3.4644,3.4323,3.4673,3.6327,3.7112,3.7322,3.7138,3.7244,3.7639,3.8325,3.8174,3.7805,3.8108,3.8432,3.8719,3.926,3.9913,4.0528,4.0671,4.0815,4.0959,4.1129,4.1126,4.1162,4.1364,4.125,4.1304,4.1765,4.192,4.1969,4.2053,4.219,4.2216,4.2136,4.2081,4.1726,4.0859,4.0663,4.0346,3.964,3.9602,3.9658,3.9832,3.9741,4.0066,4.0873,4.0857,4.1156,4.1846,4.1193,4.083,4.0802,4.021,3.9989,4.0014,4.0388,3.9565,2.0723,2.0963,2.1201,2.1148,2.1351,2.1753,0.0,2.2514,2.287,2.4317,2.4563,2.4793,2.5742,2.6429,2.6885,2.7042,2.8551,3.0176,3.1545,3.2629,3.3299,3.3169,3.387,3.447,3.4607,3.493,3.5321,3.5719,3.512,3.5081,3.5713,3.5483,3.544,3.572,3.5736,3.5586,3.5249,3.5941,3.6323,3.637,3.698,3.7282,3.7282,3.733,3.6774,3.5937,3.7558,3.8242,3.8153,3.757,3.7516,3.7929,3.95,4.0412,4.0569,3.8703,3.7914,3.7901,3.9018,3.998,4.0673,4.0309,4.0268,4.0304,4.0274,4.0307,4.0159,3.9335,3.959,4.0059,3.9515,3.9914,4.0456,4.0634,4.1143,4.1651,4.2006,4.1969,4.2004,4.2267,4.1682,4.1461,4.256,4.2768,4.2827,4.3034,4.3117,4.3117,4.2969,4.2913,4.2548,4.1633,4.151,4.1423,4.1311,4.1311,4.1341,4.1427,4.1427,4.1493,4.1651,4.1651,4.1726,4.1801,4.1726,4.1661,4.1576,4.1604,4.1691,4.182,4.2063,4.0912,2.2893,2.3013,2.3151,2.4076,2.4372,2.4465,2.4729,2.4613,2.4633,2.5327,2.5386,2.5636,2.6473,2.7338,2.8072,0.0,2.999,3.1329,3.1727,3.3219,3.4491,3.5142,3.5777,3.5928,3.5283,3.5613,3.6007,3.6312,3.6435,3.6766,3.7324,3.7232,3.7197,3.7329,3.7183,3.6988,3.6835,3.7138,3.732,3.7415,3.7719,3.7889,3.7984,3.778,3.7853,3.8242,3.9222,3.9319,3.8642,3.8248,3.8567,3.9481,4.0466,4.114,4.13,3.9861,3.9343,3.958,4.0399,4.0957,4.1216,4.0743,4.0994,4.1573,4.2118,4.19,4.1393,4.0926,4.0963,4.1179,4.1397,4.1614,4.1867,4.1941,4.2195,4.2486,4.2704,4.2775,4.2844,4.3082,4.2926,4.2908,4.352,4.3618,4.3706,4.3858,4.3998,4.4025,4.3764,4.3324,4.264,4.1675,4.1579,4.1549,4.1609,4.1609,4.1638,4.1696,4.1696,4.194,4.2482,4.2454,4.2715,4.322,4.2686,4.2482,4.2612,4.2205,4.2134,4.2351,4.2595,4.2183,2.4813,2.4807,2.4838,2.6,2.6268,2.6245,2.6152,2.5924,2.5893,2.6391,2.6232,2.641,2.77,2.8398,2.9152,3.032,3.1585,3.2582,3.2985,3.433,3.5627,3.6453,3.7075,3.7006,3.6109,3.6221,3.6559,3.7015,3.7366,3.781,3.838,3.8277,3.8265,3.8265,3.8031,3.7922,3.7922,3.8091,3.8241,3.8336,3.8588,3.8785,3.8926,3.87,3.9202,4.0214,4.0561,4.019,3.9418,3.9097,3.9487,4.0405,4.1622,4.2102,4.209,4.1367,4.0954,4.0891,4.1453,4.1683,4.1687,4.1288,4.1686,4.2484,4.3211,4.2957,4.2338,4.1977,4.1941,4.2084,4.2558,4.2956,4.3244,4.332,4.3465,4.3612,4.3543,4.3579,4.3648,4.36,4.3767,4.4003,4.4407,4.4505,4.4535,4.4691,4.4834,4.4721,4.4207,4.3558,4.2902,4.2199,4.2125,4.2187,4.2247,4.2277,4.227,4.2337,4.23,4.259,4.3245,4.3223,4.358,4.4296,4.361,4.339,4.3679,4.3139,4.301,4.3281,4.3503,4.3649,2.5911,2.5949,2.5937,2.5973,2.5949,2.59,2.59,2.5811,2.6161,2.7807,2.7433,2.761,3.0098,2.9976,3.0255,3.2601,3.3039,3.3759,3.576,3.6384,3.6676,3.6676,3.7395,3.7757,3.7395,3.7017,3.7176,3.8108,3.7559,3.7545,3.838,3.8078,3.7922,3.7922,3.7922,3.7922,3.7922,3.8599,3.8971,3.8971,3.9831,4.0368,4.0542,4.0662,4.0876,4.1139,4.1174,4.1165,4.1094,4.0371,4.0075,4.0377,4.3158,4.4202,4.4254,4.4385,4.3415,4.2092,4.2418,4.2693,4.2846,4.281,4.2995,4.3178,4.3285,4.3324,4.3139,4.2195,4.2303,4.2662,4.2159,4.2994,4.4035,4.4269,4.4926,4.5251,4.4526,4.4419,4.4307,4.3812,4.3767,4.4161,4.5251,4.5301,4.5239,4.5431,4.5462,4.5102,4.404,4.3697,4.3631,4.373,4.3795,4.3823,4.3823,4.3886,4.3912,4.3912,4.3912,4.3949,4.3949,4.3949,4.4072,4.4308,4.427,4.4373,4.4638,4.4751,4.4966,4.5207,4.5361,4.5543,2.6453,2.7092,2.7697,2.821,2.8712,2.9107,2.9088,2.892,2.8912,2.959,2.9396,2.9438,3.0368,3.1279,3.2127,3.3003,3.3984,3.499,3.6056,3.6357,3.6718,3.7218,3.7899,0.0,3.7945,3.7787,0.0,3.8374,3.8482,3.8853,3.9472,3.9442,3.9343,3.9343,3.9476,3.9763,4.0238,4.0576,4.105,4.1697,4.2037,4.1877,4.1263,4.1276,4.1544,4.1903,4.195,4.138,4.0508,4.0588,4.1773,4.379,4.5598,4.5341,4.4082,4.4476,4.4242,4.3822,4.4237,4.4473,4.4331,4.324,4.3355,4.3832,4.3322,4.3178,4.3142,4.285,4.325,4.3609,4.2918,4.3609,4.4701,4.5579,4.5988,4.5845,4.4784,4.4673,4.4626,4.3919,4.4341,4.4984,4.5276,4.5281,4.4962,4.428,4.4337,4.4326,4.3934,4.3701,4.3566,4.3667,4.3701,4.3767,4.3897,4.3929,4.3961,4.3986,4.3986,4.4055,4.4153,4.417,4.4279,4.4486,4.4557,4.4726,4.5011,4.5071,4.526,4.5475,4.5586,4.5693,2.7647,2.8309,2.8972,2.9761,3.0299,3.0628,3.0606,3.0457,3.0437,3.0838,3.0604,3.0614,3.1617,3.2465,3.3279,3.4235,3.5426,3.643,3.7039,3.7435,3.7826,3.8217,3.8673,3.8793,3.8356,3.8594,0.0,3.8849,3.9037,3.9544,4.0426,4.0493,4.0646,4.0968,4.1019,4.1359,4.1921,4.1972,4.2364,4.298,4.3182,4.2999,4.2614,4.2458,4.2693,4.3092,4.3123,4.2293,4.1003,4.2063,4.3854,4.6011,4.6696,4.613,4.5032,4.5419,4.5507,4.5479,4.5245,4.5188,4.5043,4.4065,4.3966,4.4193,4.3977,4.3722,4.3651,4.4017,4.427,4.43,4.3901,4.4227,4.4992,4.6273,4.6574,4.6359,4.5552,4.5369,4.5178,4.4662,4.5197,4.5663,4.563,4.5305,4.4764,4.4009,4.4039,4.3996,4.3704,4.3497,4.3428,4.3532,4.3566,4.3667,4.3869,4.3832,4.3897,4.3961,4.3986,4.4048,4.4147,4.4317,4.4513,4.4712,4.4777,4.4957,4.5281,4.5281,4.5381,4.5586,4.562,4.5693,2.9422,2.9589,2.9719,3.0614,3.0707,3.0588,3.0588,3.0533,3.0685,3.1586,3.1067,3.1249,0.0,0.0,3.3928,3.6217,3.7255,3.8043,3.8754,3.9468,3.9775,0.0,0.0,0.0,3.8674,0.0,0.0,3.965,0.0,3.9749,4.117,4.1271,4.168,4.2464,4.255,4.2636,4.2843,4.2929,4.298,4.3133,4.3301,4.3798,4.4472,4.4167,4.4272,4.4653,4.4636,4.3804,4.2661,4.4646,4.6083,4.6962,4.6424,4.6564,4.699,4.7143,4.7178,4.6963,4.5587,4.5126,4.5168,4.5292,4.4791,4.4292,4.4989,4.4851,4.4673,4.5552,4.5215,4.4657,4.4967,4.4887,4.5091,4.6424,4.6795,4.6795,4.6788,4.6394,4.5993,4.5847,4.6027,4.6207,4.6207,4.5512,4.4856,4.4745,4.4674,4.4273,4.3397,4.3287,4.336,4.3504,4.3573,4.364,4.3808,4.3841,4.3837,4.3897,4.4017,4.414,4.414,4.443,4.4712,4.4914,4.4986,4.5148,4.5398,4.5398,4.5496,4.5586,4.5586,4.5637,3.0234,3.0648,3.1097,3.1337,3.1706,3.2069,3.2069,3.1971,3.2009,3.2284,3.2639,3.3133,3.3837,3.4831,3.5969,3.722,3.8043,0.0,3.9651,3.9786,0.0,3.9691,4.0187,4.0292,3.9604,4.0782,0.0,0.0,4.0932,4.1291,4.2106,4.2312,4.2466,4.2722,4.2792,4.3169,4.3751,4.4405,4.4837,4.506,4.4941,4.5246,4.5929,4.5892,4.5587,4.523,4.5176,4.4964,4.4706,4.602,4.6716,4.7002,4.6838,4.6755,4.666,4.6962,4.6998,4.688,4.6579,4.6613,4.66,4.5972,4.5606,4.5204,4.3908,4.4538,4.5642,4.5464,4.5606,4.5526,4.4209,4.5606,4.7408,4.7611,4.7779,4.7719,4.709,4.7426,4.7277,4.5369,4.5516,4.614,4.669,4.7093,4.6872,4.5551,4.5955,4.5883,4.4491,4.4857,4.5224,4.5187,4.4711,4.445,4.4518,4.4099,4.3929,4.4048,4.4199,4.4383,4.4496,4.4659,4.4815,4.4914,4.5125,4.5256,4.5337,4.538,4.54,4.5438,4.5438,4.5475,3.0963,3.1581,3.2268,3.2524,3.3166,3.356,3.314,3.3035,3.293,3.261,3.2926,3.3383,3.3771,3.5259,3.6649,3.747,3.8826,0.0,4.0474,4.1034,4.1298,4.1011,4.1674,4.1866,4.1085,4.1877,4.2346,0.0,4.2108,4.2296,4.3079,4.32,4.3476,4.3836,4.3941,4.4371,4.518,4.5681,4.6238,4.6813,4.6531,4.6587,4.6892,4.68,4.6499,4.6083,0.0,4.5963,4.6152,4.6729,4.6941,4.6905,4.6932,4.6837,4.6602,4.6824,4.686,4.6731,4.6778,4.6916,4.6945,4.6514,4.6083,4.5602,4.4964,4.5198,4.5719,4.6127,4.6571,4.668,4.573,4.6731,4.8028,4.8016,4.8035,4.7937,4.7526,4.7607,4.7463,4.6359,4.6211,4.6393,4.6752,4.6898,4.6679,4.5729,4.6316,4.6614,4.5883,4.5773,4.5772,4.5809,4.537,4.5187,4.5399,4.5097,4.5004,4.519,4.5006,4.4965,4.5077,4.4952,4.4865,4.4914,4.5103,4.5382,4.5703,4.543,4.5684,4.6431,4.5744,4.5822,3.1826,3.2509,3.3191,3.3875,3.4551,3.4801,3.3812,3.3635,3.3424,3.2649,3.2611,3.2995,3.3774,3.5261,3.6684,3.7681,3.9572,4.1002,4.1217,4.2573,4.3251,4.2601,4.3349,4.3554,4.2672,4.2808,4.3132,4.3613,4.3144,4.3182,4.4004,4.4194,4.4624,4.5505,4.5539,4.5937,4.6734,4.6734,4.7153,4.8047,4.781,4.7627,4.7487,4.7282,4.721,4.7209,0.0,0.0,4.7258,4.7346,4.7133,4.6742,4.7037,4.6884,4.6637,4.6731,4.6684,4.659,4.659,4.659,4.659,4.6855,4.6364,4.5811,4.6936,4.6327,4.5609,4.7003,4.7565,4.768,4.7892,4.7824,4.7756,4.7911,4.7849,4.7779,4.7955,4.7332,4.6968,4.77,4.7259,4.6743,4.6654,4.619,4.5833,4.5833,4.6533,4.709,4.7204,4.6504,4.6026,4.6102,4.5916,4.5956,4.6282,4.6242,4.6376,4.66,4.5971,4.564,4.5726,4.5179,4.4927,4.5041,4.5162,4.5627,4.6377,4.5811,4.632,4.7739,4.633,4.6508,3.3476,3.3661,3.3844,3.4623,3.48,3.455,3.3633,3.3493,3.3318,3.2407,3.2932,3.3741,3.4482,3.5545,3.704,3.9218,3.986,4.0613,4.2051,4.2852,4.3208,4.2863,4.3476,4.365,4.3028,4.3597,0.0,0.0,4.4814,4.4727,4.479,4.5623,4.6507,4.7231,4.7265,4.741,4.7657,4.7548,4.7617,4.7939,4.7755,4.7796,4.7979,4.819,4.8256,4.8332,4.828,0.0,4.86,4.9172,4.84,4.7015,4.7488,4.7252,4.666,4.6637,4.6542,4.6447,4.6542,4.6447,4.6266,4.6553,4.6646,4.6763,4.6972,4.6919,4.6856,4.7044,4.7212,4.7457,4.7723,4.7741,4.7715,4.7705,4.7761,4.7733,4.7907,4.7325,4.6779,4.6924,4.6735,4.6762,4.7373,4.7538,4.7591,4.7591,4.7897,4.8161,4.8007,4.7858,4.7785,4.7785,4.7239,4.6874,4.6948,4.6644,4.6508,4.6663,4.6068,4.5763,4.5968,4.5164,4.5104,4.5899,4.5975,4.6404,4.7289,4.721,4.7334,4.7638,4.7357,4.7465,3.3799,3.4232,3.4623,3.5366,3.5751,3.5603,3.4259,3.4016,3.3774,3.2441,3.2651,3.3283,3.4058,3.5722,3.7468,3.9111,4.076,4.2123,4.3068,4.4133,4.4678,4.4458,4.4858,4.5032,4.4539,4.4975,4.5436,4.5617,4.6083,4.6206,4.5829,4.6335,4.6995,4.7775,4.7755,4.7907,4.8363,4.8286,4.8605,4.9208,4.8985,4.8889,4.8942,4.91,4.8975,4.8635,4.8777,0.0,4.8608,4.9167,4.8622,4.7533,4.7272,4.6835,4.6411,4.6495,4.6398,4.6301,4.635,4.6301,4.6204,4.6293,4.6472,4.6637,4.6941,4.7069,4.7114,4.7053,4.7035,4.7204,4.7427,4.7594,4.7687,4.7687,4.7705,4.7715,4.7783,4.7493,4.7239,4.7239,4.7197,4.7265,4.7627,4.7866,4.7992,4.7992,4.8229,4.8343,4.8226,4.8072,4.7951,4.7947,4.7624,4.7448,4.7565,4.7573,4.767,4.7839,4.728,4.702,4.7136,4.6365,4.6166,4.6636,4.669,4.7121,4.7969,4.7631,4.7973,4.8859,4.8465,4.8552,3.4193,3.487,3.551,3.607,3.6667,3.6626,3.4812,3.4539,3.423,3.2475,3.2336,3.2789,3.3776,3.5616,3.7468,3.8863,4.1193,4.3104,4.3724,4.5012,4.586,4.5784,4.6271,4.6499,4.6199,4.648,0.0,4.679,4.7485,0.0,4.7168,4.7079,4.7479,4.8335,4.8238,4.8493,4.9102,4.9079,4.9469,5.0341,5.0092,4.9894,4.9711,4.98,4.9556,4.9081,4.9336,0.0,0.0,4.925,4.9003,4.8317,4.7548,4.7075,4.6745,4.6618,4.6499,4.64,4.6224,4.6189,4.6189,4.6189,4.6217,4.6341,4.6755,4.6966,4.7013,4.6998,4.7017,4.7071,4.7178,4.7455,4.7615,4.763,4.7644,4.7615,4.744,4.7548,4.7621,4.7482,4.7591,4.7699,4.7699,4.7866,4.7992,4.7992,4.8151,4.8229,4.8148,4.7911,4.7705,4.7615,4.7657,4.7783,4.7951,4.8307,4.8678,4.8855,4.8385,4.8128,4.8152,4.7454,4.7174,4.7353,4.741,4.7928,4.8966,4.8434,4.8969,5.0491,4.9936,5.0,3.5687,3.6114,3.6327,3.6847,3.7055,3.6626,3.4812,3.4539,3.423,3.2475,3.2336,3.293,3.4446,3.5013,3.6328,3.9475,4.0229,4.1238,4.3628,4.4426,4.4999,4.5713,4.6719,4.7292,4.7292,4.7543,4.8093,4.8951,4.909,0.0,4.8889,4.8687,4.9033,4.9964,4.9827,4.9861,5.0067,4.993,4.9965,5.0263,5.0034,4.9884,4.9722,5.0011,5.0202,5.0244,5.0538,0.0,0.0,5.0876,5.0418,4.9713,4.9538,4.9046,4.8393,4.7487,4.7191,4.7187,4.63,4.609,4.6189,4.609,4.6253,4.659,4.659,4.6813,4.6998,4.6998,4.7017,4.699,4.7035,4.7196,4.7356,4.7507,4.7507,4.7335,4.6591,4.6988,4.7355,4.6716,4.7192,4.7699,4.7699,4.7866,4.7992,4.7992,4.8148,4.8148,4.7875,4.7663,4.7486,4.7267,4.7529,4.7741,4.7793,4.8192,4.8532,4.8787,4.8319,4.8034,4.8128,4.7395,4.7379,4.8181,4.8181,4.906,5.079,5.0714,5.1187,5.2191,5.2115,5.2172,3.5971,3.6256,3.6323,3.6953,3.7087,3.6587,3.4853,3.4576,3.4266,3.2617,3.2792,3.3564,3.4765,3.5829,3.7362,3.9802,4.0989,4.2361,4.4469,4.5364,4.6169,4.7295,4.7654,4.7886,4.8181,0.0,4.9199,4.991,4.9945,0.0,4.9924,4.9305,4.9353,5.0171,5.0034,5.0011,5.0092,5.0068,5.0068,5.0092,4.9918,4.9884,4.9999,5.0228,5.0397,5.0564,5.0838,0.0,0.0,5.1016,5.04,4.9556,4.9504,4.903,4.8434,4.8015,4.7806,4.7806,4.7387,4.7283,4.7195,4.7178,4.6934,4.665,4.6442,4.6542,4.6778,4.686,4.6962,4.7017,4.7017,4.7026,4.7115,4.7187,4.7276,4.7248,4.6967,4.7147,4.7299,4.7139,4.7355,4.7615,4.7657,4.7824,4.7947,4.7947,4.8068,4.8108,4.7747,4.7699,4.7529,4.7223,4.7312,4.7399,4.745,4.7915,4.8489,4.9119,4.882,4.894,4.9454,4.8765,4.8596,4.8995,4.9025,4.9394,5.0153,5.0665,5.1139,5.1575,5.2655,5.2911,3.6292,3.6612,3.6643,3.7023,3.7087,3.6661,3.4891,3.4579,3.4266,3.2722,3.3107,3.3987,3.4906,3.6434,3.8149,4.002,4.1605,4.3231,4.5052,4.5915,4.6843,4.7958,4.8211,4.8374,4.8639,4.9328,4.9901,5.0049,0.0,0.0,5.0397,4.9799,4.9652,5.0171,5.0034,5.0011,5.0011,5.0011,4.9952,4.9918,4.9767,4.9767,4.9884,5.0057,5.0228,5.0363,0.0,0.0,0.0,5.0764,5.029,4.9625,4.9625,4.9361,4.8923,4.8625,4.8502,4.8394,4.8043,4.7919,4.7865,4.7755,4.743,4.7037,4.6793,4.6604,4.6542,4.6684,4.6813,4.6906,4.6987,4.6998,4.7017,4.6981,4.7071,4.716,4.7232,4.7276,4.732,4.745,4.7493,4.7536,4.7657,4.7819,4.7902,4.7902,4.8024,4.8138,4.8109,4.7976,4.7875,4.7949,4.7813,4.7589,4.7214,4.7747,4.844,4.9322,4.9195,4.9471,5.0355,4.9706,4.9471,4.9865,4.9865,5.0122,5.0703,5.1292,5.1798,5.2151,5.3391,5.3686,3.6967,3.7503,3.7503,3.7167,3.7203,3.6814,3.4929,3.4579,3.4266,3.2722,3.3176,3.4056,3.4941,3.647,3.8186,4.002,4.1605,4.3231,4.5052,4.5755,4.6378,4.7035,4.8032,4.8675,4.8521,4.9783,5.0215,4.9353,0.0,0.0,5.0397,5.0285,5.0171,5.0171,5.0034,5.0011,5.0011,5.0011,4.9918,4.9708,4.9708,4.953,4.9229,4.9411,4.959,0.0,0.0,0.0,0.0,5.0397,5.0397,5.0397,5.0397,5.0397,5.0293,4.9396,4.9174,4.9124,4.7851,4.761,4.781,4.7329,4.761,4.8082,4.7885,4.7074,4.6253,4.6542,4.6673,4.6743,4.692,4.7002,4.7013,4.6998,4.6998,4.7043,4.7178,4.7178,4.7267,4.745,4.7493,4.7536,4.7657,4.7819,4.7902,4.7902,4.7902,4.8193,4.8956,4.8596,4.8657,4.9585,4.9329,4.858,4.7322,4.7663,4.8397,4.9322,4.9195,4.9471,5.0355,4.9706,4.9733,5.0654,5.0691,5.1544,5.3263,5.3263,5.3811,5.4761,5.4736,5.4736,3.6435,3.7076,3.7429,3.7279,3.7276,3.6852,3.5223,3.487,3.4482,3.296,3.3771,3.4799,3.5117,3.7006,3.8867,4.0092,4.1605,4.3228,4.5052,4.575,4.6677,4.84,4.9427,4.9958,4.994,0.0,5.0349,5.0084,0.0,0.0,5.0285,5.0228,5.0149,5.0034,5.0011,4.9918,4.9801,4.9767,4.9742,4.953,4.953,4.953,4.953,4.9708,0.0,0.0,0.0,0.0,0.0,5.0397,5.0397,5.0397,5.0285,5.0171,5.0022,4.9608,4.9481,4.9389,4.8821,4.8635,4.8575,4.8335,4.8116,4.8001,4.814,4.8062,4.7935,4.8134,4.7992,4.7625,4.6848,4.6707,4.6802,4.6778,4.7251,4.7725,4.7865,4.835,4.8657,4.8254,4.8279,4.8367,4.8489,4.8532,4.8756,4.93,4.9458,4.9531,4.9778,4.9603,4.9622,4.9794,4.9739,4.9431,4.8964,4.8792,4.9204,5.0211,4.9973,5.0187,5.1111,5.099,5.102,5.1457,5.1485,5.178,5.2339,5.3005,5.3779,5.4705,5.4705,5.4705,3.6185,3.6934,3.7466,3.7354,3.7317,3.6927,3.5332,3.4978,3.4623,3.3158,3.4118,3.5221,3.5323,3.7613,3.9661,4.0238,4.2183,4.3989,4.5124,4.6044,4.7178,4.8875,4.9609,5.0,0.0,5.0167,5.0237,4.9959,0.0,0.0,5.0114,5.0057,4.9942,4.9801,4.986,4.986,4.9708,4.9649,4.959,4.9471,4.9471,4.953,4.9649,4.9767,0.0,0.0,0.0,0.0,0.0,5.0171,5.0114,5.0114,4.9999,4.9884,4.9708,4.959,4.953,4.9411,4.8951,4.8861,4.8861,4.8547,4.8495,4.8609,4.8929,4.8771,4.8469,4.838,4.8345,4.8256,4.7674,4.7477,4.7421,4.7571,4.8022,4.8461,4.8603,4.9055,4.941,4.8954,4.9019,4.9153,4.9278,4.9322,4.951,5.0017,5.0177,5.025,5.0488,5.0435,5.0498,5.0777,5.0731,5.0731,5.0685,5.0039,5.0085,5.1132,5.0786,5.0971,5.1897,5.1707,5.174,5.2217,5.2282,5.2615,5.3181,5.4112,5.4856,5.5416,5.545,5.545,0.0,3.697,3.7577,3.7358,3.7358,3.6895,3.5297,3.4978,0.0,3.3355,3.4386,3.5531,3.5699,3.8326,4.042,4.0456,4.3126,4.5224,4.5269,4.6633,4.7904,4.86,4.8993,4.9076,4.8907,4.9734,4.9894,4.9201,0.0,0.0,4.9942,4.9825,4.9708,4.953,4.9649,4.9708,4.9649,4.953,4.9471,4.9471,4.9471,4.953,4.953,4.9649,0.0,0.0,0.0,0.0,0.0,4.9801,4.9708,4.9649,4.953,4.9471,4.9411,4.9229,4.929,4.929,4.845,4.8386,4.8576,4.8196,4.8673,4.953,4.9999,4.9257,4.8186,4.7819,4.8151,4.8783,4.9275,4.9029,4.8729,4.8976,4.911,4.9195,4.934,4.952,4.965,4.9614,4.9801,4.9983,4.9983,5.0073,5.0198,5.0234,5.0271,5.0524,5.1285,5.1128,5.1322,5.2173,5.2198,5.2198,5.2293,5.1297,5.1046,5.1903,5.1521,5.1677,5.2605,5.2083,5.2192,5.3009,5.319,5.3938,5.5398,5.6257,5.6669,5.6594,5.6669,5.6669,3.6363,0.0,3.7506,3.6719,3.6649,3.6327,0.0,3.4761,3.5041,3.4041,3.5178,3.657,3.7182,3.9013,4.06,4.1214,4.3451,4.5111,4.5152,4.7178,4.8733,4.869,4.9536,5.0098,5.0042,5.0045,4.9907,0.0,0.0,5.0114,4.9942,5.0114,5.0228,5.0171,4.9884,4.953,4.9168,4.935,4.935,4.9107,4.9471,4.9708,4.9825,4.9918,0.0,0.0,0.0,0.0,4.9767,4.9708,4.9649,4.953,4.9229,4.9141,4.9046,4.8798,4.8673,4.8673,4.8227,4.8131,4.8163,4.8356,4.8736,4.9202,4.9649,4.9894,5.0006,4.9901,4.992,4.9994,5.0242,5.0295,5.01,4.9023,4.9336,4.9912,5.0012,5.0758,5.1155,5.0546,5.0628,5.0813,5.0813,5.0905,5.1212,5.1828,5.1845,5.1917,5.219,5.1957,5.1934,5.2246,5.234,5.2387,5.2434,5.185,5.1553,5.1778,5.1919,5.2116,5.2379,5.357,5.4278,5.4502,5.5324,5.5958,5.6295,5.6557,5.6631,5.6594,5.648,5.6556,3.6399,3.7006,3.7542,3.7005,3.697,3.672,3.5435,3.5576,3.5749,3.5026,3.5915,3.7099,3.7859,3.9408,4.0745,4.1541,4.3638,4.5364,4.5996,4.7736,4.8912,4.8556,4.9622,5.0341,0.0,5.0126,4.9918,0.0,0.0,5.0114,4.9942,5.0171,5.0285,5.0171,4.9942,4.9649,4.929,4.935,4.929,4.9229,4.953,4.9767,4.9976,4.9976,5.0068,0.0,0.0,0.0,4.959,4.953,4.935,4.9107,4.8861,4.8736,4.8736,4.8483,4.8356,4.8292,4.7935,4.7737,4.7869,4.8595,4.9114,4.9622,5.0332,5.0976,5.1337,5.0654,5.0488,5.046,5.0659,5.0803,5.0735,4.9978,5.0188,5.0609,5.0815,5.1337,5.1665,5.1236,5.1359,5.1549,5.1491,5.1633,5.1907,5.2412,5.2354,5.2426,5.287,5.2726,5.27,5.3145,5.3279,5.3327,5.3279,5.3271,5.2959,5.2443,5.2941,5.3285,5.3407,5.4711,5.5458,5.5498,5.6434,5.692,5.692,5.7252,5.7438,5.7398,5.7357,5.7357,3.6434,3.6934,3.7434,3.7292,3.7363,3.7292,3.654,3.6503,3.6499,3.6013,3.6656,3.7594,3.8458,3.9944,4.1252,4.194,4.3966,4.5869,4.7187,4.8283,4.8811,4.854,4.9672,0.0,5.0068,5.0068,0.0,0.0,0.0,5.0171,4.9942,5.0171,5.0228,5.0022,4.9999,4.9884,4.9708,4.9411,4.935,4.9471,4.959,4.9801,4.9918,4.9918,4.9918,0.0,0.0,0.0,4.9411,4.9229,4.8984,4.8702,4.8547,4.8483,4.842,4.8361,4.8263,4.8033,4.7671,4.7537,4.7703,4.8596,4.9356,5.0096,5.0866,5.1603,5.1949,5.0956,5.053,5.0563,5.1081,5.1249,5.131,5.1368,5.1475,5.1494,5.1757,5.1912,5.2014,5.2014,5.2158,5.2233,5.2158,5.2184,5.2318,5.2533,5.2328,5.2543,5.3455,5.3376,5.3453,5.406,5.4235,5.4287,5.4184,5.4603,5.449,5.35,5.4136,5.4706,5.5064,5.5729,5.6177,5.645,5.7117,5.745,5.745,5.8104,5.8393,5.8349,5.8349,5.8349,3.654,3.6682,3.6576,3.5862,3.6252,3.6608,3.5717,3.6143,3.6642,3.65,3.7753,3.912,3.9914,4.1433,4.2847,4.3607,4.5039,4.6564,4.7976,4.8663,4.9224,4.959,0.0,5.0418,5.0206,5.0206,0.0,0.0,0.0,5.0453,5.0171,5.0544,5.071,5.0474,5.0285,5.0057,4.9884,4.9708,4.9471,4.9229,4.9411,4.959,4.9708,4.959,4.9649,0.0,0.0,4.929,4.9229,4.8889,4.8798,4.8769,4.8356,4.8227,4.8294,4.8763,4.8464,4.777,4.7537,4.7604,4.7737,4.8068,4.862,4.9187,4.9474,4.9949,5.0617,5.1613,5.1153,5.0783,5.2415,5.2831,5.2839,5.2895,5.2951,5.3062,5.3117,5.3299,5.346,5.346,5.3223,5.291,5.2946,5.2538,5.2394,5.2838,5.2465,5.2537,5.3778,5.41,5.4169,5.3851,5.3869,5.3869,5.3869,5.4251,5.4445,5.4375,5.4911,5.5676,5.6595,5.6742,5.7235,5.803,5.8178,5.8252,5.8252,5.8319,5.8349,5.826,5.8088,5.8042,3.6073,3.6609,3.711,3.6319,3.6748,3.7359,3.7431,3.7719,3.8115,3.8617,3.9301,4.0239,4.1505,4.2336,4.349,4.5508,4.6313,4.7187,4.8626,4.9279,4.967,0.0,0.0,5.053,5.0341,0.0,0.0,0.0,0.0,0.0,5.0285,5.0509,5.0564,5.0397,5.0645,5.0472,4.9825,5.006,4.9941,4.9471,4.9471,4.959,4.9708,4.953,4.9471,4.9411,0.0,4.9046,4.8798,4.8673,4.8483,4.8325,4.8196,4.8429,4.8927,4.9626,4.9193,4.8297,4.8364,4.8034,4.7902,4.8962,4.9655,5.0338,5.1214,5.1902,5.2544,5.3225,5.2417,5.1859,5.3894,5.3905,5.3344,5.3225,5.3247,5.3303,5.3415,5.3525,5.3635,5.3654,5.3531,5.33,5.3069,5.2856,5.2998,5.3905,5.3493,5.3435,5.4449,5.4367,5.4266,5.4556,5.4649,5.4762,5.4894,5.5277,5.5466,5.5486,5.5738,5.642,5.7363,5.7491,5.772,5.8088,5.8133,5.8088,5.795,5.795,5.795,5.7904,5.781,5.781,3.6036,3.6786,3.7646,3.7641,3.7931,3.8401,3.9048,3.9337,3.959,4.0312,4.0745,4.1359,4.2665,4.3457,4.4669,4.7132,4.7582,4.8054,4.934,4.9856,5.0063,4.9925,5.029,5.053,5.032,0.0,0.0,0.0,0.0,0.0,5.0585,5.0619,5.0632,5.0668,5.1163,5.102,5.0103,5.0537,5.0366,4.953,4.9411,4.935,4.9471,4.935,4.9229,4.9107,4.8984,4.8798,4.8483,4.862,4.8458,4.8164,4.8431,4.9094,4.9926,5.0225,4.9922,4.9354,4.9325,4.8827,4.853,4.9925,5.066,5.1256,5.2269,5.3205,5.3857,5.3901,5.3335,5.3117,5.4885,5.4594,5.3859,5.3672,5.366,5.3717,5.3831,5.3887,5.3943,5.4111,5.3934,5.3722,5.3455,5.3329,5.3556,5.462,5.4684,5.4758,5.5297,5.5119,5.5069,5.5383,5.5714,5.6153,5.6467,5.6573,5.6671,5.6862,5.6746,5.6963,5.7726,5.7857,5.7857,5.7763,5.804,5.7993,5.7583,5.7802,5.7717,5.7486,5.7486,5.7486,3.7322,3.732,3.7322,3.9661,3.9661,3.912,3.9193,3.977,4.0311,4.0384,4.1574,4.2696,4.2882,4.5265,4.7407,4.8119,4.8733,4.9412,5.0133,0.0,5.0223,5.0465,5.055,5.0453,0.0,0.0,0.0,0.0,0.0,0.0,5.1234,5.1246,5.1499,5.2046,5.1898,5.1651,5.1303,5.118,5.0405,4.908,4.8894,4.8798,4.8765,4.8673,4.8673,4.8702,4.842,4.8356,4.855,4.8928,4.8795,4.8553,4.9792,5.0725,5.1223,5.0248,5.0446,5.1015,5.0146,4.9951,5.0055,5.0187,5.0459,5.0693,5.046,5.109,5.1979,5.2281,5.3318,5.4419,5.4745,5.4765,5.4748,5.4878,5.4999,5.5024,5.5084,5.5297,5.553,5.553,5.4931,5.4494,5.4641,5.4196,5.3929,5.4208,5.5558,5.6488,5.6237,5.7045,5.719,5.614,5.685,5.7614,5.8272,5.7654,5.7739,5.8898,5.7949,5.7449,5.7583,5.7631,5.7631,5.7583,5.8349,5.8349,5.7583,5.8349,5.8164,5.7239,5.7239,5.7138,3.761,3.8146,3.8721,4.013,4.0637,4.0745,4.0745,4.0962,4.1431,4.2481,4.3129,0.0,0.0,4.7011,4.8425,4.9388,5.0196,5.0966,5.1544,5.1546,5.1547,5.1614,5.1119,0.0,0.0,0.0,0.0,0.0,0.0,0.0,5.1889,5.1804,5.1699,5.1566,5.1915,5.1756,5.0957,5.1362,5.106,5.0085,5.0149,5.0214,5.0244,5.018,5.018,5.0116,4.9986,4.9856,4.9725,4.9959,4.9893,4.9825,5.0961,5.1463,5.1558,5.1862,5.176,5.1353,5.1018,5.062,5.039,5.0855,5.1261,5.1598,5.1798,5.2236,5.287,5.3508,5.4724,5.58,5.496,5.4807,5.4834,5.4992,5.5053,5.5113,5.5113,5.5174,5.5294,5.5294,5.5049,5.4839,5.4933,5.4765,5.4652,5.4591,5.5208,5.6042,5.6928,5.7382,5.7351,5.6621,5.708,5.7693,5.8367,5.8223,5.8417,5.9056,5.8754,5.8553,5.8709,5.8812,5.8812,5.8709,5.9103,5.8797,5.7846,5.8135,5.7831,5.6933,5.6933,5.6933,3.8366,3.9157,3.9986,4.1288,4.1868,4.223,4.2737,4.2627,4.277,4.4147,4.4755,4.557,4.7267,0.0,0.0,0.0,5.1276,5.2005,5.2625,5.2465,5.2286,5.2312,5.1535,0.0,0.0,0.0,0.0,0.0,0.0,0.0,0.0,5.2255,5.2077,5.1894,5.2369,5.2169,5.1396,5.1899,5.1999,5.1731,5.1967,5.173,5.1023,5.1023,5.0957,5.0826,5.0892,5.0693,5.0391,5.0861,5.1162,5.1329,5.1765,5.1864,5.1924,5.2667,5.2394,5.1715,5.1984,5.1752,5.1489,5.2324,5.2697,5.287,5.2794,5.2972,5.3416,5.4703,5.5414,5.5709,5.5081,5.4937,5.5063,5.5154,5.5043,5.493,5.493,5.4992,5.4992,5.493,5.4869,5.4869,5.4869,5.5029,5.5075,5.4741,5.5304,5.6164,5.746,5.7773,5.7842,5.7697,5.7503,5.7841,5.8895,5.8923,5.9028,5.9487,5.9602,5.9614,5.9367,5.9402,5.9402,5.9331,5.9655,5.9402,5.8394,5.8556,5.8268,5.7514,5.7173,5.7209,3.9878,4.031,4.0849,4.3459,4.3498,4.3317,4.4947,4.4693,4.4292,4.4967,4.629,4.7483,4.7997,4.946,0.0,5.1192,5.1776,5.2498,5.3309,5.2579,5.2201,5.2625,5.2033,0.0,0.0,0.0,0.0,0.0,0.0,0.0,0.0,5.266,5.2838,5.3416,5.3247,5.311,5.2903,5.2903,5.3271,5.3975,5.4219,5.3076,5.0693,5.0727,5.066,5.0459,5.066,5.056,5.032,5.1395,5.2404,5.3145,5.1962,5.1991,5.2624,5.2445,5.2263,5.2218,5.3129,5.3434,5.3533,5.4516,5.4642,5.4221,5.2877,5.2572,5.3238,5.5651,5.5077,5.3983,5.4903,5.5407,5.5632,5.5632,5.5208,5.4814,5.4814,5.4904,5.493,5.471,5.462,5.4529,5.4529,5.4826,5.5003,5.4552,5.6098,5.7466,5.7844,5.8393,5.9013,5.9554,5.8229,5.8142,6.0192,5.9655,5.9576,6.0574,6.0696,6.0285,5.9274,5.9202,5.9202,5.9202,6.0012,6.0012,5.9166,5.9809,5.9659,5.9,5.7973,5.8045,4.0021,4.0781,4.1722,4.3643,4.4331,4.4983,4.6488,4.5802,4.5147,4.6398,4.785,4.9077,4.9818,5.0624,0.0,5.1971,5.3047,5.3887,5.3985,5.373,5.3521,5.3672,5.2775,0.0,0.0,0.0,0.0,0.0,0.0,0.0,0.0,5.3245,5.3213,5.3247,5.311,5.2972,5.2903,5.3405,5.3844,5.4219,5.4686,5.4552,5.3984,5.4157,5.4087,5.3948,5.4087,5.4018,5.3666,5.4183,5.4384,5.4515,5.428,5.4205,5.4156,5.4083,5.4156,5.4189,5.4203,5.4343,5.4595,5.4608,5.4309,5.405,5.4516,5.4395,5.4343,5.6125,5.5958,5.5344,5.6371,5.6816,5.6881,5.6366,5.5775,5.5352,5.5352,5.5,5.4557,5.4431,5.4303,5.4411,5.483,5.5275,5.572,5.6335,5.7363,5.8219,5.846,5.8771,5.9115,5.9554,5.9203,5.9294,6.0297,6.0184,6.0176,6.0609,6.0671,6.0519,6.0178,6.0415,6.0415,6.0178,6.0475,6.0249,5.9384,5.9005,5.8414,5.769,5.7384,5.7384,4.0093,4.1214,4.2589,4.4584,4.5631,4.6524,4.7895,4.7535,4.7104,4.794,4.8983,4.9982,5.0616,5.128,0.0,5.2846,5.3682,5.4303,5.4559,5.4231,5.4042,5.4235,0.0,0.0,0.0,0.0,0.0,0.0,0.0,0.0,0.0,5.345,5.3315,5.3315,5.331,5.3408,5.3478,5.4216,5.4791,5.5339,5.5636,5.5972,5.6385,5.5774,5.5434,5.54,5.54,5.5329,5.5113,5.5185,5.5113,5.5113,5.5041,5.4895,5.4675,5.4675,5.4715,5.4822,5.4933,5.5181,5.5436,5.5588,5.5188,5.4689,5.5262,5.5001,5.4812,5.6528,5.6494,5.6153,5.7017,5.7363,5.7432,5.7054,5.626,5.5701,5.6012,5.5495,5.4879,5.4686,5.4926,5.5135,5.5007,5.5757,5.6542,5.6987,5.7773,5.8353,5.8665,5.8771,5.9012,5.9453,5.9453,5.9652,6.0078,6.0078,6.0107,6.0262,6.0043,5.9964,5.9999,6.059,6.0651,6.0149,6.0235,5.9845,5.8945,5.8461,5.7966,5.7565,5.7506,5.7647,4.0273,4.1719,4.3451,4.5992,4.7175,4.8083,4.9222,4.9579,4.9627,4.9412,4.9955,5.0571,5.0857,5.1645,5.2607,5.3659,5.3913,5.4191,5.4887,5.4305,5.4009,5.4425,0.0,0.0,0.0,0.0,0.0,0.0,0.0,0.0,0.0,5.345,5.3348,5.3518,5.3986,5.425,5.446,5.5201,5.598,0.0,5.6867,5.7239,5.7848,5.6135,5.5458,5.5602,5.5353,5.5314,5.5314,5.5168,5.5168,5.5241,5.4874,5.4725,5.4725,5.4725,5.4767,5.4866,5.5487,5.5871,5.6196,5.7014,5.6638,5.5854,5.5455,5.4968,5.495,5.6858,5.6934,5.6636,5.7046,5.7326,5.7499,5.7672,5.6742,5.6012,5.6736,5.6288,5.5671,5.5441,5.5924,5.6131,5.5179,5.6303,5.7259,5.7015,5.7598,5.8148,5.8632,5.8702,5.8875,5.9251,5.9319,5.9386,5.9621,5.9621,5.9652,5.9814,5.9278,5.8955,5.8955,5.9831,5.9982,5.9239,5.9239,5.8885,5.8273,5.8023,5.8023,5.8213,5.8033,5.8421,4.1629,4.2785,4.416,4.65,4.8569,5.0187,5.1008,5.1123,5.088,5.009,5.0996,5.1971,5.2041,5.3243,5.419,5.4186,5.4723,5.5059,5.4834,5.4544,5.4322,5.4235,0.0,0.0,0.0,0.0,0.0,0.0,0.0,0.0,5.3717,5.3957,5.4261,5.4701,5.5109,5.5446,5.5654,5.6331,5.6806,0.0,5.7229,5.7566,5.7881,5.7471,5.7263,5.7116,5.6895,5.6895,5.7043,5.7043,5.6895,5.6821,5.6746,5.6596,5.6445,5.6445,5.6596,5.6671,5.6568,5.6678,5.7014,5.7072,5.6638,5.6211,5.6902,5.6084,5.5335,5.7263,5.7673,5.764,5.7679,5.7861,5.8109,5.8251,5.781,5.7394,5.7397,5.6948,5.6294,5.545,5.5621,5.6031,5.6611,5.685,5.7225,5.822,5.8565,5.8737,5.8771,5.8875,5.9012,5.9251,5.9319,5.9386,5.9621,5.9621,5.9621,5.9652,5.9513,5.9195,5.8537,5.8554,5.8456,5.8158,5.8158,5.8088,5.7912,5.7132,5.707,5.7693,5.7666,5.8086,4.1988,4.3391,4.5042,4.8074,4.9984,5.1159,5.1209,5.1546,5.167,5.1034,5.1598,5.2408,5.2944,5.401,5.4804,5.4913,5.5209,5.5362,5.511,5.4608,5.4175,5.4011,0.0,0.0,0.0,0.0,0.0,0.0,0.0,5.4057,5.5005,5.4737,5.4907,5.5754,5.6097,5.6331,5.6505,5.7182,5.7378,5.734,5.764,5.7808,5.7881,5.7808,5.7514,5.7139,5.7289,5.7289,5.7214,5.7289,5.7289,5.7139,5.7139,5.7139,5.7139,5.7139,5.7214,5.7289,5.6987,5.7063,5.7289,5.7214,5.7022,5.7036,5.8174,5.7036,5.5903,5.8275,5.8477,5.7924,5.8017,5.8201,5.8345,5.8629,5.8152,5.7707,5.8221,5.7705,5.7053,5.6644,5.6919,5.7329,5.7398,5.7499,5.7945,5.8737,5.8875,5.8806,5.8736,5.8806,5.8944,5.9047,5.8978,5.9047,5.9319,5.9251,5.9286,5.9453,5.914,5.8724,5.8437,5.7576,5.7105,5.7017,5.7017,5.6807,5.6423,5.6326,5.6326,5.6423,5.7576,5.8199,4.2163,4.4205,4.6293,4.9626,5.0936,5.1386,5.1086,5.1614,5.2122,5.2179,5.2306,5.2726,5.3833,5.4583,5.5161,5.5766,5.5775,5.561,5.5341,5.4661,5.3986,5.3651,0.0,0.0,0.0,0.0,0.0,0.0,0.0,5.4769,5.6436,5.5689,5.5689,5.6677,5.6985,5.7182,5.7358,5.7857,5.8157,5.8084,5.822,5.8254,5.818,5.8032,5.7524,5.6834,5.7139,5.7139,5.6834,5.6911,5.6987,5.7063,5.6987,5.7139,5.7289,5.7289,5.7289,5.7214,5.7196,5.7339,5.749,5.7624,5.7808,5.8201,5.9201,5.8126,5.7055,5.9498,5.9212,5.8287,5.8468,5.8439,5.8409,5.8838,5.8152,5.767,5.8668,5.8325,5.781,5.798,5.8531,5.8737,5.7947,5.822,5.8701,5.8944,5.8806,5.8736,5.8736,5.8667,5.8667,5.8701,5.8631,5.8631,5.8875,5.884,5.884,5.9183,5.8596,5.8248,5.8207,5.6992,5.6195,5.605,5.6036,5.5653,5.4992,5.5618,5.5723,5.5593,5.7548,5.831,4.3451,4.6234,4.8622,4.9862,5.068,5.1317,5.1899,5.1926,5.2214,5.3521,5.3801,5.4046,5.486,5.5663,5.6307,5.672,5.6794,5.6357,5.5309,5.4737,5.4262,5.3653,0.0,0.0,0.0,0.0,0.0,0.0,5.5654,5.5962,5.6505,5.685,5.7261,5.7704,5.8083,5.8249,5.8353,5.8889,5.901,5.8863,5.9505,5.9734,5.9582,5.9353,5.8605,5.7439,5.7364,5.7289,5.7214,5.7063,5.7139,5.7214,5.7063,5.7139,5.7289,5.7289,5.7214,5.7163,5.772,5.8107,5.8361,5.8997,5.943,5.9844,5.9945,6.008,6.0224,6.034,6.0088,5.9742,5.9682,5.9016,5.8496,5.8526,5.8146,5.7899,5.8348,5.8492,5.8633,5.8494,5.8737,5.8875,5.8597,5.8736,5.8875,5.884,5.8771,5.8771,5.8771,5.8631,5.8561,5.8561,5.849,5.849,5.8561,5.8561,5.8561,5.8631,5.8528,5.8186,5.7467,5.7261,5.6609,5.5506,5.5327,5.5096,5.4992,5.5008,5.5605,5.6784,5.7289,5.8154,4.5315,4.7484,4.9058,5.0241,5.0646,5.0994,5.1563,5.2009,5.2718,5.4191,5.473,5.505,5.5521,5.6501,5.7274,5.7322,5.7258,5.702,5.6338,5.5619,5.5108,5.4769,5.4937,0.0,0.0,0.0,0.0,0.0,5.6987,5.7501,5.8497,5.8806,5.9184,5.9596,5.9727,5.9682,5.9575,5.9695,5.9512,5.9032,5.9336,5.943,5.9203,5.9564,5.9242,5.8451,5.8297,5.8219,5.8219,5.8219,5.8297,5.8374,5.8374,5.8217,5.7959,5.8394,5.8107,5.772,5.8452,5.8875,5.9098,5.9399,6.0035,6.0757,6.0757,6.1274,6.168,6.1588,6.0994,6.0385,5.9939,5.9078,5.8428,5.845,5.8385,5.8314,5.8655,5.8629,5.853,5.8667,5.884,5.8978,5.877,5.8805,5.884,5.8805,5.8701,5.8561,5.849,5.8419,5.8348,5.8348,5.8277,5.8277,5.849,5.8419,5.8419,5.849,5.849,5.8424,5.8152,5.7637,5.6885,5.6059,5.5464,5.507,5.4745,5.5519,5.6102,5.6408,5.7756,5.8616,4.6301,4.7834,4.8837,5.0099,5.0585,5.0906,5.1535,5.2275,5.3281,5.4683,5.5455,5.5912,5.6215,5.7049,5.774,5.781,5.7706,5.7462,5.7117,5.6566,5.6122,5.589,5.6471,0.0,0.0,0.0,0.0,0.0,5.8634,5.9185,6.0427,6.0461,6.0666,6.1074,6.0784,6.0637,6.0489,6.0265,6.0013,5.9877,5.9674,5.9524,5.9573,6.0068,6.0069,5.9751,5.9226,5.898,5.898,5.9059,5.9139,5.9218,5.9297,5.9009,5.8686,5.9254,5.8931,5.8407,5.9218,5.9643,5.9834,6.0002,6.0785,6.1569,6.1569,6.1941,6.2381,6.2459,6.1873,6.1018,6.0333,5.9208,5.818,5.8303,5.8382,5.8453,5.8795,5.849,5.8323,5.8667,5.8806,5.8771,5.8701,5.8701,5.8701,5.8631,5.849,5.8348,5.8205,5.8171,5.8099,5.8099,5.7954,5.8027,5.8348,5.8171,5.8205,5.8348,5.8348,5.8419,5.8561,5.7839,5.7123,5.6405,5.5823,5.5201,5.4431,5.5839,5.6387,5.6171,5.7933,5.8692,4.5705,4.7091,4.8363,4.9199,5.032,5.1512,5.2427,5.3013,5.377,5.5253,5.6053,5.6575,5.7124,5.726,5.7568,5.8319,5.828,5.7899,5.7185,5.7374,5.7167,5.6269,5.7905,0.0,0.0,0.0,0.0,0.0,6.0758,6.072,6.1254,6.1254,6.1254,6.1289,6.0857,6.0711,6.0637,6.034,6.0791,6.2212,6.1501,6.1457,6.1828,6.1656,6.1528,6.1217,5.9818,5.9218,5.9139,5.898,5.9059,5.9218,5.898,5.9026,5.9152,5.9185,5.9026,5.9013,5.9937,6.0411,6.0671,6.1374,6.1963,6.2347,6.2347,6.2347,6.2459,6.2615,6.2503,6.2154,6.1408,5.9607,5.7876,5.7954,5.7929,5.8035,5.8419,5.818,5.8044,5.8422,5.8422,5.8283,5.8243,5.8419,5.849,5.8277,5.8171,5.8171,5.8171,5.8027,5.7881,5.7881,5.7881,5.7881,5.7954,5.7881,5.7881,5.7954,5.7954,5.7954,5.7954,5.792,5.7315,5.6029,5.6133,5.5516,5.4239,5.5159,5.6046,5.6736,5.7036,5.7898,4.566,4.7004,4.8274,4.8965,5.0263,5.1488,5.2226,5.2804,5.3754,5.5747,5.6199,5.6508,5.77,5.7976,5.8078,5.828,5.8348,5.8345,5.8332,5.8676,5.8851,5.8889,5.9788,0.0,0.0,0.0,0.0,0.0,0.0,6.2013,6.2228,6.2568,6.2626,6.2404,6.2255,6.2029,6.18,6.1172,6.1163,6.1704,6.1244,6.1054,6.1086,6.1394,6.1417,6.1136,6.0638,6.0406,6.0406,6.0455,6.0455,6.0488,6.0617,6.0317,5.9823,6.0531,6.0317,5.9776,6.0832,6.1227,6.1341,6.177,6.211,6.2381,6.2381,6.2381,6.2381,6.2459,6.212,6.1467,6.074,5.9607,5.8511,5.8128,5.7963,5.8001,5.8243,5.8212,5.8214,5.8314,5.8385,5.8385,5.8243,5.8277,5.8277,5.8171,5.8099,5.8027,5.8027,5.7954,5.7881,5.7881,5.7808,5.7735,5.7881,5.7808,5.7735,5.7881,5.7881,5.7954,5.8099,5.7954,5.7277,5.5995,5.6064,5.5416,5.4239,5.5641,5.6529,5.6805,5.7838,5.8563,4.5476,4.6794,4.8078,4.8522,4.9941,5.1405,5.1985,5.2826,5.3969,5.596,5.6337,5.6673,5.7823,5.8171,5.8243,5.8099,5.8337,5.8676,5.9078,5.9808,6.0364,6.0677,6.1375,6.1872,0.0,0.0,0.0,0.0,0.0,0.0,6.3167,6.3581,6.36,6.3227,6.3076,6.2847,6.2459,6.1637,6.1322,6.167,6.1054,6.0897,6.0973,6.1232,6.1334,6.1119,6.1119,6.1119,6.1119,6.1252,6.1252,6.1119,6.1465,6.1117,6.0506,6.138,6.1165,6.0539,6.1298,6.1628,6.1709,6.187,6.211,6.2381,6.2381,6.2381,6.2381,6.2381,6.1873,6.1231,6.0926,5.9937,5.8856,5.823,5.7959,5.7853,5.7954,5.8103,5.8106,5.8099,5.8205,5.8277,5.8099,5.8027,5.7954,5.7954,5.7808,5.7735,5.7808,5.7735,5.7735,5.7881,5.7735,5.7662,5.7881,5.7808,5.7735,5.7881,5.7881,5.7954,5.8099,5.7954,5.7277,5.5926,5.6233,5.5621,5.4045,5.585,5.6739,5.684,5.8081,5.8633,0.0,0.0,0.0,4.77,4.9424,5.1262,5.1863,5.3141,5.4521,5.5758,5.6573,5.7145,5.7527,5.7735,5.7881,5.7881,5.8376,5.8849,5.9327,6.0693,6.1524,6.139,6.2668,6.3435,0.0,0.0,0.0,0.0,6.4037,6.4037,6.418,6.418,6.3965,6.36,6.3227,6.2923,6.2693,6.1481,6.1402,6.2381,6.1211,6.1006,6.1709,6.1465,6.1252,6.1119,6.1119,6.1119,6.1119,6.1119,6.1119,6.1119,6.1334,6.1252,6.1202,6.1547,6.1499,6.1119,6.1334,6.1547,6.1709,6.1709,6.203,6.2381,6.2381,6.2381,6.2381,6.2381,6.1873,6.1467,6.2076,6.0593,5.8791,5.8045,5.7735,5.7588,5.7588,5.778,5.7857,5.7848,5.7881,5.7881,5.7881,5.7735,5.7588,5.7588,5.7439,5.7364,5.7588,5.7439,5.7439,5.7808,5.7735,5.7662,5.7881,5.7881,5.7881,5.7881,5.7881,5.7881,5.7881,5.7881,5.7205,5.5784,5.6673,5.5995,5.3785,5.5585,5.6572,5.6805,5.7564,5.7943,4.449,0.0,0.0,0.0,0.0,0.0,5.1863,5.2603,5.3741,5.5656,5.6026,5.6393,5.7426,5.7662,5.7662,5.7514,5.849,5.957,6.0075,6.1366,6.238,6.2724,6.3358,6.3823,0.0,0.0,0.0,0.0,6.4322,6.418,6.4358,6.3965,6.36,6.3227,6.2923,6.2615,6.2189,6.1828,6.1749,6.187,6.1428,6.1265,6.1465,6.1252,6.1169,6.1119,6.1119,6.1119,6.1119,6.1119,6.1119,6.1119,6.1465,6.1417,6.1202,6.1709,6.1547,6.1202,6.1465,6.1628,6.1709,6.1837,6.211,6.2381,6.2381,6.2381,6.2381,6.2381,6.2245,6.1694,6.0112,5.8763,5.785,5.7722,5.7628,5.7628,5.7808,5.7775,5.7628,5.7514,5.7588,5.7662,5.7514,5.7439,5.7364,5.7364,5.7364,5.7289,5.7364,5.7364,5.7364,5.7439,5.7439,5.7439,5.7662,5.7662,5.7735,5.7881,5.7881,5.7881,5.7881,5.7881,5.7442,5.6528,5.6769,5.6399,5.5383,5.5962,5.6303,5.6405,5.7706,5.8392,0.0,0.0,0.0,0.0,0.0,0.0,5.1172,5.2277,5.3681,5.5518,5.6261,5.6795,5.7345,5.7514,5.7514,5.7364,5.849,5.9711,6.0421,6.1576,6.2626,6.3348,6.36,6.382,0.0,6.4109,6.4322,6.4568,6.4428,6.4428,6.4568,6.4074,6.3747,6.3526,6.3076,6.2693,6.2268,6.203,6.179,6.1709,6.1417,6.1334,6.1383,6.1169,6.1119,6.1119,6.1119,6.1119,6.1119,6.1119,6.1119,6.1119,6.1547,6.1499,6.1169,6.1756,6.1709,6.1285,6.1963,6.2025,6.1904,6.2367,6.2459,6.2381,6.2381,6.2381,6.2381,6.2381,6.2381,6.1795,5.9218,5.8629,5.8528,5.7749,5.7823,5.7924,5.7803,5.7735,5.7662,5.7439,5.7439,5.7439,5.7289,5.7214,5.7139,5.7139,5.7139,5.7063,5.7139,5.7139,5.7139,5.7289,5.7214,5.7289,5.7439,5.7588,5.7662,5.7735,5.7881,5.7881,5.7881,5.7881,5.7543,5.6799,5.7031,5.666,5.5646,5.6267,5.6781,5.7158,5.7431,5.7979,0.0,0.0,0.0,0.0,0.0,0.0,5.0277,5.1983,5.382,5.5175,5.663,5.7499,5.713,5.7271,5.7379,5.7156,5.8214,5.9327,6.0251,6.1434,6.2518,6.3393,6.3604,6.3747,6.3892,6.4109,6.4251,6.4393,6.4568,6.4637,6.4672,6.4322,6.4109,6.4109,6.3377,6.2923,6.2649,6.203,6.1709,6.1628,6.1334,6.1252,6.1383,6.1169,6.1119,6.1119,6.1185,6.1218,6.1218,6.1318,6.1251,6.1119,6.1499,6.145,6.1302,6.181,6.181,6.1616,6.2498,6.2475,6.2098,6.2805,6.2763,6.2381,6.2381,6.2381,6.2381,6.2381,6.2268,6.1717,5.9208,5.9443,5.99,5.816,5.816,5.8395,5.7796,5.7735,5.7808,5.7588,5.7439,5.7289,5.7214,5.7063,5.6987,5.6987,5.6834,5.6757,5.6911,5.6834,5.6834,5.7214,5.7063,5.7063,5.7289,5.7439,5.7588,5.7588,5.7735,5.7808,5.7808,5.7808,5.7504,5.6862,5.7325,5.6875,5.5347,5.6356,5.7253,5.801,5.6747,5.6884,4.4236,4.5001,4.5597,4.6041,0.0,0.0,5.0141,5.1167,5.2292,5.3619,5.4968,5.5766,5.5548,5.6051,5.6419,5.6196,5.6814,5.7895,5.9545,6.1311,6.253,6.2668,6.3511,6.4037,6.3927,6.4145,6.4393,6.4393,6.4463,6.4428,6.4322,6.4037,6.382,6.3452,6.3152,6.2847,6.2459,6.211,6.1756,6.1465,6.1383,6.1252,6.1202,6.1119,6.1119,6.1152,6.1715,6.198,6.2013,6.261,6.2146,6.1086,6.1383,6.1667,6.2031,6.2283,6.2366,6.2316,6.2532,6.2312,6.203,6.2165,6.2324,6.2381,6.2381,6.2381,6.2381,6.2076,6.1756,6.1246,5.9785,5.9385,5.9243,5.8428,5.7976,5.783,5.7842,5.7588,5.7439,5.7364,5.7364,5.7214,5.6834,5.6757,5.6757,5.6757,5.6757,5.668,5.6757,5.668,5.6757,5.6834,5.6911,5.6987,5.7063,5.7214,5.7364,5.7364,5.7364,5.7439,5.7439,5.7439,5.7372,5.7238,5.7297,5.723,5.6854,5.5962,5.5366,5.5139,5.5443,5.5818,0.0,4.4742,4.5439,4.5043,0.0,0.0,0.0,5.0595,5.1787,5.3179,5.4226,5.4791,5.472,5.5252,5.5649,5.5682,5.601,5.6636,5.7666,5.9764,6.139,6.1841,6.2781,6.3338,6.3303,6.3937,6.4358,6.4393,6.4393,6.4358,6.418,6.3999,6.3854,6.3634,6.3302,6.2923,6.2537,6.2268,6.1951,6.1383,6.1383,6.1501,6.1649,6.1649,6.1848,6.2212,6.2577,6.2709,6.2742,6.3107,6.2842,6.2179,6.2432,6.2547,6.2794,6.3133,6.3183,6.325,6.3617,6.35,6.337,6.366,6.3606,6.3429,6.2978,6.2447,6.1951,6.1756,6.1614,6.1317,5.996,6.0023,6.0018,5.8819,5.8819,5.8983,5.8799,5.8547,5.8318,5.8163,5.7863,5.7496,5.6823,5.668,5.668,5.668,5.668,5.668,5.668,5.668,5.668,5.668,5.6757,5.7,5.7365,5.7296,5.7306,5.7673,5.7415,5.7289,5.7289,5.7289,5.7214,5.6987,5.6911,5.6668,5.6269,5.5539,5.5229,5.5223,5.4854,5.503,0.0,0.0,0.0,0.0,0.0,4.8829,0.0,0.0,0.0,5.2301,5.3146,5.365,5.3581,5.4045,5.4649,5.5164,5.541,5.5619,5.5792,5.7774,0.0,6.0701,6.1703,0.0,6.2401,6.3203,6.3868,6.4113,6.4113,6.4113,6.4109,6.3965,6.382,6.382,6.3452,6.3076,6.2693,6.2459,6.2131,6.1583,6.1583,6.19,6.2378,6.2378,6.2709,6.3272,6.3438,6.3471,6.3504,6.3637,6.367,6.367,6.3544,6.3544,6.3557,6.3951,6.4036,6.4136,6.4823,6.4808,6.4551,6.4992,6.4739,6.4079,6.3256,6.2374,6.1628,6.1465,6.155,6.1434,6.0192,6.0523,6.0802,5.9311,5.9685,6.019,5.9588,5.9376,5.9218,5.8899,5.8403,5.7852,5.7044,5.6912,5.6846,5.6713,5.6812,5.6846,5.6713,5.6812,5.6846,5.6713,5.6812,5.7077,5.7541,5.7166,5.7177,5.7775,5.7396,5.7214,5.7214,5.7139,5.6987,5.6603,5.6447,5.6105,5.5479,5.5589,5.5653,5.5836,5.4706,5.4615,0.0,0.0,0.0,0.0,4.621,0.0,0.0,0.0,4.926,4.9304,0.0,5.1261,5.1162,0.0,0.0,0.0,0.0,0.0,5.5143,5.603,5.7192,5.8874,6.0494,0.0,0.0,6.1883,6.2405,6.3066,6.3136,6.3379,6.3892,6.3747,6.3673,6.3673,6.3227,6.2923,6.2727,6.2268,6.2173,6.2382,6.2382,6.2698,6.314,6.314,6.3206,6.3305,6.3968,6.4266,6.4299,6.4929,6.516,6.5028,6.3769,6.3756,6.4353,6.4581,6.4581,6.47,6.4905,6.4555,6.3953,6.4053,6.3584,6.2896,6.232,6.1776,6.1465,6.1383,6.1252,6.1119,6.102,6.0539,6.017,6.0104,5.9885,5.9598,5.9331,5.8899,5.8624,5.8543,5.8347,5.8051,5.7489,5.7595,5.7442,5.6779,5.7243,5.7442,5.6779,5.7243,5.7409,5.6746,5.7276,5.7442,5.6846,5.6746,5.679,5.689,5.6823,5.6757,5.6757,5.6603,5.6402,5.6165,5.6323,5.6336,5.627,5.647,5.5885,5.47,5.4901,5.494,0.0,0.0,0.0,0.0,0.0,0.0,4.8308,0.0,4.813,0.0,0.0,0.0,0.0,0.0,0.0,0.0,5.2638,0.0,0.0,5.5041,5.5996,5.7227,0.0,0.0,0.0,0.0,0.0,0.0,6.2126,6.2402,6.291,6.2871,6.3078,6.3565,6.3302,6.3205,6.3305,6.2956,6.2959,6.3149,6.3149,6.343,6.3868,6.3902,6.4133,6.4531,6.4862,6.4995,6.4995,6.5293,6.5425,6.5359,6.4763,6.4697,6.4995,6.4962,6.505,6.528,6.4727,6.4567,6.4488,6.4087,6.3367,6.2615,6.2364,6.1832,6.1252,6.1252,6.1035,6.0849,6.1051,6.0754,6.0406,6.0687,6.0473,6.0142,5.9845,5.9595,5.9376,5.9239,5.888,5.8489,5.8027,5.8134,5.8096,5.7606,5.7714,5.7595,5.7028,5.7371,5.7516,5.7219,5.7846,5.8144,5.8005,5.7972,5.7972,5.7972,5.7972,5.7773,5.7342,5.7186,5.7028,5.6948,5.6441,5.6521,5.7028,5.6678,5.6305,5.5752,5.5505,5.5148,4.3489,0.0,0.0,0.0,0.0,0.0,0.0,0.0,0.0,0.0,0.0,0.0,0.0,0.0,0.0,0.0,0.0,5.1082,0.0,5.3275,5.4359,0.0,0.0,0.0,0.0,0.0,0.0,0.0,0.0,6.1223,6.1865,6.2066,6.241,6.3033,6.322,6.3392,6.3429,6.3472,6.3567,6.3796,6.3829,6.4108,6.4597,6.463,6.4929,6.5425,6.5425,6.5425,6.5425,6.5425,6.5425,6.5425,6.5336,6.5336,6.5425,6.5336,6.5425,6.5592,6.474,6.4461,6.4452,6.3802,6.3033,6.2399,6.2199,6.16,6.1002,6.0919,6.0699,6.0594,6.083,6.0712,6.0541,6.0791,6.0476,6.0075,6.0022,5.9794,5.9652,5.954,5.9176,5.882,5.8526,5.8665,5.8643,5.8115,5.7953,5.7752,5.7348,5.7346,5.7475,5.7672,5.8165,5.8576,5.8738,5.8738,5.8738,5.8819,5.8738,5.8507,5.7945,5.7752,5.7705,5.7624,5.7099,5.7099,5.7785,5.7338,5.7153,5.7276,5.6425,5.5771,0.0,0.0,0.0,4.7261,0.0,0.0,0.0,0.0,4.8823,0.0,0.0,0.0,0.0,0.0,0.0,0.0,0.0,0.0,0.0,0.0,0.0,0.0,0.0,0.0,0.0,0.0,0.0,0.0,0.0,0.0,6.0968,6.1792,6.2056,6.1613,6.273,6.3188,6.2814,6.3384,6.3829,6.4266,6.4332,6.4697,6.5392,6.5392,6.5392,6.5425,6.5425,6.5425,6.5425,6.5425,6.5425,6.5425,6.5189,6.5279,6.5425,6.5692,6.5603,6.5293,6.486,6.4128,6.3292,6.2698,6.2348,6.2047,6.1351,6.0919,6.0633,6.0463,6.0378,6.041,6.041,6.0239,6.0152,6.0033,5.937,5.892,5.9266,5.9152,5.9004,5.9004,5.8972,5.903,5.9209,5.9296,5.8867,5.7644,5.7934,5.81,5.7883,5.7462,5.7429,5.815,5.8215,5.8215,5.8248,5.8248,5.8331,5.8576,5.8331,5.8215,5.8183,5.8183,5.81,5.7851,5.8265,5.851,5.8543,5.8753,5.8833,5.88,5.7576,5.6877,0.0,0.0,4.8164,4.8527,0.0,0.0,0.0,0.0,0.0,0.0,0.0,0.0,0.0,0.0,0.0,0.0,0.0,0.0,0.0,0.0,0.0,0.0,0.0,0.0,0.0,0.0,0.0,0.0,5.7736,0.0,0.0,6.0583,6.1434,6.1947,6.2445,6.2797,6.2978,6.3384,6.3895,6.4365,6.4829,6.5194,6.5425,6.5425,6.5425,6.5425,6.5425,6.5425,6.5425,6.5425,6.5425,6.5425,6.5336,6.5336,6.5425,6.5156,6.5246,6.5227,6.4121,6.3259,6.2411,6.1598,6.1249,6.1132,6.0732,6.0548,6.0463,6.0378,6.0292,6.0206,6.012,5.9946,5.9772,5.9531,5.9323,5.8992,5.86,5.8696,5.8701,5.8518,5.861,5.8701,5.861,5.887,5.8968,5.8742,5.8808,5.8769,5.8206,5.8268,5.8456,5.8684,5.9141,5.9291,5.8969,5.8936,5.9133,5.9507,5.9572,5.946,5.8936,5.8936,5.8936,5.8852,5.8643,5.8807,5.9268,5.9051,5.8899,5.8899,5.8449,5.7951,4.8166,4.8958,0.0,4.9788,5.0575,0.0,4.9447,0.0,0.0,0.0,0.0,0.0,0.0,0.0,0.0,0.0,0.0,0.0,0.0,4.9846,0.0,0.0,0.0,0.0,0.0,5.4598,5.4834,5.5468,5.6464,0.0,0.0,0.0,6.095,6.1388,6.2188,6.267,6.2863,6.3566,6.4075,6.4399,6.5094,6.5425,6.5425,6.5425,6.5425,6.5425,6.569,6.5823,6.5823,6.6088,6.6187,6.6187,6.6187,6.6187,6.6064,6.5231,6.4992,6.4895,6.3703,6.2775,6.1877,6.1132,6.0783,6.0548,6.041,6.0325,6.0292,6.0152,6.0066,5.9979,5.9946,5.9716,5.9484,5.9209,5.903,5.876,5.8177,5.8332,5.8427,5.8119,5.8211,5.8335,5.8243,5.8518,5.8792,5.8882,5.8894,5.8713,5.8446,5.841,5.8572,5.9026,5.9372,5.9491,5.9467,5.9435,5.963,6.0001,6.012,6.001,5.9638,5.9605,5.9605,5.9605,5.9315,5.9481,5.9993,5.9994,5.9845,5.9694,5.9762,5.9498]},{"header":{"parameterUnit":"m.s-1","parameterCategory":1,"la1":30.6,"la2":29.2853,"lo1":-89.7004,"lo2":-87.6739,"dy":0.0162,"dx":0.0183,"nx":112,"ny":82,"refTime":"2025-01-15T06:00:00:Z","depth":0,"parameterNumber":3,"parameterNumberName":"V-component_of_WINDS"},"data":[0.0,0.0,0.0,0.0,0.0,0.0,0.0,0.0,0.0,0.0,0.0,0.0,0.0,0.0,0.0,0.0,0.0,0.0,0.0,0.0,0.0,0.0,0.0,0.0,0.0,0.0,0.0,0.0,0.0,0.0,0.0,0.0,0.0,0.0,0.0,0.0,0.0,0.0,0.0,0.0,0.0,0.0,0.0,0.0,0.0,0.0,0.0,0.0,0.0,0.0,0.0,0.0,0.0,0.0,0.0,0.0,0.0,0.0,0.0,0.0,0.0,0.0,0.0,0.0,0.0,0.0,0.0,0.0,0.0,0.0,0.0,0.0,0.0,0.0,0.0,0.0,0.0,0.0,0.0,0.0,0.0,0.0,0.0,0.0,0.0,0.0,0.0,0.0,0.0,0.0,-0.9437,-0.8079,-0.5075,-0.243,-0.0548,-0.047,-0.0561,-0.0606,0.0,0.0,0.0,0.0,0.0,0.0,0.0,0.0,0.0,0.0,0.0,0.0,0.0,0.0,0.0,0.0,0.0,0.0,0.0,0.0,0.0,0.0,0.0,0.0,0.0,0.0,0.0,0.0,0.0,0.0,0.0,0.0,0.0,0.0,0.0,0.0,0.0,0.0,0.0,0.0,0.0,0.0,0.0,0.0,0.0,0.0,0.0,0.0,0.0,0.0,0.0,0.0,0.0,0.0,0.0,0.0,0.0,0.0,0.0,0.0,0.0,0.0,0.0,0.0,0.0,0.0,0.0,0.0,0.0,0.0,0.0,0.0,0.0,0.0,0.0,0.0,0.0,0.0,0.0,0.0,0.0,0.0,0.0,0.0,0.0,0.0,0.0,0.0,0.0,0.0,0.0,0.0,0.0,0.0,0.0,0.0,0.0,0.0,0.0,0.0,0.0,0.0,0.0,0.0,-0.7621,-0.6826,-0.4295,-0.2853,-0.3383,-0.1491,-0.1053,-0.2865,0.0,0.0,0.0,0.0,0.0,0.0,0.0,0.0,0.0,0.0,0.0,0.0,0.0,0.0,0.0,0.0,0.0,0.0,0.0,0.0,0.0,0.0,0.0,0.0,0.0,0.0,0.0,0.0,0.0,0.0,0.0,0.0,0.0,0.0,0.0,0.0,0.0,0.0,0.0,0.0,0.0,0.0,0.0,0.0,0.0,0.0,0.0,0.0,0.0,0.0,0.0,0.0,0.0,0.0,0.0,0.0,0.0,0.0,0.0,0.0,0.0,0.0,0.0,0.0,0.0,0.0,0.0,0.0,0.0,0.0,0.0,0.0,0.0,0.0,0.0,0.0,0.0,0.0,0.0,0.0,0.0,0.0,0.0,0.0,0.0,0.0,0.0,0.0,0.0,0.0,0.0,0.0,0.0,0.0,0.0,0.0,0.0,0.0,0.0,0.0,0.0,0.0,0.0,-0.4841,-0.3483,-0.1304,0.0589,0.1903,0.2427,0.329,0.3046,0.1288,-0.0086,0.0,0.0,0.0,0.0,0.0,0.0,0.0,0.0,0.0,0.0,0.0,0.0,0.0,0.0,0.0,0.0,0.0,0.0,0.0,0.0,0.0,0.0,0.0,0.0,0.0,0.0,0.0,0.0,0.0,0.0,0.0,0.0,0.0,0.0,0.0,0.0,0.0,0.0,0.0,0.0,0.0,0.0,0.0,0.0,0.0,0.0,0.0,0.0,0.0,0.0,0.0,0.0,0.0,0.0,0.0,0.0,0.0,0.0,0.0,0.0,0.0,0.0,0.0,0.0,0.0,0.0,0.0,0.0,0.0,0.0,0.0,0.0,0.0,0.0,0.0,0.0,0.0,0.0,0.0,0.0,0.0,0.0,0.0,0.0,0.0,0.0,0.0,0.0,0.0,0.0,0.0,0.0,0.0,0.0,0.0,0.0,0.0,0.0,0.0,0.0,0.0,0.0,-0.2109,-0.0176,0.2592,0.376,0.5,0.6551,0.6411,0.5793,0.4767,0.2836,0.0,0.0,0.0,0.0,0.0,0.0,0.0,0.0,0.0,0.0,0.0,0.0,0.0,0.0,0.0,0.0,0.0,0.0,0.0,0.0,0.0,0.0,0.0,0.0,0.0,0.0,0.0,0.0,0.0,0.0,0.0,0.0,0.0,0.0,0.0,0.0,0.0,0.0,0.0,0.0,0.0,0.0,0.0,0.0,0.0,0.0,0.0,0.0,0.0,0.0,0.0,0.0,0.0,0.0,0.0,0.0,0.0,0.0,0.0,0.0,0.0,0.0,0.0,0.0,0.0,0.0,0.0,0.0,0.0,0.0,0.0,0.0,0.0,0.0,0.0,0.0,0.0,0.0,0.0,0.0,0.0,0.0,0.0,0.0,0.0,0.0,0.0,0.0,0.0,0.0,0.0,0.0,0.0,0.0,0.0,0.0,0.0,0.0,0.0,0.0,0.0,0.0,-0.0766,0.0144,0.1013,0.1588,0.2167,0.2767,0.31,0.3397,0.3585,0.3946,0.0,0.0,0.0,0.0,0.0,0.0,0.0,0.0,0.0,0.0,0.0,0.0,0.0,0.0,0.0,0.0,0.0,0.0,0.0,0.0,0.0,0.0,0.0,0.0,0.0,0.0,0.0,0.0,0.0,0.0,0.0,0.0,0.0,0.0,0.0,0.0,0.0,0.0,0.0,0.0,0.0,0.0,0.0,0.0,0.0,0.0,0.0,0.0,0.0,0.0,0.0,0.0,0.0,0.0,0.0,0.0,0.0,0.0,0.0,0.0,0.0,0.0,0.0,0.0,0.0,0.0,0.0,0.0,0.0,0.0,0.0,0.0,0.0,0.0,0.0,0.0,0.0,0.0,0.0,0.0,0.0,0.0,0.0,0.0,0.0,0.0,0.0,0.0,0.0,0.0,0.0,0.0,0.0,0.0,0.0,0.0,0.0,0.0,0.0,0.0,0.0,0.0,0.282,0.4059,0.0,0.5738,0.6129,0.6256,0.6509,0.6533,0.6259,0.0,0.0,0.0,0.0,0.0,0.0,0.0,0.0,0.0,0.0,0.0,0.0,0.0,0.0,0.0,0.0,0.0,0.0,0.0,0.0,0.0,0.0,0.0,0.0,0.0,0.0,0.0,0.0,0.0,0.0,0.0,0.0,0.0,0.0,0.0,0.0,0.0,0.0,0.0,0.0,0.0,0.0,0.0,0.0,0.0,0.0,0.0,0.0,0.0,0.0,0.0,0.0,0.0,0.0,0.0,0.0,0.0,0.0,0.0,0.0,0.0,0.0,0.0,0.0,0.0,0.0,0.0,0.0,0.0,0.0,0.0,0.0,0.0,0.0,0.0,0.0,0.0,0.0,0.0,0.0,0.0,0.0,0.0,0.0,0.0,0.0,0.0,0.0,0.0,0.0,0.0,0.0,0.0,0.0,0.0,0.0,0.0,0.0,0.0,0.0,0.0,0.0,0.3862,0.5344,0.669,0.0,0.8274,0.8532,0.8532,0.8676,0.8537,0.8098,0.0,0.0,0.0,0.0,0.0,0.0,0.0,0.0,0.0,0.0,0.0,0.0,0.0,0.0,0.0,0.0,0.0,0.0,0.0,0.0,0.0,0.0,0.0,0.0,0.0,0.0,0.0,0.0,0.0,0.0,0.0,0.0,0.0,0.0,0.0,0.0,0.0,0.0,0.0,0.0,0.0,0.0,0.0,0.0,0.0,0.0,0.0,0.0,0.0,0.0,0.0,0.0,0.0,0.0,0.0,0.0,0.0,0.0,0.0,0.0,0.0,0.0,0.0,0.0,0.0,0.0,0.0,0.0,0.0,0.0,0.0,0.0,0.0,0.0,0.0,0.0,0.0,0.0,0.0,0.0,0.0,0.0,0.0,0.0,0.0,0.0,0.0,0.0,0.0,0.0,0.0,0.0,0.0,0.0,0.0,0.0,0.0,0.0,0.0,0.0,0.0,0.0,0.4978,0.6218,0.7246,0.7664,0.7996,0.8275,0.8368,0.851,0.856,0.0,0.0,0.0,0.0,0.0,0.0,0.0,0.0,0.0,0.0,0.0,0.0,0.0,0.0,0.0,0.0,0.0,0.0,0.0,0.0,0.0,0.0,0.0,0.0,0.0,0.0,0.0,0.0,0.0,0.0,0.0,0.0,0.0,0.0,0.0,0.0,0.0,0.0,0.0,0.0,0.0,0.0,0.0,0.0,0.0,0.0,0.0,0.0,0.0,0.0,0.0,0.0,0.0,0.0,0.0,0.0,0.0,0.0,0.0,0.0,0.0,0.0,0.0,0.0,0.0,0.0,0.0,0.0,0.0,0.0,0.0,0.0,0.0,0.0,0.0,0.0,0.0,0.0,0.0,0.0,0.0,0.0,0.0,0.0,0.0,0.0,0.0,0.0,0.0,0.0,0.0,0.0,0.0,0.0,0.0,0.0,0.0,0.0,0.0,0.0,0.0,0.0,0.0,0.5939,0.6945,0.7729,0.7824,0.8156,0.8368,0.8527,0.8408,0.841,0.8623,0.0,0.0,0.0,0.0,0.0,0.0,0.0,0.0,0.0,0.0,0.0,0.0,0.0,0.0,0.0,0.0,0.0,0.0,0.0,0.0,0.0,0.0,0.0,0.0,0.0,0.0,0.0,0.0,0.0,0.0,0.0,0.0,0.0,0.0,0.0,0.0,0.0,0.0,0.0,0.0,0.0,0.0,0.0,0.0,0.0,0.0,0.0,0.0,0.0,0.0,0.0,0.0,0.0,0.0,0.0,0.0,0.0,0.0,0.0,0.0,0.0,0.0,0.0,0.0,0.0,0.0,0.0,0.0,0.0,0.0,0.0,0.0,0.0,0.0,0.0,0.0,0.0,0.0,0.0,0.0,0.0,0.0,0.0,0.0,0.0,0.0,0.0,0.0,0.0,0.0,0.0,0.0,0.0,0.0,0.0,0.0,0.0,0.0,0.0,0.0,0.0,0.0,0.706,0.7626,0.8098,0.8238,0.8371,0.8533,0.8749,0.8697,0.8725,0.8792,0.0,0.0,0.0,0.0,0.0,0.0,0.0,0.0,0.0,0.0,0.0,0.0,0.0,0.0,0.0,0.0,0.0,0.0,0.0,0.0,0.0,0.0,0.0,0.0,0.0,0.0,0.0,0.0,0.0,0.0,0.0,0.0,0.0,0.0,0.0,0.0,0.0,0.0,0.0,0.0,0.0,0.0,0.0,0.0,0.0,0.0,0.0,0.0,0.0,0.0,0.0,0.0,0.0,0.0,0.0,0.0,0.0,0.0,0.0,0.0,0.0,0.0,0.0,0.0,0.0,0.0,0.0,0.0,0.0,0.0,0.0,0.0,0.0,0.0,0.0,0.0,0.0,0.0,0.0,0.0,0.0,0.0,0.0,0.0,0.0,0.0,0.0,0.0,0.0,0.0,0.0,0.0,0.0,0.0,0.0,0.0,0.0,0.0,0.0,0.0,0.0,0.0,0.8086,0.8241,0.8413,0.8732,0.8714,0.8727,0.8951,0.9182,0.9276,0.9071,0.0,0.0,0.0,0.0,0.0,0.0,0.0,0.0,0.0,0.0,0.0,0.0,0.0,0.0,0.0,0.0,0.0,0.0,0.0,0.0,0.0,0.0,0.0,0.0,0.0,0.0,0.0,0.0,0.0,0.0,0.0,0.0,0.0,0.0,0.0,0.0,0.0,0.0,0.0,0.0,0.0,0.0,0.0,0.0,0.0,0.0,0.0,0.0,0.0,0.0,0.0,0.0,0.0,0.0,0.0,0.0,0.0,0.0,0.0,0.0,0.6702,0.0,0.0,0.0,0.0,0.0,0.0,0.0,0.0,0.0,0.0,0.0,0.0,0.0,0.0,0.0,0.0,0.0,0.0,0.0,0.0,0.0,0.0,0.0,0.0,0.0,0.0,0.0,0.0,0.0,0.0,0.0,0.0,0.0,0.0,0.0,0.0,0.0,0.0,0.0,0.0,0.0,0.8462,0.8695,0.8757,0.8573,0.8771,0.8887,0.8771,0.8937,0.9273,0.9599,0.948,0.0,0.0,0.0,0.0,0.0,0.0,0.0,0.0,0.0,0.0,0.0,0.0,0.0,0.0,0.0,0.0,0.0,0.0,0.0,0.0,0.0,0.0,0.0,0.0,0.0,0.0,0.0,0.0,0.0,0.0,0.0,0.0,0.0,0.0,0.0,0.0,0.0,0.0,0.0,0.0,0.0,0.0,0.0,0.0,0.0,0.0,0.0,0.0,0.0,0.0,0.0,0.0,0.0,0.0,0.0,0.0,0.0,0.0,0.0,0.0,0.6939,0.0,0.0,0.0,0.0,0.0,0.0,0.0,0.0,0.0,0.0,0.0,0.0,0.0,0.0,0.0,0.0,0.0,0.0,0.0,0.0,0.0,0.0,0.0,0.0,0.0,0.0,0.0,0.0,0.0,0.0,0.0,0.0,0.0,0.0,0.0,0.0,0.0,0.0,0.0,0.0,0.9045,0.9216,0.933,0.9211,0.9186,0.9161,0.9101,0.9248,0.943,0.9603,0.9681,0.0,0.0,0.0,0.0,0.0,0.0,0.0,0.0,0.0,0.0,0.0,0.0,0.0,0.0,0.0,0.0,0.0,0.0,0.0,0.0,0.0,0.0,0.0,0.0,0.0,0.0,0.0,0.0,0.0,0.0,0.0,0.0,0.0,0.0,0.0,0.0,0.0,0.0,0.0,0.0,0.0,0.0,0.0,0.0,0.0,0.0,0.0,0.0,0.0,0.0,0.0,0.0,0.0,0.8134,0.8398,0.8907,0.9346,0.9361,0.8963,0.7976,0.777,0.8055,0.0,0.0,0.0,0.0,0.0,0.0,0.0,0.0,0.0,0.0,0.0,0.0,0.0,0.0,0.0,0.0,0.0,0.0,0.0,0.0,0.0,0.0,0.0,0.0,0.0,0.6363,0.6449,0.0,0.0,0.0,0.0,0.0,0.0,0.0,0.0,0.0,0.0,0.0,0.0,0.9591,0.968,0.9787,0.9933,0.9631,0.9481,0.9508,0.9645,0.9701,0.9494,0.979,0.9866,0.0,0.0,0.0,0.0,0.0,0.0,0.0,0.0,0.0,0.0,0.0,0.0,0.0,0.0,0.0,0.0,0.0,0.0,0.0,0.0,0.0,0.0,0.0,0.0,0.0,0.0,0.0,0.0,0.0,0.0,0.0,0.0,0.4598,0.5128,0.0,0.0,0.0,0.0,0.0,0.0,0.0,0.0,0.0,0.0,0.0,0.0,0.0,0.7442,0.7981,0.8027,0.8147,0.8278,0.8913,0.933,0.9576,1.0235,1.0713,1.1003,1.0753,0.0,0.9142,0.986,0.0,0.0,0.0,0.0,0.0,0.0,0.0,0.0,0.0,0.0,0.0,0.0,0.0,0.0,0.0,0.0,0.0,0.0,0.0,0.0,0.0,0.0,0.6707,0.6742,0.712,0.744,0.0,0.7115,0.7068,0.7346,0.0,0.0,0.0,0.0,0.0,0.0,0.0,0.0,0.971,0.9814,0.9826,0.9615,0.9705,0.9706,0.9464,0.9616,0.9775,0.985,0.975,0.9806,1.0013,0.974,0.0,0.0,0.0,0.0,0.0,0.0,0.0,0.0,0.0,0.0,0.0,0.0,0.0,0.0,0.0,0.0,0.0,0.0,0.0,0.0,0.0,0.0,0.0,0.0,0.0,0.0,0.0,0.0,0.0,0.4366,0.4931,0.523,0.5282,0.5199,0.0,0.0,0.0,0.0,0.0,0.0,0.0,0.0,0.0,0.7432,0.7942,0.8483,0.8919,0.8969,0.9394,1.0165,1.0207,1.0608,1.1262,1.1886,1.2079,1.1906,1.2394,1.2114,1.1302,1.0991,1.0707,1.032,0.0,0.0,0.0,0.0,0.0,0.8765,0.8919,0.9044,0.0,0.0,0.0,0.0,0.0,0.0,0.0,0.0,0.0,0.0,0.0,0.0,0.0,0.8397,0.8764,0.9111,0.9217,0.9058,0.8856,0.0,0.8685,0.9092,0.9525,0.0,0.0,0.0,0.0,1.0149,1.0174,1.0296,1.0328,1.022,1.0039,0.988,0.967,0.9718,0.9661,0.9696,0.9717,0.9868,1.0208,0.9857,0.9923,0.0,0.0,0.0,0.0,0.0,0.0,0.0,0.0,0.0,0.0,0.0,0.0,0.0,0.0,0.0,0.0,0.0,0.0,0.0,0.0,0.0,0.0,0.0,0.0,0.0,0.0,0.0,0.0,0.4875,0.5375,0.5543,0.5688,0.5664,0.0,0.0,0.0,0.0,0.0,0.0,0.6988,0.7537,0.8044,0.849,0.9198,0.9746,1.009,1.0143,1.0601,1.1543,1.1423,1.1837,1.2711,1.3385,1.3458,1.3151,1.3719,1.3682,1.3186,1.2166,1.1644,1.1426,1.1251,1.0958,1.064,1.0579,1.0318,0.9956,1.012,1.0052,0.9859,1.0061,0.0,0.9549,0.929,0.0,0.0,0.0,0.0,0.8373,0.8669,0.9083,0.9465,0.9729,1.0024,1.0221,1.0465,1.048,1.0251,0.0,0.9665,0.9985,1.0429,0.0,0.0,0.0,0.0,1.0698,1.0558,1.0587,1.0597,1.0503,1.0149,0.9947,0.9852,0.9824,0.9723,0.9597,0.9727,0.9985,1.0263,1.0013,1.0133,1.0574,0.0,0.0,0.0,0.0,0.0,0.0,0.0,0.0,0.0,0.0,0.0,0.0,0.0,0.0,0.0,0.0,0.0,0.0,0.0,0.0,0.0,0.0,0.0,0.0,0.0,0.0,0.0,0.0,0.0,0.6484,0.6654,0.0,0.0,0.0,0.0,0.6689,0.756,0.8048,0.8034,0.8917,0.9559,0.9875,1.0899,1.156,1.1663,1.1814,1.1719,1.1431,1.2323,1.2848,1.3201,1.4278,1.4993,1.5209,1.4818,1.4484,1.4223,1.377,1.3423,1.3157,1.2871,1.2273,1.1528,1.1388,1.0749,1.003,1.0137,1.0238,1.0285,1.0188,1.0319,1.0454,1.0592,1.0045,0.0,0.0,0.9658,0.9673,0.9995,1.0136,1.015,1.0336,1.0236,1.0205,1.0678,1.0629,1.0516,0.0,1.0733,1.0691,1.0607,0.0,1.0552,1.0513,1.0526,1.0571,1.0666,1.0479,1.0251,1.0067,0.9922,0.9768,0.979,0.984,0.9862,0.9779,0.9986,1.0159,1.0275,1.0366,1.0548,1.0767,1.0105,0.0,0.0,0.0,0.0,0.0,0.0,0.0,0.0,0.0,0.0,0.0,0.0,0.0,0.0,0.0,0.0,0.0,0.0,0.0,0.0,0.0,0.0,0.0,0.0,0.0,0.0,0.0,0.0,0.6906,0.7248,0.0,0.7329,0.7392,0.7439,0.7424,0.8073,0.8532,0.8738,0.9489,1.0042,1.025,1.1395,1.2161,1.2408,1.3091,1.3695,1.425,1.4577,1.4969,1.5427,1.5594,1.5737,1.5792,1.5269,1.4944,1.4926,1.5003,1.4554,1.3801,1.3698,1.3491,1.3183,1.313,1.277,1.2397,1.2313,1.2268,1.2166,1.1746,1.144,1.1247,1.0948,1.0718,1.0523,1.0407,1.0494,1.0638,1.0895,1.1041,1.1146,1.141,1.1425,1.1482,1.1646,1.1544,1.1437,1.1518,1.1333,1.1262,1.1411,1.1439,1.1353,1.1138,1.1115,1.102,1.0754,1.0611,1.0475,1.0183,1.0253,1.0209,0.9894,1.0024,1.0056,0.9883,1.001,1.0199,1.0256,1.0384,1.0432,1.0503,1.0393,0.9908,0.0,0.0,0.0,0.0,0.0,0.0,0.0,0.0,0.0,0.0,0.0,0.0,0.0,0.0,0.0,0.0,0.0,0.0,0.0,0.0,0.0,0.0,0.0,0.0,0.0,0.0,0.687,0.7474,0.7948,0.8213,0.82,0.8313,0.8369,0.8393,0.8898,0.9334,0.9619,1.048,1.1063,1.1137,1.2398,1.3216,1.353,1.4255,1.5015,1.579,1.5873,1.6141,1.6593,1.6452,1.6379,1.6403,1.5875,1.5662,1.5642,1.594,1.5682,1.5021,1.4707,1.4394,1.4194,1.4087,1.3926,1.3692,1.3332,1.3259,1.3275,1.2911,1.2629,1.2396,1.2111,1.189,1.1762,1.1575,1.1575,1.1619,1.1774,1.1754,1.1876,1.2014,1.203,1.2065,1.2178,1.2068,1.2095,1.2205,1.1888,1.1664,1.1805,1.1916,1.1888,1.1647,1.1598,1.148,1.1168,1.0983,1.0781,1.0473,1.0523,1.0509,1.0186,1.0315,1.0304,1.0056,1.0122,1.0231,1.0218,1.0285,1.034,1.0414,1.0333,0.974,0.8548,0.0,0.0,0.0,0.0,0.0,0.0,0.0,0.0,0.0,0.0,0.0,0.0,0.0,0.0,0.0,0.0,0.0,0.0,0.0,0.0,0.0,0.0,0.0,0.5793,0.6763,0.7626,0.8156,0.8745,0.919,0.9314,0.948,0.9521,0.9544,1.0128,1.0524,1.0719,1.1911,1.2588,1.2592,1.3933,1.4789,1.5198,1.5393,1.5569,1.5845,1.612,1.6303,1.6503,1.6722,1.6921,1.7081,1.6699,1.6507,1.653,1.6497,1.6697,1.6914,1.5859,1.5054,1.4453,1.4272,1.4057,1.3732,1.2966,1.3028,1.3455,1.352,1.3757,1.4035,1.4081,1.3683,1.3111,1.3111,1.2841,1.257,1.257,1.2419,1.2215,1.2215,1.2011,1.1819,1.212,1.2276,1.2412,1.2782,1.2353,1.1888,1.1765,1.1927,1.2083,1.2022,1.2069,0.0,1.189,1.1525,1.1203,1.0961,1.073,1.0649,1.0638,1.0638,1.0541,1.0304,1.0304,1.0274,1.024,1.024,1.0315,1.053,0.9922,0.899,0.7728,0.0,0.0,0.0,0.0,0.0,0.0,0.0,0.0,0.0,0.0,0.0,0.0,0.0,0.0,0.0,0.0,0.0,0.0,0.0,0.0,0.0,0.6214,0.6661,0.6912,0.7444,0.809,0.9054,0.9556,0.9895,1.0066,1.0293,1.0521,1.0667,1.1152,1.1479,1.1646,1.2497,1.2892,1.2728,1.4229,1.5169,1.5472,1.6413,1.7034,1.7389,1.7949,1.8132,1.7948,1.794,1.7832,1.7726,1.6992,1.6675,1.6664,1.7026,1.7086,1.6973,1.6656,1.6537,1.6494,1.6258,1.5936,1.5449,1.4816,1.4577,1.4449,1.4316,1.4224,1.4113,1.4296,1.4155,1.3995,1.3995,1.3822,1.3579,1.3579,1.3404,1.3215,1.3448,1.3198,1.2987,1.3293,1.3124,1.2986,1.3066,1.2802,1.2643,1.2566,1.2466,1.2312,1.2167,1.2164,0.0,1.1513,1.1514,1.1314,1.073,1.095,1.0931,1.0659,1.0871,1.0876,1.0315,1.092,1.0988,1.0484,1.0819,1.083,1.0584,0.9936,0.9446,0.0,0.0,0.0,0.0,0.0,0.0,0.0,0.0,0.0,0.0,0.0,0.0,0.0,0.0,0.0,0.0,0.0,0.0,0.0,0.0,0.0,0.0,0.7162,0.7726,0.8432,0.8563,0.8899,0.9873,1.0223,1.0664,1.1124,1.1343,1.1509,1.1788,1.2175,1.2357,1.2431,1.3266,1.3707,1.3604,1.5118,1.6018,1.6087,1.7343,1.8043,1.8113,1.8789,1.9036,1.8899,1.8691,1.8605,0.0,1.8113,1.7868,1.7803,1.8183,1.8242,0.0,0.0,0.0,0.0,0.0,1.6319,1.5872,1.5145,1.5007,1.4982,1.4816,1.4662,1.4627,1.4957,1.4696,1.4232,1.4371,1.4201,1.3989,1.3989,1.387,1.3795,1.3906,1.3628,1.3438,1.3553,1.3453,1.3387,1.3387,0.0,0.0,1.3085,1.29,1.2662,1.2407,1.2506,1.2334,0.0,1.1905,1.1878,1.1128,1.1445,1.1607,1.1211,1.1394,0.0,0.0,0.0,1.1237,1.083,1.1044,0.0,0.0,0.0,0.0,0.0,0.0,0.0,0.0,0.554,0.4984,0.0,0.0,0.0,0.0,0.0,0.0,0.0,0.0,0.0,0.0,0.0,0.0,0.0,0.0,0.0,0.0,0.8176,0.8657,0.9953,0.9904,0.996,1.0658,1.0919,1.1387,1.2289,1.2395,1.2563,1.2878,1.3091,1.3189,1.3301,0.0,0.0,0.0,0.0,1.7134,1.7026,1.8283,1.8784,1.8489,1.919,1.9448,1.9414,1.9321,1.9282,1.9389,1.9564,1.9484,1.935,1.9515,1.96,1.9448,1.8172,1.7571,1.7396,1.6689,1.6197,0.0,0.0,0.0,0.0,1.5023,1.5049,1.5307,1.581,1.5134,1.4286,1.4591,1.441,1.415,1.415,1.4248,1.4202,1.3994,1.3836,1.3612,1.3427,1.3561,1.3734,1.3748,1.3587,1.3404,1.3442,1.3213,1.287,1.2646,1.294,0.0,1.2083,1.2452,1.2499,1.1727,0.0,0.0,1.206,1.1866,1.1764,1.1672,1.1483,1.1239,1.105,1.1017,1.0924,1.067,1.0649,1.0557,1.0395,0.9856,0.9439,0.9123,0.7542,0.662,0.0,0.0,0.0,0.0,0.0,0.0,0.0,0.0,0.0,0.0,0.0,0.0,0.0,0.0,0.0,0.8554,0.9097,0.9701,1.0247,1.0793,1.1251,1.1692,1.1892,1.2211,1.2668,1.2861,1.308,1.3393,1.3592,1.3871,1.4329,1.4699,1.5299,1.6245,1.7365,1.8119,1.8632,1.9528,1.9813,1.9585,0.0,0.0,2.0365,2.0446,2.036,1.9999,1.99,1.9645,1.9341,1.9496,1.9507,1.937,1.9354,1.9224,1.9061,1.8754,1.8146,1.7487,1.6645,1.6077,1.5692,1.5169,1.5019,1.511,1.5327,1.5234,0.0,1.5276,1.5262,1.5145,1.5145,1.4918,1.4831,1.501,1.4903,1.4809,1.4796,1.4723,1.4593,1.4349,1.3946,1.3638,1.3684,1.3151,1.2796,1.3015,1.31,1.2774,1.1872,1.238,1.2399,1.1273,1.1727,1.2095,1.1963,1.2198,1.2093,1.1755,1.1649,1.1645,1.1549,1.1361,1.125,1.1167,1.0806,1.08,1.1123,1.0584,1.0482,1.0552,0.794,0.6521,0.0,0.0,0.0,0.0,0.0,0.0,0.0,0.0,0.0,0.0,0.0,0.825,0.8665,0.0,0.9152,0.9771,1.0178,1.0559,1.1049,1.1713,1.213,1.2173,1.2323,1.2614,1.3224,1.3453,1.3886,1.4664,1.4753,1.5024,1.5638,1.6004,1.6464,1.711,1.8359,1.8995,1.9069,2.0048,2.0282,1.9755,2.05,2.0791,2.0604,2.0466,2.0252,1.9868,1.9769,1.9505,1.9222,1.9851,2.0387,2.0767,2.0675,2.0112,1.9251,1.8822,1.821,1.7497,1.6725,1.6118,1.5668,1.5265,1.5169,1.526,1.5443,1.5248,1.5116,1.5523,1.5539,1.5467,1.5628,1.5672,1.5701,1.5691,1.5648,1.5518,1.5311,1.5163,1.4987,1.4825,1.4441,1.4038,1.3735,1.3194,1.2892,1.2933,1.2687,1.2406,1.2125,1.2496,1.2494,1.1981,1.2307,1.2522,1.2381,1.2454,1.231,1.1855,1.2012,1.1958,1.1871,1.1835,1.1824,1.186,1.1627,1.159,1.1843,1.1394,1.1244,1.1327,0.8917,0.77,0.0,0.0,0.0,0.0,0.0,0.0,0.0,0.8282,0.8699,0.8849,0.9037,0.9328,0.9911,0.9863,0.9991,1.099,1.1152,1.1288,1.1873,1.2457,1.2781,1.2539,1.2706,1.3179,1.4033,1.424,1.4746,1.5732,1.5863,1.6178,1.6775,1.7336,1.7734,1.7925,1.9241,1.9735,1.943,2.0488,2.0703,2.0036,2.086,2.1154,2.0977,2.0584,2.0194,1.9887,1.9818,1.9715,1.972,2.0483,2.1351,2.2049,2.1675,2.0566,1.9173,1.8713,1.8154,1.7476,1.6651,1.6137,1.5746,1.5478,1.5427,1.5494,1.5777,1.5423,1.5083,1.5688,1.5723,1.5742,1.5862,1.6227,1.6374,1.6123,1.6077,1.6031,1.548,1.5376,1.539,1.4953,1.481,1.4424,1.3671,1.3318,1.3032,1.2757,1.2297,1.2205,1.2481,1.2665,1.2757,1.2785,1.3016,1.3109,1.288,1.2868,1.2695,1.2273,1.2435,1.2441,1.2204,1.2394,1.2484,1.2495,1.2496,1.2483,1.2572,1.2102,1.175,1.1663,0.9976,0.9044,0.9996,0.9388,0.8836,0.876,0.8572,0.8405,0.0,0.8925,0.9298,0.9886,1.0111,1.027,1.0531,1.1015,1.1343,1.127,1.1608,1.1963,1.2109,1.2771,1.3201,1.3317,1.377,1.4366,1.5138,1.5279,1.5358,1.5717,1.6283,1.6733,1.713,1.7691,1.8547,1.9596,1.9809,2.0236,2.0971,2.1489,2.161,2.1531,2.211,2.2291,2.2291,2.2209,2.177,2.0958,2.0712,2.1089,2.1806,2.1801,2.166,2.1569,2.1558,2.0925,2.0007,2.0147,1.9632,1.8794,1.8091,1.728,1.6536,1.6082,1.576,1.5775,1.6169,1.5979,1.5718,1.6093,1.6399,1.6491,1.6066,1.6329,1.6654,1.6109,1.6414,1.6617,1.581,1.5796,1.5705,1.4864,1.476,1.4682,1.3624,1.3485,1.3298,1.2747,1.2465,1.2465,1.283,1.3017,1.3008,1.2927,1.3188,1.3459,1.3423,1.3423,1.3333,1.3062,1.3062,1.2983,1.2734,1.2734,1.2757,1.278,1.2757,1.2836,1.3109,1.2621,1.2053,1.1598,1.0683,0.9634,1.0615,0.9768,0.912,0.9544,0.9539,0.9514,0.9803,1.0195,1.0647,1.1012,1.117,1.128,1.1511,1.1675,1.1844,0.0,1.2422,1.2658,1.2819,1.3506,1.4111,1.4377,1.5187,1.5529,1.525,1.5763,1.6504,1.7417,1.7968,1.8531,1.9326,1.9589,1.9987,2.048,2.0824,2.1247,2.1589,2.1767,2.1765,2.1602,2.1777,2.1875,2.1709,2.1593,2.1307,2.0764,2.0418,2.0906,2.1974,2.164,2.1709,2.1997,2.1743,2.1302,2.0817,2.0201,1.9402,1.8456,1.7881,1.728,1.6652,1.6152,1.5942,1.5959,1.5957,1.5979,1.5993,1.6328,1.6654,1.6847,1.6726,1.6919,1.7022,1.6839,1.6941,1.695,1.6392,1.6206,1.5912,1.5256,1.4991,1.4565,1.3826,1.3648,1.3362,1.2991,1.2512,1.2416,1.3171,1.3142,1.324,1.3441,1.361,1.3701,1.3519,1.3519,1.3429,1.3247,1.3247,1.3123,1.309,1.3182,1.3263,1.3214,1.3356,1.309,1.2521,1.2102,1.1487,1.0658,0.9638,0.8774,1.1112,1.0339,0.9847,1.0307,1.048,1.0537,1.0766,1.1205,1.1664,1.1888,1.1955,1.2036,1.2406,1.2274,1.2299,1.2948,1.3164,1.3413,1.3663,1.4396,1.494,1.5193,1.5928,1.6283,1.5701,1.6507,1.7536,1.8556,1.9245,1.9998,2.0838,2.1108,2.121,2.121,2.1627,2.1894,2.1894,2.1992,2.1967,2.18,2.1832,2.1721,2.1466,2.0903,2.0625,2.0712,2.0112,2.0588,2.1626,2.1561,2.1663,2.1938,2.1898,2.1568,2.0985,2.0065,1.9206,1.8313,1.781,1.7266,1.6843,1.6472,1.6316,1.6202,1.6156,1.6168,1.6146,1.643,1.6839,1.711,1.6979,1.7246,1.7472,1.7283,1.7341,1.7289,1.6824,1.651,1.6103,1.5547,1.507,1.4617,1.4002,1.3819,1.3722,1.3344,1.2856,1.2824,1.3727,1.3838,1.3836,1.4222,1.4197,1.4013,1.3829,1.3737,1.3632,1.3552,1.354,1.3531,1.3531,1.3732,1.3636,1.3437,1.3541,1.3059,1.1908,1.166,1.0923,0.9793,0.8752,0.7991,1.1334,1.1148,1.1076,1.1092,1.1148,1.1262,1.1262,1.1559,1.1922,1.2453,1.243,1.251,1.3165,1.2956,1.2999,1.3671,1.3939,1.4243,1.4721,1.5257,1.5568,1.5568,1.5873,1.6319,1.6944,1.7755,1.8232,1.8279,1.9552,2.0492,2.0838,2.1543,2.1894,2.1894,2.1894,2.1894,2.1894,2.2285,2.25,2.25,2.265,2.2492,2.2013,2.0607,2.0269,2.0962,2.0193,2.03,2.1051,2.1919,2.1646,2.0907,2.199,2.1559,2.0168,1.9878,1.9557,1.9072,1.8334,1.7684,1.7311,1.7296,1.6936,1.6683,1.716,1.6739,1.6236,1.6409,1.7091,1.7453,1.6395,1.7153,1.8015,1.7327,1.7471,1.7711,1.7204,1.6829,1.6346,1.53,1.507,1.4883,1.4051,1.4283,1.4481,1.3998,1.3899,1.4005,1.4629,1.5153,1.5343,1.5057,1.4867,1.4663,1.4663,1.4472,1.4268,1.4268,1.4268,1.428,1.428,1.428,1.3896,1.3125,1.3113,1.2619,1.1648,1.1365,1.0485,0.9197,0.8612,0.7826,1.1847,1.185,1.1828,1.212,1.2336,1.2505,1.2648,1.3027,1.3328,1.3252,1.3397,1.3493,1.3521,1.3682,1.3886,1.3924,1.4513,1.4942,1.5027,1.562,1.5966,1.599,1.6775,0.0,1.7896,1.8226,0.0,1.9764,2.0894,2.1759,2.2332,2.2543,2.2715,2.2715,2.2562,2.2611,2.2882,2.284,2.2872,2.2994,2.2943,2.2501,2.1825,2.1717,2.1626,2.1697,2.1606,2.1771,2.1994,2.2498,2.2446,2.1952,2.1994,2.1626,2.0908,2.0152,1.9814,1.9511,1.855,1.8081,1.7911,1.769,1.7407,1.7156,1.7065,1.6899,1.6669,1.6556,1.7037,1.7508,1.734,1.7508,1.7721,1.7839,1.7538,1.7255,1.6856,1.637,1.5693,1.523,1.4836,1.4508,1.4493,1.4604,1.4826,1.5139,1.4727,1.4509,1.47,1.5261,1.5642,1.5356,1.5261,1.507,1.4688,1.4592,1.4496,1.4292,1.4292,1.4208,1.4027,1.3715,1.3221,1.2651,1.2252,1.1463,1.0288,1.0199,0.9517,0.8428,0.8038,0.7646,1.2237,1.2382,1.2522,1.2863,1.3096,1.3318,1.3467,1.38,1.4032,1.3811,1.3947,1.4113,1.4077,1.4285,1.447,1.462,1.5312,1.5746,1.5913,1.6374,1.6841,1.7115,1.7624,1.8296,1.9019,1.9242,0.0,2.0874,2.175,2.2601,2.334,2.3379,2.3349,2.3415,2.3326,2.3281,2.3477,2.3385,2.3241,2.3336,2.296,2.2384,2.1596,2.1985,2.187,2.1602,2.1972,2.2134,2.2147,2.2483,2.2345,2.1946,2.1775,2.1511,2.0999,2.0341,2.0142,2.0011,1.8973,1.8602,1.8543,1.8252,1.7875,1.752,1.7323,1.7223,1.6975,1.6786,1.7216,1.7674,1.7515,1.7645,1.7836,1.7994,1.7645,1.7218,1.7145,1.6513,1.5888,1.5706,1.5233,1.4947,1.5047,1.5159,1.5414,1.5909,1.5595,1.5364,1.5369,1.5832,1.6021,1.5737,1.5642,1.5356,1.4892,1.4879,1.4688,1.4496,1.4292,1.41,1.3919,1.3232,1.2554,1.198,1.158,1.069,0.9418,0.9418,0.8924,0.8038,0.7839,0.7646,1.2565,1.2866,1.3154,1.3153,1.3431,1.3699,1.3699,1.3915,1.4146,1.4146,1.4158,1.4323,0.0,0.0,1.484,1.5747,1.6199,1.664,1.7254,1.7572,1.8127,0.0,0.0,0.0,2.0455,0.0,0.0,2.1528,0.0,2.2949,2.3769,2.3828,2.3822,2.4025,2.3951,2.3877,2.3748,2.3673,2.358,2.3298,2.2902,2.2196,2.1451,2.1542,2.1235,2.0703,2.129,2.1483,2.1503,2.1896,2.1611,2.0909,2.1525,2.1221,2.0554,2.0498,2.0514,2.042,1.9468,1.9155,1.9056,1.876,1.8439,1.8008,1.7949,1.7554,1.7148,1.7145,1.7697,1.8043,1.7036,1.7569,1.8218,1.782,1.7612,1.7612,1.796,1.7346,1.674,1.6687,1.6299,1.6023,1.6023,1.6117,1.6326,1.6286,1.6481,1.6663,1.655,1.6616,1.6536,1.6265,1.5967,1.5668,1.5191,1.5096,1.4987,1.4688,1.4196,1.3811,1.3811,1.2845,1.198,1.1198,1.0904,1.0216,0.9236,0.9236,0.8741,0.8038,0.8038,0.7739,1.3146,1.3565,1.409,1.4034,1.4449,1.4784,1.4784,1.4993,1.5096,1.4969,1.5133,1.5275,1.5331,1.5599,1.5827,1.6184,1.6739,0.0,1.7447,1.7818,0.0,1.8403,1.8633,1.9326,2.0616,2.123,0.0,0.0,2.2923,2.3242,2.3944,2.3817,2.3782,2.3803,2.3598,2.3561,2.3879,2.3985,2.384,2.3332,2.3644,2.3054,2.1662,2.2012,2.1744,2.0851,2.1427,2.1688,2.1684,2.2197,2.2282,2.2042,2.1841,2.1554,2.1387,2.0909,2.0925,2.0995,2.0617,2.0147,1.9781,1.916,1.9124,1.9072,1.8525,1.8334,1.8209,1.8023,1.8195,1.8394,1.8312,1.8195,1.8198,1.8755,1.8102,1.7368,1.7606,1.7028,1.6394,1.6401,1.6454,1.668,1.7109,1.7373,1.7408,1.7258,1.7182,1.7041,1.6413,1.6549,1.6684,1.6895,1.6495,1.6069,1.5765,1.5185,1.4592,1.41,1.3619,1.3147,1.2759,1.2175,1.159,1.1198,1.0314,0.9723,0.9533,0.913,0.8825,0.8627,0.8627,0.8428,1.3624,1.4061,1.4536,1.4822,1.5202,1.556,1.563,1.5668,1.5707,1.538,1.5441,1.5478,1.5569,1.5883,1.6317,1.6585,1.7286,0.0,1.7809,1.8377,1.8929,1.9452,1.9877,2.0646,2.2076,2.2501,2.3112,0.0,2.3702,2.3687,2.4126,2.407,2.3975,2.4049,2.3858,2.3966,2.4276,2.4417,2.4198,2.3852,2.4481,2.3865,2.2366,2.2826,2.2553,2.1611,0.0,2.2046,2.2013,2.2164,2.2264,2.2247,2.1636,2.1469,2.1607,2.1216,2.1232,2.142,2.1318,2.1011,2.0656,1.9984,1.9799,1.9828,1.9434,1.9185,1.9055,1.8989,1.8934,1.8979,1.8825,1.8644,1.8436,1.8793,1.8199,1.7566,1.7888,1.7445,1.7041,1.7218,1.7278,1.7461,1.7946,1.8002,1.7918,1.7668,1.7663,1.7428,1.67,1.6887,1.7114,1.7127,1.6963,1.6558,1.5965,1.5528,1.4949,1.4248,1.3652,1.3106,1.2713,1.1835,1.1394,1.1198,1.0413,1.0061,1.0237,0.9657,0.9398,0.9447,0.9099,0.8907,1.4087,1.4474,1.4864,1.5438,1.5837,1.6135,1.6127,1.6133,1.6032,1.566,1.5468,1.5386,1.5749,1.6069,1.6429,1.6974,1.7722,1.8255,1.8351,1.8955,1.9825,2.1009,2.126,2.2072,2.3653,2.3729,2.4032,2.4927,2.441,2.4183,2.4392,2.4371,2.4482,2.4579,2.4597,2.4683,2.4849,2.4849,2.4808,2.4613,2.5154,2.4661,2.3289,2.3703,2.341,2.2518,0.0,0.0,2.2415,2.1952,2.1854,2.2045,2.1312,2.1366,2.1623,2.142,2.1522,2.1725,2.1725,2.1725,2.1725,2.0861,2.0522,2.0516,2.0287,2.0023,1.9713,1.9831,1.9702,1.9628,1.9107,1.8959,1.8812,1.8632,1.8248,1.8102,1.8408,1.8288,1.8147,1.831,1.8259,1.8295,1.8731,1.8311,1.7939,1.7939,1.7862,1.7606,1.7298,1.7387,1.7438,1.7237,1.7396,1.7068,1.6163,1.5922,1.5405,1.4581,1.3836,1.3303,1.3004,1.1895,1.1306,1.1334,1.0842,1.0744,1.1134,1.0471,1.0163,1.0256,0.9742,0.9462,1.4992,1.534,1.5692,1.6053,1.6413,1.6665,1.6586,1.6426,1.6251,1.6069,1.5884,1.6003,1.6355,1.6481,1.6685,1.7461,1.7747,1.7976,1.8394,1.9191,1.9919,2.056,2.1087,2.1882,2.2999,2.3426,0.0,0.0,2.4459,2.4538,2.4827,2.4771,2.4859,2.5245,2.5264,2.5076,2.4941,2.5149,2.5185,2.4823,2.5258,2.5013,2.4315,2.3895,2.3406,2.2795,2.2258,0.0,2.2405,2.228,2.2185,2.1923,2.2018,2.1783,2.1387,2.1623,2.1827,2.203,2.1827,2.203,2.2316,2.1338,2.1135,2.1065,2.079,2.0523,2.0374,2.0333,2.004,1.9657,1.9524,1.9168,1.8916,1.9153,1.8693,1.8442,1.875,1.8522,1.8309,1.8366,1.8527,1.8775,1.914,1.8726,1.8268,1.8268,1.7789,1.741,1.783,1.7893,1.7866,1.7866,1.7427,1.7061,1.6856,1.5833,1.4999,1.4378,1.3646,1.3014,1.2425,1.2102,1.1875,1.1764,1.1463,1.1355,1.1353,1.1008,1.0819,1.0889,1.0716,1.0414,1.5225,1.569,1.6053,1.6586,1.7052,1.7269,1.7081,1.6867,1.6564,1.6263,1.5925,1.5875,1.6245,1.6563,1.6878,1.7413,1.7935,1.8425,1.8504,1.919,1.9892,2.0378,2.1276,2.2085,2.3062,2.3914,2.4542,2.5026,2.5151,2.5088,2.4883,2.4767,2.4856,2.5136,2.5258,2.5472,2.5445,2.5674,2.5572,2.5344,2.5772,2.545,2.4401,2.4081,2.3623,2.3068,2.2487,0.0,2.2666,2.2666,2.2544,2.2291,2.2295,2.2214,2.2013,2.1928,2.2131,2.2333,2.2232,2.2333,2.2535,2.208,2.1794,2.1623,2.1146,2.0956,2.0854,2.0704,2.0451,2.0158,2.0132,1.9836,1.9509,1.9509,1.9153,1.8916,1.9063,1.8948,1.8846,1.8846,1.8949,1.9096,1.9242,1.8855,1.8422,1.8422,1.7793,1.7595,1.7911,1.8213,1.8527,1.8646,1.84,1.8095,1.7784,1.6613,1.5719,1.5198,1.423,1.3594,1.3183,1.2749,1.2586,1.2496,1.2292,1.2186,1.2183,1.1765,1.1517,1.1505,1.1301,1.1098,1.5493,1.5891,1.6276,1.7108,1.7489,1.7666,1.7547,1.722,1.6788,1.6369,1.5859,1.564,1.602,1.6513,1.6878,1.7202,1.8018,1.8519,1.856,1.9223,1.9822,2.0384,2.1577,2.2553,2.316,2.4325,0.0,2.5405,2.5515,0.0,2.4948,2.5032,2.5112,2.5162,2.5514,2.5784,2.5971,2.6096,2.6027,2.5789,2.6354,2.5973,2.4785,2.4694,2.4304,2.3674,2.3137,0.0,0.0,2.3228,2.3111,2.2917,2.2806,2.2707,2.2673,2.2486,2.2553,2.2756,2.267,2.2653,2.2653,2.2653,2.2417,2.1979,2.1554,2.128,2.1178,2.0925,2.0688,2.0467,2.0514,2.0266,2.0089,1.9851,1.9613,1.948,1.9287,1.9332,1.9361,1.9184,1.9228,1.9272,1.9272,1.8855,1.8422,1.8422,1.8003,1.7793,1.8122,1.8632,1.9153,1.948,1.9376,1.9063,1.8527,1.7463,1.6524,1.5992,1.5024,1.4256,1.4035,1.3495,1.3193,1.3132,1.2925,1.2955,1.3006,1.2413,1.2209,1.2238,1.1873,1.1773,1.617,1.6458,1.6651,1.7476,1.7674,1.7666,1.7547,1.722,1.6788,1.6369,1.5859,1.5707,1.643,1.6327,1.6365,1.7267,1.7492,1.7717,1.8183,1.9202,2.0035,2.0353,2.191,2.3066,2.3066,2.4225,2.5035,2.5076,2.5148,0.0,2.545,2.5751,2.5934,2.6009,2.6354,2.6372,2.6063,2.6409,2.6427,2.6026,2.6464,2.6663,2.6717,2.6173,2.5717,2.5463,2.4786,0.0,0.0,2.4267,2.4048,2.3712,2.3894,2.3657,2.3212,2.3289,2.3272,2.3014,2.2958,2.2854,2.2653,2.2854,2.2434,2.1725,2.1725,2.1334,2.0925,2.0925,2.0688,2.0554,2.0451,2.0277,2.0101,2.0043,2.0043,1.9849,1.9299,1.9463,1.9494,1.8993,1.9067,1.9272,1.9272,1.8855,1.8422,1.8422,1.8122,1.8122,1.8617,1.9257,1.9791,2.0308,1.9687,1.9168,1.8826,1.7779,1.6948,1.6324,1.5235,1.4571,1.4256,1.3702,1.3474,1.3362,1.3362,1.326,1.3135,1.3116,1.3,1.3013,1.2994,1.2766,1.611,1.6523,1.6938,1.7527,1.7789,1.7746,1.7377,1.7145,1.6713,1.6085,1.5905,1.592,1.6211,1.6423,1.6732,1.71,1.7504,1.7872,1.8193,1.879,1.9598,2.0442,2.1466,2.2457,2.3111,0.0,2.4933,2.5431,2.5448,0.0,2.5575,2.5667,2.5829,2.6118,2.6464,2.6591,2.6354,2.6482,2.6482,2.6354,2.6682,2.6663,2.6445,2.6008,2.5679,2.5348,2.4795,0.0,0.0,2.4607,2.4446,2.4037,2.4145,2.4046,2.3754,2.3809,2.3965,2.3965,2.4015,2.3962,2.4047,2.4168,2.3785,2.3132,2.2401,2.1827,2.1318,2.1232,2.0909,2.0688,2.0688,2.057,2.0364,2.0395,2.0189,2.0055,1.9816,1.9892,1.9834,1.9405,1.9494,1.948,1.9376,1.8959,1.8646,1.8646,1.8331,1.8227,1.9049,1.9272,1.9687,2.0411,2.0205,1.9998,1.9776,1.8513,1.7649,1.7515,1.6099,1.5079,1.5002,1.4445,1.4049,1.3933,1.3826,1.3814,1.3556,1.3457,1.3345,1.3218,1.325,1.3192,1.6253,1.6685,1.699,1.756,1.7789,1.7683,1.7301,1.7052,1.6713,1.5959,1.588,1.5939,1.6,1.6508,1.6885,1.6988,1.7553,1.8018,1.8316,1.8784,1.9403,2.0481,2.1465,2.2429,2.333,2.4326,2.5016,2.5501,0.0,0.0,2.5679,2.5648,2.5847,2.6118,2.6464,2.6591,2.6591,2.6591,2.67,2.6682,2.6881,2.6881,2.6663,2.6336,2.6008,2.5661,0.0,0.0,0.0,2.5034,2.4937,2.4607,2.4607,2.4611,2.4526,2.4509,2.458,2.4791,2.4877,2.4945,2.505,2.5258,2.4954,2.4356,2.3458,2.2605,2.1827,2.1522,2.1334,2.113,2.1043,2.0925,2.0688,2.0672,2.0467,2.0261,2.0292,2.0189,2.0086,1.9776,1.9672,1.9569,1.9376,1.9078,1.8869,1.8869,1.8555,1.8478,1.9194,1.9628,2.0076,2.0601,2.0914,2.094,2.0529,1.9049,1.8232,1.8441,1.658,1.5479,1.5395,1.4842,1.4537,1.4299,1.4299,1.4254,1.4061,1.3984,1.3758,1.3487,1.3684,1.3635,1.6847,1.6894,1.6894,1.7529,1.7546,1.7363,1.7225,1.7052,1.6713,1.5959,1.5735,1.579,1.5924,1.6429,1.6802,1.6988,1.7553,1.8018,1.8316,1.907,1.9806,2.0451,2.2143,2.3347,2.3665,2.455,2.5173,2.5147,0.0,0.0,2.5679,2.5898,2.6118,2.6118,2.6464,2.6591,2.6591,2.6591,2.6682,2.6989,2.6989,2.7314,2.7853,2.753,2.7206,0.0,0.0,0.0,0.0,2.5679,2.5679,2.5679,2.5679,2.5679,2.5626,2.5577,2.5326,2.5165,2.5577,2.5448,2.5154,2.5966,2.5448,2.4631,2.4927,2.3856,2.2434,2.1827,2.164,2.1673,2.1383,2.1296,2.1178,2.0925,2.0925,2.0822,2.0514,2.0514,2.0308,1.9776,1.9672,1.9569,1.9376,1.9078,1.8869,1.8869,1.8869,1.8984,1.9284,2.0378,2.1031,2.1048,2.1834,2.1884,2.0576,1.9257,1.8457,1.8441,1.658,1.5479,1.5395,1.4842,1.4614,1.4525,1.4536,1.4537,1.4771,1.4771,1.4545,1.4162,1.4411,1.4411,1.6317,1.6701,1.7057,1.7383,1.7481,1.7282,1.6706,1.6539,1.6263,1.5369,1.5569,1.5859,1.5819,1.6379,1.69,1.7018,1.7553,1.8127,1.8316,1.9184,2.0296,2.1423,2.3311,2.4637,2.4763,0.0,2.5516,2.5519,0.0,0.0,2.5898,2.6008,2.6245,2.6464,2.6591,2.6682,2.6899,2.6881,2.7008,2.7314,2.7314,2.7314,2.7314,2.6989,0.0,0.0,0.0,0.0,0.0,2.5679,2.5679,2.5679,2.5898,2.6118,2.6318,2.6516,2.6587,2.6677,2.7062,2.7237,2.7343,2.7766,2.7361,2.6608,2.6274,2.4754,2.2992,2.2573,2.2507,2.2461,2.2095,2.2028,2.1824,2.1318,2.1409,2.1499,2.1186,2.1149,2.1031,2.0483,2.0121,1.9911,1.9714,1.9608,1.9575,1.9793,1.9607,1.9636,1.986,2.0293,2.0554,2.0753,2.0985,2.111,2.091,1.959,1.8642,1.84,1.6963,1.6065,1.5993,1.5589,1.5355,1.512,1.4885,1.4848,1.4884,1.4824,1.4662,1.453,1.453,1.453,1.6111,1.6541,1.6976,1.7221,1.7302,1.7121,1.6475,1.631,1.5961,1.4937,1.5279,1.5682,1.5451,1.616,1.6835,1.6873,1.7689,1.8333,1.8346,1.919,2.0514,2.2274,2.4196,2.5339,0.0,2.57,2.5735,2.5593,0.0,0.0,2.6227,2.6336,2.6554,2.6899,2.6791,2.6791,2.6989,2.7098,2.7206,2.7422,2.7422,2.7314,2.7098,2.6881,0.0,0.0,0.0,0.0,0.0,2.6118,2.6227,2.6227,2.6445,2.6663,2.6989,2.7206,2.7314,2.753,2.8262,2.8495,2.8495,2.9026,2.8423,2.7362,2.6705,2.5254,2.3771,2.3597,2.358,2.3406,2.2995,2.2773,2.2619,2.1931,2.1885,2.1957,2.164,2.1585,2.1356,2.1032,2.0681,2.036,2.016,2.0052,2.0003,2.0208,2.0019,2.0048,2.0398,2.0633,2.0788,2.1033,2.1143,2.1143,2.1254,1.9837,1.8851,1.8611,1.7363,1.6561,1.6488,1.6179,1.5942,1.5716,1.5363,1.5336,1.5627,1.5644,1.56,1.5629,1.5508,1.5508,0.0,1.646,1.673,1.7025,1.7025,1.6911,1.6365,1.6218,0.0,1.459,1.4862,1.5265,1.497,1.5875,1.6742,1.6757,1.7864,1.8617,1.8405,1.9197,2.0705,2.3051,2.4561,2.5684,2.6004,2.6028,2.5973,2.5613,0.0,0.0,2.6554,2.6772,2.6989,2.7314,2.7098,2.6989,2.7098,2.7314,2.7422,2.7422,2.7422,2.7314,2.7314,2.7098,0.0,0.0,0.0,0.0,0.0,2.6899,2.6989,2.7098,2.7314,2.7422,2.753,2.7853,2.7745,2.7745,2.9112,2.9217,2.89,2.9679,2.8814,2.7314,2.6445,2.5505,2.4684,2.4629,2.4667,2.4456,2.39,2.3781,2.3504,2.2708,2.251,2.2419,2.2097,2.1789,2.1588,2.1573,2.1139,2.0704,2.0704,2.0485,2.0281,2.0296,2.0311,2.0413,2.072,2.1309,2.1653,2.1744,2.1888,2.1888,2.166,1.9948,1.8959,1.8891,1.7866,1.7165,1.6839,1.6547,1.6331,1.6333,1.6008,1.6234,1.6937,1.6931,1.7055,1.7302,1.7055,1.7055,1.619,0.0,1.6503,1.6637,1.6413,1.6079,0.0,1.5659,1.551,1.5067,1.5296,1.5617,1.5975,1.636,1.6817,1.7071,1.7998,1.8686,1.8587,2.0514,2.2209,2.3224,2.4698,2.5664,2.5773,2.6191,2.6536,0.0,0.0,2.6227,2.6554,2.6227,2.6008,2.6118,2.6663,2.7314,2.796,2.7638,2.7638,2.8067,2.7422,2.6989,2.6772,2.6682,0.0,0.0,0.0,0.0,2.6881,2.6989,2.7098,2.7314,2.7853,2.8087,2.8174,2.8601,2.8814,2.8814,2.9554,2.9784,2.9659,2.9343,2.8708,2.7979,2.7098,2.5973,2.5068,2.5016,2.4889,2.4654,2.4234,2.4124,2.3897,2.3252,2.3137,2.301,2.2792,2.2466,2.2243,2.1978,2.149,2.1048,2.1048,2.0826,2.0691,2.094,2.121,2.124,2.1086,2.1654,2.1911,2.1774,2.1546,2.1432,2.1318,2.0033,1.9275,1.9231,1.8385,1.7818,1.7653,1.7535,1.7505,1.7446,1.7179,1.6975,1.7211,1.7156,1.7179,1.7302,1.7538,1.7426,1.6206,1.6379,1.6519,1.6573,1.646,1.6157,1.5777,1.5654,1.5451,1.4958,1.5061,1.5367,1.5779,1.6122,1.6566,1.6995,1.7853,1.879,1.9406,2.1378,2.2938,2.3682,2.4876,2.5789,0.0,2.6373,2.6682,0.0,0.0,2.6227,2.6554,2.6118,2.5898,2.6118,2.6554,2.7098,2.7745,2.7638,2.7745,2.7853,2.7314,2.6881,2.6573,2.6573,2.6482,0.0,0.0,0.0,2.7206,2.7314,2.7638,2.8067,2.8495,2.8708,2.8708,2.9132,2.9343,2.9448,3.0099,3.0412,3.035,2.9925,2.922,2.8505,2.8043,2.7105,2.6158,2.5949,2.5586,2.5296,2.4982,2.4778,2.4471,2.3972,2.3804,2.3734,2.3292,2.2991,2.2733,2.2544,2.2066,2.1616,2.1856,2.1519,2.1368,2.1576,2.182,2.185,2.19,2.2245,2.2506,2.2559,2.2342,2.2225,2.2342,2.1118,2.0197,1.9347,1.9008,1.8739,1.8389,1.8439,1.8422,1.83,1.8201,1.822,1.822,1.8464,1.8524,1.865,1.8775,1.8775,1.6126,1.6348,1.6569,1.6506,1.6537,1.6409,1.5983,1.5872,1.5587,1.4825,1.4903,1.5189,1.5343,1.5835,1.6353,1.6945,1.7875,1.9,2.0395,2.1877,2.3151,2.4069,2.5037,0.0,2.6482,2.6482,0.0,0.0,0.0,2.6118,2.6554,2.6118,2.6008,2.6318,2.6445,2.6663,2.6989,2.753,2.7638,2.7422,2.7206,2.6899,2.6682,2.6682,2.6682,0.0,0.0,0.0,2.753,2.7853,2.8281,2.8688,2.9026,2.9132,2.9237,2.9635,2.972,2.9869,3.0516,3.0724,3.0683,3.0662,2.9803,2.8777,2.8925,2.8164,2.7187,2.6809,2.6444,2.6042,2.5887,2.5552,2.5164,2.4777,2.4553,2.4423,2.386,2.3521,2.3294,2.3294,2.2679,2.2306,2.2679,2.242,2.2208,2.2299,2.2482,2.2574,2.2828,2.3208,2.352,2.3787,2.3582,2.3464,2.37,2.2617,2.1327,1.987,1.9838,1.9641,1.9095,1.9325,1.9343,1.9025,1.925,1.9362,1.9362,1.9865,2.0106,2.0234,2.0234,2.0234,1.5983,1.595,1.5999,1.5779,1.5763,1.5728,1.5623,1.5622,1.5648,1.5682,1.5831,1.6104,1.6431,1.6845,1.7203,1.7618,1.8656,1.9765,2.0736,2.1793,2.2823,2.3786,0.0,2.5551,2.6136,2.6136,0.0,0.0,0.0,2.5569,2.6118,2.5476,2.5145,2.5441,2.5898,2.6336,2.6663,2.6989,2.7422,2.7853,2.753,2.7206,2.6989,2.7206,2.7098,0.0,0.0,2.7745,2.7853,2.8368,2.8601,2.8727,2.9343,2.9554,2.9595,3.0323,3.0431,3.0287,3.0724,3.062,3.0412,3.0182,2.9359,2.8398,2.8134,2.7687,2.7197,2.7155,2.677,2.6295,2.6276,2.6054,2.5771,2.5656,2.5541,2.5309,2.5193,2.4713,2.4363,2.4363,2.3557,2.3006,2.3021,2.298,2.2918,2.2975,2.391,2.4499,2.3943,2.4655,2.4972,2.4541,2.4408,2.4408,2.4408,2.3448,2.2691,2.2246,2.1216,2.0402,2.0041,2.0094,1.9987,1.984,1.989,1.9916,1.9916,2.0081,2.0234,2.0488,2.0856,2.0982,1.5685,1.5823,1.5944,1.551,1.5599,1.5858,1.5889,1.6011,1.6179,1.6193,1.638,1.6668,1.698,1.732,1.7903,1.885,1.9659,2.0395,2.1396,2.2328,2.3161,0.0,0.0,2.5331,2.5789,0.0,0.0,0.0,0.0,0.0,2.5898,2.5459,2.5348,2.5679,2.6224,2.6555,2.6772,2.7322,2.754,2.7422,2.7422,2.7206,2.6989,2.7314,2.7422,2.753,0.0,2.8174,2.8601,2.8814,2.9132,2.9469,2.9679,2.9823,2.9982,3.056,3.0739,3.0769,3.0663,3.0601,3.037,3.0446,2.9836,2.9062,2.942,2.8918,2.8233,2.8449,2.7724,2.6852,2.6724,2.6437,2.6162,2.596,2.5827,2.571,2.5477,2.5244,2.501,2.4877,2.4396,2.415,2.4185,2.4088,2.4153,2.4424,2.4944,2.5344,2.539,2.5932,2.6321,2.6168,2.6066,2.5827,2.5452,2.4611,2.3687,2.2418,2.1675,2.1094,2.102,2.0783,2.0724,2.0856,2.0729,2.0856,2.1235,2.1235,2.1235,2.1362,2.1614,2.1614,1.5575,1.571,1.5883,1.5591,1.5809,1.6103,1.6174,1.6395,1.6601,1.6492,1.6773,1.7026,1.7238,1.7779,1.8731,2.0128,2.0566,2.1144,2.2097,2.2852,2.3611,2.435,2.4937,2.5331,2.5916,0.0,0.0,0.0,0.0,0.0,2.5913,2.5931,2.6077,2.6517,2.6918,2.7271,2.7488,2.8157,2.8062,2.7314,2.753,2.7638,2.7422,2.7638,2.7853,2.8067,2.8281,2.8601,2.9132,2.9359,2.955,2.9805,3.0116,3.0381,3.0595,3.0929,3.1195,3.1291,3.0971,3.0808,3.062,3.0894,3.0439,2.9892,3.0636,2.9949,2.909,2.9418,2.8658,2.7651,2.7364,2.7071,2.6707,2.6468,2.6317,2.6199,2.5965,2.5847,2.573,2.5376,2.5293,2.5194,2.5211,2.5294,2.5545,2.5761,2.6083,2.656,2.697,2.7331,2.7607,2.7764,2.7626,2.7085,2.6331,2.5633,2.4641,2.2974,2.221,2.1866,2.1727,2.1488,2.1488,2.174,2.1556,2.1683,2.2104,2.2188,2.23,2.2355,2.2355,2.2355,1.5746,1.565,1.5746,1.6226,1.6226,1.6204,1.6234,1.6473,1.6698,1.6727,1.7221,1.7576,1.7326,1.8518,1.9879,2.0798,2.1443,2.2129,2.2715,0.0,2.3821,2.5023,2.5203,2.5569,0.0,0.0,0.0,0.0,0.0,0.0,2.6529,2.6677,2.6951,2.7673,2.8032,2.8484,2.9026,2.94,2.9101,2.8194,2.8514,2.8601,2.8581,2.8814,2.8814,2.8688,2.9237,2.9343,2.9172,3.013,3.0048,2.9318,3.0364,3.1085,3.1543,3.1704,3.1829,3.1878,3.1793,3.1517,3.1278,3.136,3.0921,3.046,3.0469,2.9944,2.9259,2.9279,2.91,2.8783,2.8498,2.8206,2.7896,2.7811,2.7572,2.7434,2.7314,2.697,2.6486,2.6486,2.6201,2.5846,2.5625,2.6287,2.6741,2.6439,2.7852,2.8782,2.85,2.9066,2.9297,2.8605,2.8499,2.81,2.671,2.6275,2.5707,2.5001,2.3413,2.2341,2.2104,2.1978,2.1978,2.2104,2.2398,2.2398,2.2104,2.2398,2.2765,2.2981,2.2981,2.323,1.5868,1.5801,1.5841,1.6316,1.6522,1.6669,1.6669,1.6862,1.7056,1.7379,1.7755,0.0,0.0,1.9713,2.068,2.1989,2.248,2.2958,2.3762,2.4036,2.4311,2.4896,2.4932,0.0,0.0,0.0,0.0,0.0,0.0,0.0,2.73,2.7545,2.807,2.8878,2.9372,2.9731,3.0016,3.0406,3.0227,2.965,2.954,2.9431,2.9301,2.9411,2.9411,2.952,2.9739,2.9957,3.0174,3.0465,3.0425,3.0235,3.0621,3.1075,3.1595,3.1471,3.1564,3.1778,3.1725,3.1478,3.1182,3.147,3.1106,3.0697,3.1124,3.0769,3.0065,2.9966,2.9867,2.9514,2.8763,2.8379,2.8241,2.802,2.79,2.7779,2.7779,2.7659,2.7418,2.7418,2.7297,2.7193,2.709,2.7604,2.7997,2.8116,2.9046,2.9642,2.9635,3.0031,3.0174,2.9632,2.9084,2.8295,2.7062,2.6534,2.6009,2.5525,2.4638,2.4104,2.372,2.3464,2.3464,2.372,2.358,2.3607,2.3665,2.3784,2.3806,2.3728,2.3728,2.3728,1.6187,1.6219,1.6359,1.6786,1.6916,1.7062,1.7267,1.7331,1.7498,1.7949,1.8424,1.9109,2.0308,0.0,0.0,0.0,2.3503,2.3975,2.4679,2.4744,2.4939,2.5515,2.5414,0.0,0.0,0.0,0.0,0.0,0.0,0.0,0.0,2.852,2.9165,2.9961,3.0388,3.073,3.0882,3.1184,3.1244,3.1083,3.0764,3.032,2.9905,2.9905,3.0016,3.0238,3.0127,3.046,3.1031,3.0711,3.0741,3.0994,3.095,3.1317,3.1819,3.1802,3.195,3.2158,3.2169,3.2025,3.1707,3.2064,3.1977,3.1767,3.2194,3.1672,3.0995,3.095,3.0558,2.9934,2.9287,2.9057,2.8817,2.8559,2.8349,2.814,2.814,2.802,2.802,2.814,2.8259,2.8259,2.8259,2.8799,2.913,2.926,3.0027,3.0653,3.0552,3.088,3.0917,3.0356,2.9457,2.8524,2.7777,2.7164,2.6745,2.6485,2.6226,2.5612,2.4894,2.4605,2.4605,2.4879,2.471,2.4605,2.4787,2.5006,2.4884,2.4561,2.4563,2.4579,1.6722,1.6903,1.7234,1.7669,1.7574,1.7501,1.816,1.8057,1.8008,1.8626,1.9411,2.04,2.137,2.2021,0.0,2.3871,2.4557,2.504,2.5427,2.5503,2.5743,2.6814,2.6512,0.0,0.0,0.0,0.0,0.0,0.0,0.0,0.0,2.9642,3.0199,3.084,3.1208,3.1441,3.1787,3.1787,3.2009,3.2431,3.2097,3.1421,3.046,3.048,3.059,3.0921,3.059,3.0831,3.1443,3.1187,3.1177,3.1305,3.1532,3.186,3.2248,3.2612,3.2976,3.3266,3.336,3.3389,3.3451,3.3571,3.3813,3.4046,3.3686,3.2851,3.1989,3.1968,3.1003,3.0077,3.0433,3.0083,2.958,2.958,2.9046,2.8535,2.8535,2.8277,2.814,2.848,2.8737,2.8993,2.8993,2.9923,3.0332,2.9774,3.0936,3.169,3.1407,3.1705,3.1543,3.0508,2.9669,2.9147,2.8871,2.8454,2.8257,2.8246,2.7981,2.6998,2.5313,2.5282,2.5282,2.5282,2.5474,2.5474,2.5267,2.5851,2.6096,2.5654,2.566,2.5692,1.6885,1.6892,1.7069,1.7633,1.7911,1.8174,1.9137,1.8855,1.8701,1.9456,2.0435,2.1339,2.1791,2.2672,0.0,2.4234,2.516,2.5847,2.6184,2.6351,2.6685,2.6906,2.7035,0.0,0.0,0.0,0.0,0.0,0.0,0.0,0.0,3.0432,3.0723,3.1208,3.1441,3.1672,3.1787,3.2089,3.2193,3.2097,3.2535,3.2455,3.1958,3.1742,3.186,3.2096,3.186,3.1978,3.2565,3.2235,3.2355,3.2594,3.2454,3.2731,3.3187,3.3305,3.3187,3.3207,3.3706,3.3628,3.3292,3.3793,3.3608,3.3284,3.3571,3.317,3.2653,3.2241,3.1983,3.1953,3.1569,3.117,3.0723,3.0445,2.9812,2.9276,2.9276,2.8937,2.8856,2.9094,2.9331,2.9543,3.0081,3.0325,3.0569,3.0747,3.1634,3.2105,3.2072,3.1744,3.1267,3.0508,3.0165,2.9725,2.8922,2.8706,2.8541,2.8263,2.813,2.79,2.7425,2.6899,2.6899,2.7425,2.7242,2.6982,2.6907,2.689,2.6775,2.6291,2.6303,2.6303,1.6915,1.7071,1.7424,1.8013,1.8552,1.9152,2.033,2.0178,1.9994,2.0721,2.1553,2.2384,2.3067,2.3776,0.0,2.549,2.6182,2.6779,2.7054,2.7186,2.7388,2.7783,0.0,0.0,0.0,0.0,0.0,0.0,0.0,0.0,0.0,3.0859,3.1092,3.1092,3.1716,3.1933,3.1816,3.2255,3.2435,3.2273,3.2772,3.297,3.2883,3.269,3.2653,3.2633,3.2633,3.2754,3.3115,3.2995,3.3115,3.3115,3.3235,3.3475,3.3834,3.3834,3.3694,3.3595,3.4159,3.3981,3.3639,3.4064,3.3819,3.3513,3.3699,3.3376,3.2934,3.2637,3.2617,3.2583,3.2095,3.1797,3.1346,3.0978,3.023,2.9617,2.9782,2.9507,2.9333,2.9692,2.9822,3.0092,3.0648,3.0907,3.1181,3.1588,3.2024,3.2346,3.2185,3.191,3.1377,3.062,3.062,3.023,2.9464,2.9464,2.9316,2.8905,2.8639,2.8441,2.8458,2.7932,2.78,2.8048,2.7769,2.7589,2.7487,2.7416,2.7184,2.6843,2.6968,2.7035,1.6991,1.7281,1.7998,1.8699,1.942,2.0286,2.1786,2.1945,2.1836,2.2129,2.2634,2.3447,2.4667,2.5189,2.5801,2.7193,2.747,2.7612,2.7966,2.7819,2.7966,2.8938,0.0,0.0,0.0,0.0,0.0,0.0,0.0,0.0,0.0,3.1015,3.1268,3.0898,3.18,3.2275,3.192,3.2354,3.2647,0.0,3.2832,3.3047,3.3398,3.3231,3.2994,3.2752,3.3095,3.3236,3.3236,3.3477,3.3477,3.3357,3.3957,3.4196,3.4196,3.4196,3.4056,3.4118,3.4672,3.4574,3.4268,3.4427,3.4369,3.4228,3.3983,3.3355,3.2855,3.3158,3.2871,3.237,3.244,3.2104,3.1872,3.1477,3.0488,2.9782,3.0167,2.9929,2.9757,3.0102,3.0522,3.0794,3.106,3.1531,3.1903,3.2258,3.2257,3.2232,3.2001,3.1873,3.1635,3.1009,3.0879,3.075,3.0378,3.0378,3.023,2.9822,2.9232,2.8914,2.8914,2.8538,2.8129,2.7781,2.7781,2.7615,2.7173,2.752,2.752,2.73,2.768,2.7865,1.7993,1.8272,1.8631,1.9618,2.0741,2.1822,2.2577,2.2895,2.3054,2.3092,2.3645,2.4234,2.4544,2.5111,2.5847,2.6575,2.6986,2.7452,2.8241,2.8545,2.8883,2.9294,0.0,0.0,0.0,0.0,0.0,0.0,0.0,0.0,3.0392,3.1309,3.1486,3.0634,3.1657,3.2012,3.1648,3.2196,3.2467,0.0,3.3375,3.3572,3.3418,3.3348,3.3395,3.3644,3.4017,3.4017,3.3769,3.3769,3.4017,3.4141,3.4265,3.4512,3.4759,3.4759,3.4512,3.4389,3.5005,3.4902,3.4427,3.4632,3.4369,3.3942,3.3853,3.3699,3.3578,3.3395,3.3466,3.3446,3.3301,3.2903,3.2543,3.2289,3.1388,3.0678,3.1002,3.0599,3.0248,3.0895,3.099,3.1218,3.1541,3.1675,3.1884,3.1941,3.1798,3.1726,3.191,3.1635,3.1377,3.1009,3.0879,3.075,3.0378,3.0378,3.0378,3.023,3.016,2.9837,2.9665,2.8401,2.7882,2.8052,2.8052,2.8018,2.7933,2.8019,2.8144,2.8295,2.8438,2.8645,1.8148,1.8642,1.9352,2.0903,2.1994,2.2911,2.3743,2.4036,2.4232,2.4479,2.4749,2.5138,2.5823,2.6489,2.7175,2.7829,2.8282,2.8666,2.9148,2.9342,2.9568,2.9785,0.0,0.0,0.0,0.0,0.0,0.0,0.0,3.0584,3.049,3.1127,3.1223,3.0588,3.1738,3.2196,3.1969,3.2517,3.2961,3.3105,3.3446,3.3544,3.3418,3.3544,3.4047,3.4673,3.4423,3.4423,3.4548,3.4423,3.4423,3.4673,3.4673,3.4673,3.4673,3.4673,3.4548,3.4423,3.4922,3.4797,3.4423,3.4548,3.4262,3.3933,3.3926,3.3933,3.3923,3.3985,3.4103,3.412,3.3496,3.3096,3.2842,3.2332,3.1739,3.1332,3.1283,3.1006,3.0816,3.0915,3.1227,3.129,3.149,3.1872,3.1954,3.1726,3.1635,3.1763,3.1891,3.1763,3.1506,3.1396,3.1525,3.1396,3.0879,3.1009,3.1027,3.062,3.0459,3.0245,2.9775,2.8706,2.8161,2.8428,2.8428,2.8323,2.8131,2.8237,2.8237,2.8131,2.8706,2.8858,1.8333,1.9221,2.049,2.2225,2.3213,2.3825,2.4641,2.4896,2.5281,2.5874,2.5794,2.6002,2.7282,2.7961,2.8715,2.9495,2.9812,3.0037,3.0204,3.0143,3.0233,3.0509,0.0,0.0,0.0,0.0,0.0,0.0,0.0,3.0672,3.0642,3.1028,3.1028,3.0773,3.1913,3.2517,3.2286,3.3068,3.3408,3.3535,3.3613,3.3633,3.376,3.4013,3.4564,3.517,3.4673,3.4673,3.517,3.5046,3.4922,3.4797,3.4922,3.4673,3.4423,3.4423,3.4423,3.4548,3.4879,3.4794,3.4544,3.4624,3.4392,3.4112,3.418,3.4239,3.4282,3.4524,3.4705,3.4505,3.3417,3.3231,3.3046,3.2113,3.1903,3.1967,3.1689,3.1503,3.1388,3.1154,3.1285,3.1396,3.1463,3.1941,3.2038,3.1506,3.1763,3.1891,3.1891,3.2019,3.2019,3.2038,3.2166,3.2166,3.1635,3.1782,3.1782,3.1138,3.0829,3.0483,3.0139,2.9511,2.9097,2.8867,2.8552,2.8357,2.802,2.8339,2.8392,2.7869,2.885,2.9073,1.9573,2.1192,2.2544,2.3119,2.3767,2.434,2.4754,2.5326,2.5891,2.6685,2.6824,2.6946,2.7502,2.7904,2.8535,2.9527,2.9723,2.9965,3.0344,3.0969,3.1171,3.082,0.0,0.0,0.0,0.0,0.0,0.0,3.1648,3.118,3.068,3.1351,3.1415,3.0843,3.1865,3.2454,3.2346,3.3149,3.3727,3.3984,3.4355,3.4662,3.4922,3.5311,3.504,3.4173,3.4298,3.4423,3.4548,3.4797,3.4673,3.4548,3.4797,3.4673,3.4423,3.4423,3.4548,3.4858,3.5371,3.526,3.5067,3.5449,3.5182,3.4551,3.4609,3.4687,3.4595,3.4313,3.4517,3.4492,3.3253,3.356,3.3603,3.2275,3.2397,3.2758,3.2676,3.2256,3.1835,3.2091,3.1726,3.1635,3.2147,3.1891,3.1635,3.1782,3.191,3.191,3.191,3.2166,3.2294,3.2294,3.2422,3.2422,3.2294,3.2294,3.2294,3.2166,3.211,3.1922,3.1527,3.1415,3.0897,2.9981,2.8648,2.8073,2.802,2.8331,2.8792,2.9403,2.919,2.9471,2.1131,2.2395,2.3268,2.3964,2.4565,2.5009,2.5709,2.6215,2.6717,2.7612,2.8188,2.8505,2.8442,2.91,2.9815,3.0479,3.0766,3.0959,3.1389,3.1789,3.1816,3.1621,3.1878,0.0,0.0,0.0,0.0,0.0,3.1264,3.122,3.1431,3.1763,3.1967,3.219,3.2767,3.3253,3.3364,3.3946,3.4187,3.4082,3.4258,3.4485,3.4873,3.5261,3.542,3.5295,3.555,3.5677,3.5677,3.5677,3.555,3.5422,3.5422,3.5154,3.4825,3.5087,3.526,3.5371,3.582,3.5726,3.5509,3.569,3.554,3.5078,3.5078,3.5198,3.5432,3.52,3.5215,3.4863,3.3912,3.3766,3.3564,3.2734,3.253,3.2657,3.2848,3.2332,3.1944,3.2019,3.1782,3.1525,3.2075,3.1929,3.1782,3.1929,3.2038,3.2294,3.2422,3.2549,3.2676,3.2676,3.2804,3.2804,3.2422,3.2549,3.2549,3.2422,3.2422,3.2218,3.1903,3.1785,3.137,3.0437,2.9646,2.8974,2.8498,2.921,2.936,2.9364,2.9906,3.0027,2.2333,2.3201,2.3819,2.4706,2.5221,2.5798,2.6542,2.7068,2.7589,2.8618,2.9331,2.9886,2.9733,3.0493,3.1188,3.1552,3.1822,3.218,3.2315,3.2494,3.2402,3.1944,3.195,0.0,0.0,0.0,0.0,0.0,3.1505,3.1635,3.2129,3.2148,3.2427,3.2988,3.352,3.3785,3.4049,3.4444,3.4648,3.457,3.4453,3.4713,3.5091,3.556,3.6093,3.6616,3.665,3.6676,3.6676,3.6547,3.6418,3.6289,3.616,3.5807,3.5436,3.578,3.5936,3.5968,3.6289,3.6192,3.5952,3.6053,3.5805,3.5547,3.5547,3.5762,3.6016,3.5879,3.5723,3.5407,3.4483,3.4011,3.376,3.3154,3.2696,3.2568,3.2758,3.2422,3.1997,3.2019,3.1763,3.1744,3.2038,3.2038,3.2038,3.2166,3.2422,3.2676,3.2931,3.2912,3.3038,3.3038,3.3292,3.3165,3.2676,3.2912,3.2931,3.2676,3.2676,3.2549,3.2294,3.2226,3.1827,3.0945,3.0625,2.9971,2.9094,2.969,2.9824,2.9397,3.0158,3.0391,2.2663,2.3736,2.4509,2.4933,2.5916,2.6673,2.6857,2.7597,2.859,2.9379,3.0119,3.0878,3.1502,3.174,3.191,3.2327,3.2638,3.2758,3.2354,3.3125,3.3172,3.1351,3.2428,0.0,0.0,0.0,0.0,0.0,3.3161,3.3312,3.257,3.257,3.257,3.2588,3.3387,3.3653,3.3785,3.4313,3.5098,3.5918,3.5508,3.5661,3.642,3.6864,3.7153,3.7514,3.6656,3.6289,3.6418,3.6676,3.6547,3.6289,3.6676,3.6527,3.6248,3.6269,3.6527,3.6697,3.691,3.6659,3.6455,3.6877,3.6499,3.5996,3.5996,3.5996,3.5879,3.5606,3.5724,3.5704,3.4567,3.4414,3.4432,3.3292,3.2942,3.2835,3.2549,3.2416,3.234,3.2384,3.2384,3.2473,3.2785,3.2549,3.2422,3.2804,3.2912,3.2912,3.2912,3.3165,3.3418,3.3418,3.3418,3.3418,3.3292,3.3418,3.3418,3.3292,3.3292,3.3292,3.3292,3.3272,3.2758,3.17,3.1275,3.0615,2.945,2.9638,2.98,3.0167,2.985,3.014,2.3015,2.3821,2.4597,2.5219,2.6026,2.6803,2.7332,2.8077,2.9034,3.0111,3.0832,3.1646,3.2314,3.2302,3.2359,3.2638,3.2676,3.2842,3.3339,3.3367,3.3296,3.3149,3.3141,0.0,0.0,0.0,0.0,0.0,0.0,3.2973,3.2566,3.3093,3.365,3.4059,3.4331,3.4738,3.5143,3.514,3.5312,3.5625,3.5717,3.5964,3.6523,3.7072,3.7636,3.8017,3.7707,3.7563,3.7563,3.741,3.741,3.7431,3.7146,3.6963,3.702,3.6912,3.6963,3.7171,3.7095,3.6971,3.6857,3.6749,3.6403,3.6016,3.6016,3.6016,3.6016,3.5879,3.5685,3.5488,3.4716,3.4414,3.4123,3.3223,3.2961,3.2815,3.2785,3.26,3.2435,3.2657,3.253,3.253,3.2785,3.2804,3.2804,3.2912,3.3038,3.3165,3.3165,3.3292,3.3418,3.3418,3.3544,3.367,3.3418,3.3544,3.367,3.3418,3.3418,3.3292,3.3038,3.3292,3.2902,3.168,3.1558,3.0876,2.945,2.9897,3.0057,3.0204,3.0591,3.0975,2.3547,2.423,2.4894,2.5394,2.6136,2.7046,2.7787,2.8533,2.9456,3.0701,3.155,3.2227,3.3049,3.2912,3.2785,3.3038,3.3174,3.3367,3.3766,3.3666,3.3633,3.3634,3.3498,3.3071,0.0,0.0,0.0,0.0,0.0,0.0,3.2708,3.3098,3.3817,3.4508,3.4784,3.5196,3.5879,3.5586,3.5583,3.5605,3.5964,3.623,3.6636,3.7339,3.777,3.8191,3.8191,3.8191,3.8191,3.7904,3.7904,3.8191,3.7482,3.7452,3.7625,3.7246,3.7299,3.7645,3.738,3.7213,3.7079,3.6809,3.6403,3.6016,3.6016,3.6016,3.6016,3.6016,3.5723,3.5351,3.5176,3.4779,3.4152,3.3281,3.3126,3.3233,3.3292,3.2873,3.2708,3.3038,3.2931,3.2804,3.3038,3.3165,3.3292,3.3292,3.3544,3.367,3.3544,3.367,3.367,3.3418,3.367,3.3796,3.3418,3.3544,3.367,3.3418,3.3418,3.3292,3.3038,3.3292,3.2902,3.1803,3.1815,3.115,2.9804,3.0167,3.0328,3.0222,3.0882,3.1176,0.0,0.0,0.0,2.5362,2.6279,2.74,2.8013,2.8853,2.9911,3.1386,3.2007,3.2661,3.3717,3.367,3.3418,3.3418,3.4044,3.432,3.3566,3.4164,3.4279,3.2814,3.3321,3.3375,0.0,0.0,0.0,0.0,3.2981,3.2981,3.2701,3.2701,3.3121,3.3817,3.4508,3.5059,3.547,3.5854,3.5989,3.6016,3.6236,3.6656,3.7079,3.7482,3.7904,3.8191,3.8191,3.8191,3.8191,3.8191,3.8191,3.8191,3.777,3.7904,3.8058,3.7348,3.7502,3.8191,3.777,3.7348,3.7079,3.7079,3.6539,3.6016,3.6016,3.6016,3.6016,3.6016,3.5723,3.5488,3.584,3.5514,3.4803,3.3681,3.367,3.3922,3.3922,3.3359,3.3068,3.3398,3.3418,3.3418,3.3418,3.367,3.3922,3.3922,3.4173,3.4298,3.3922,3.4173,3.4173,3.3544,3.367,3.3796,3.3418,3.3418,3.3418,3.3418,3.3418,3.3418,3.3418,3.3418,3.3027,3.2207,3.2227,3.168,3.043,3.0653,3.0556,3.0204,3.0607,3.0809,2.4156,0.0,0.0,0.0,0.0,0.0,2.8013,2.8859,2.9789,3.1328,3.2021,3.2559,3.3658,3.3796,3.3796,3.4047,3.3769,3.3532,3.3989,3.3841,3.3694,3.3879,3.3688,3.3224,0.0,0.0,0.0,0.0,3.2421,3.2701,3.2263,3.3121,3.3817,3.4508,3.5059,3.5606,3.6268,3.642,3.6555,3.6809,3.7092,3.736,3.7482,3.7904,3.8037,3.8191,3.8191,3.8191,3.8191,3.8191,3.8191,3.8191,3.7482,3.7636,3.8058,3.7079,3.7348,3.8058,3.7482,3.7213,3.7079,3.6789,3.6403,3.6016,3.6016,3.6016,3.6016,3.6016,3.5937,3.5799,3.5409,3.5308,3.4932,3.4001,3.3776,3.3776,3.3544,3.3524,3.3776,3.4047,3.3922,3.3796,3.4047,3.4173,3.4298,3.4298,3.4298,3.4423,3.4298,3.4298,3.4298,3.4173,3.4173,3.4173,3.3796,3.3796,3.367,3.3418,3.3418,3.3418,3.3418,3.3418,3.3164,3.2637,3.2611,3.2235,3.1334,3.118,3.1049,3.0945,3.1659,3.187,0.0,0.0,0.0,0.0,0.0,0.0,2.8219,2.9127,3.0217,3.1571,3.2319,3.2956,3.3948,3.4047,3.4047,3.4298,3.3769,3.344,3.4011,3.3782,3.365,3.4038,3.3817,3.34,0.0,3.2841,3.2421,3.1841,3.2123,3.2123,3.1841,3.2824,3.3539,3.3955,3.4784,3.547,3.6132,3.6539,3.6944,3.7079,3.7636,3.777,3.7616,3.8037,3.8191,3.8191,3.8191,3.8191,3.8191,3.8191,3.8191,3.8191,3.7348,3.7502,3.8037,3.6924,3.7079,3.7924,3.7415,3.7084,3.6829,3.6737,3.6425,3.6016,3.6016,3.6016,3.6016,3.6016,3.6016,3.5857,3.5231,3.5228,3.5167,3.4187,3.4061,3.412,3.3709,3.367,3.3796,3.4173,3.4173,3.4173,3.4423,3.4548,3.4673,3.4673,3.4673,3.4797,3.4673,3.4673,3.4673,3.4423,3.4548,3.4423,3.4173,3.3922,3.3796,3.367,3.3418,3.3418,3.3418,3.3418,3.3223,3.2793,3.3093,3.2878,3.2289,3.1834,3.1637,3.1683,3.1834,3.1973,0.0,0.0,0.0,0.0,0.0,0.0,2.8301,2.9411,3.0605,3.1855,3.2695,3.3532,3.4158,3.4073,3.3968,3.4342,3.3779,3.3566,3.3915,3.3878,3.3768,3.3707,3.3641,3.3539,3.326,3.2841,3.2561,3.2105,3.1841,3.17,3.1718,3.2421,3.2841,3.2841,3.4232,3.5059,3.5626,3.6539,3.7079,3.7213,3.777,3.7904,3.7616,3.8037,3.8191,3.8191,3.8233,3.8253,3.8253,3.8316,3.8274,3.8191,3.7502,3.7657,3.812,3.7139,3.7139,3.7759,3.7738,3.7169,3.6578,3.6995,3.6602,3.6016,3.6016,3.6016,3.6016,3.6016,3.6132,3.5992,3.54,3.5541,3.546,3.4259,3.4259,3.4398,3.3875,3.367,3.3544,3.3922,3.4173,3.4423,3.4548,3.4797,3.4922,3.4922,3.517,3.5294,3.5046,3.517,3.517,3.4548,3.4797,3.4797,3.4423,3.4173,3.3922,3.3922,3.367,3.3544,3.3544,3.3544,3.3368,3.2995,3.3598,3.3669,3.3256,3.2701,3.2392,3.2321,3.1617,3.1694,2.5411,2.5331,2.5145,2.539,0.0,0.0,2.8224,2.8949,2.9736,3.0957,3.2056,3.3013,3.3377,3.3679,3.39,3.4268,3.3466,3.2922,3.3177,3.3289,3.3248,3.3321,3.3062,3.2981,3.3278,3.2684,3.2105,3.2105,3.1965,3.2123,3.2421,3.2981,3.34,3.4094,3.4646,3.5196,3.5879,3.6403,3.6924,3.7482,3.7616,3.7904,3.8058,3.8191,3.8191,3.8212,3.8564,3.873,3.875,3.9123,3.8833,3.8171,3.7616,3.7975,3.8574,3.8167,3.8031,3.8187,3.8133,3.7441,3.6539,3.6618,3.6346,3.6016,3.6016,3.6016,3.6016,3.6384,3.6924,3.7165,3.6636,3.6391,3.5949,3.5107,3.4492,3.3895,3.3564,3.3922,3.4173,3.4298,3.4298,3.4548,3.517,3.5294,3.5294,3.5294,3.5294,3.5418,3.5294,3.5418,3.5294,3.517,3.5046,3.4922,3.4797,3.4548,3.4298,3.4298,3.4298,3.4173,3.4173,3.4173,3.4133,3.4053,3.4258,3.4218,3.4161,3.3294,3.2613,3.1995,3.2172,3.2226,0.0,2.5314,2.5187,2.5096,0.0,0.0,0.0,2.8771,2.9598,3.0703,3.1624,3.2435,3.2555,3.3035,3.3437,3.3457,3.2828,3.237,3.2295,3.2618,3.2814,3.2881,3.2856,3.2972,3.2954,3.2577,3.2263,3.2105,3.2105,3.2263,3.2701,3.3139,3.3418,3.3835,3.437,3.5059,3.5743,3.6132,3.6674,3.7616,3.7616,3.7872,3.8523,3.8523,3.8647,3.8874,3.9102,3.9185,3.9206,3.9433,3.9268,3.8854,3.8446,3.8705,3.9048,3.8499,3.834,3.8381,3.8604,3.7966,3.6956,3.7312,3.7094,3.6621,3.6544,3.6601,3.6674,3.6924,3.7388,3.7575,3.7467,3.7143,3.6779,3.6044,3.5517,3.5091,3.4635,3.4832,3.5214,3.5468,3.5285,3.5062,3.5335,3.5418,3.5418,3.5418,3.5418,3.5418,3.5418,3.5418,3.5418,3.5418,3.5294,3.5273,3.5499,3.494,3.4774,3.4997,3.4669,3.4423,3.4423,3.4423,3.4548,3.4922,3.5046,3.5067,3.482,3.4368,3.3679,3.2855,3.2635,3.2415,0.0,0.0,0.0,0.0,0.0,2.7767,0.0,0.0,0.0,3.0348,3.1149,3.1602,3.1719,3.2313,3.2674,3.2494,3.2152,3.1789,3.1405,3.186,0.0,3.2445,3.2808,0.0,3.2657,3.2552,3.2367,3.2141,3.2141,3.2316,3.2841,3.3121,3.34,3.34,3.4094,3.4784,3.547,3.5879,3.6598,3.7738,3.7738,3.8118,3.8978,3.8978,3.9185,3.9537,3.964,3.9661,3.9682,3.9765,3.9785,3.9785,3.9322,3.9322,3.9522,3.8807,3.8667,3.8728,3.895,3.8365,3.7645,3.8283,3.7944,3.737,3.7075,3.7109,3.7213,3.7482,3.7718,3.7831,3.7978,3.7819,3.7442,3.6882,3.6575,3.6345,3.5981,3.603,3.6289,3.6804,3.6494,3.5975,3.5645,3.5562,3.5521,3.5438,3.55,3.5521,3.5438,3.55,3.5521,3.5438,3.55,3.5666,3.5956,3.5375,3.521,3.5578,3.5001,3.4548,3.4548,3.4673,3.4922,3.5541,3.5788,3.5743,3.5344,3.5244,3.4776,3.3882,3.3034,3.2654,0.0,0.0,0.0,0.0,2.668,0.0,0.0,0.0,2.8584,2.8897,0.0,3.0346,3.0589,0.0,0.0,0.0,0.0,0.0,3.0724,3.1058,3.1539,3.1966,3.2335,0.0,0.0,3.2043,3.1797,3.2134,3.2169,3.2467,3.326,3.3539,3.3678,3.3678,3.4508,3.5059,3.5489,3.6132,3.6989,3.8228,3.8228,3.861,3.9454,3.9454,3.9495,3.9558,3.9972,4.0158,4.0179,4.0572,4.0717,4.0634,3.9847,3.9646,4.0018,3.9575,3.9575,3.9454,3.9192,3.8789,3.8427,3.8487,3.8205,3.7605,3.6893,3.7119,3.7482,3.7616,3.7904,3.8191,3.8129,3.7645,3.7053,3.7012,3.6697,3.6343,3.618,3.6804,3.7168,3.7296,3.753,3.734,3.6624,3.6164,3.5894,3.548,3.5769,3.5894,3.548,3.5769,3.5873,3.5459,3.579,3.5894,3.5521,3.5459,3.5314,3.5376,3.5335,3.5294,3.5294,3.5541,3.5932,3.63,3.6055,3.589,3.5848,3.5458,3.4921,3.4015,3.3315,3.3175,0.0,0.0,0.0,0.0,0.0,0.0,2.7891,0.0,2.8351,0.0,0.0,0.0,0.0,0.0,0.0,0.0,3.0391,0.0,0.0,3.0667,3.1039,3.1396,0.0,0.0,0.0,0.0,0.0,0.0,3.2169,3.2485,3.345,3.3605,3.3716,3.3798,3.437,3.5035,3.5816,3.6348,3.7271,3.8697,3.8697,3.906,3.9909,3.993,4.0075,4.0323,4.053,4.0613,4.0613,4.08,4.0882,4.0841,4.0468,4.0427,4.0613,4.0593,4.0451,4.0004,3.9859,3.9373,3.8748,3.8507,3.8263,3.7996,3.7657,3.7705,3.7904,3.7904,3.8325,3.8765,3.852,3.8333,3.8298,3.8291,3.7971,3.7764,3.7942,3.8333,3.8744,3.9024,3.8787,3.853,3.859,3.7572,3.6834,3.6876,3.6415,3.6164,3.6331,3.6373,3.629,3.6102,3.6498,3.6686,3.6246,3.6225,3.6225,3.6225,3.6225,3.6101,3.5832,3.6081,3.6331,3.6455,3.6304,3.6181,3.6331,3.5934,3.5354,3.4838,3.4348,3.396,2.652,0.0,0.0,0.0,0.0,0.0,0.0,0.0,0.0,0.0,0.0,0.0,0.0,0.0,0.0,0.0,0.0,2.9492,0.0,3.0142,3.0287,0.0,0.0,0.0,0.0,0.0,0.0,0.0,0.0,3.2211,3.3415,3.3699,3.3886,3.4046,3.4684,3.5501,3.6621,3.7015,3.8006,3.9286,3.9306,3.9672,4.0365,4.0386,4.0572,4.0882,4.0882,4.0882,4.0882,4.0882,4.0882,4.0882,4.1025,4.1025,4.0882,4.1025,4.0882,4.0392,4.0062,3.9695,3.9111,3.8526,3.8438,3.8425,3.8303,3.8305,3.8304,3.8437,3.8856,3.9163,3.894,3.9052,3.9316,3.929,3.9273,3.9387,3.954,3.9953,4.0236,4.0539,4.0103,3.9862,4.0224,3.883,3.772,3.8102,3.7276,3.6792,3.742,3.7064,3.6792,3.6918,3.7234,3.7317,3.7061,3.7061,3.7061,3.6933,3.7061,3.6915,3.6561,3.6792,3.6939,3.7065,3.6727,3.6727,3.6813,3.6353,3.6061,3.579,3.5088,3.4512,0.0,0.0,0.0,2.8962,0.0,0.0,0.0,0.0,2.9627,0.0,0.0,0.0,0.0,0.0,0.0,0.0,0.0,0.0,0.0,0.0,0.0,0.0,0.0,0.0,0.0,0.0,0.0,0.0,0.0,0.0,3.3103,3.355,3.4045,3.4681,3.6035,3.7035,3.7743,3.8462,3.9306,4.0158,4.0199,4.0427,4.0862,4.0862,4.0862,4.0882,4.0882,4.0882,4.0882,4.0882,4.0882,4.0882,4.1331,4.1188,4.0882,4.0453,4.0596,4.08,3.9941,3.9491,3.9357,3.861,3.8582,3.8771,3.8336,3.8437,3.8814,3.9078,3.921,3.9231,3.9231,3.9494,3.9625,3.9735,4.0234,4.0684,4.0732,4.1035,4.1315,4.1315,4.1293,4.1142,4.0884,3.9433,3.8595,3.8881,3.8164,3.7911,3.8312,3.7674,3.7295,3.7763,3.7806,3.7806,3.7827,3.7827,3.77,3.7317,3.77,3.7806,3.7784,3.7784,3.7911,3.8291,3.7657,3.7275,3.7296,3.6891,3.6763,3.6742,3.5455,3.5025,0.0,0.0,2.9805,2.9737,0.0,0.0,0.0,0.0,0.0,0.0,0.0,0.0,0.0,0.0,0.0,0.0,0.0,0.0,0.0,0.0,0.0,0.0,0.0,0.0,0.0,0.0,0.0,0.0,3.0699,0.0,0.0,3.3237,3.3878,3.4161,3.551,3.6622,3.7468,3.8462,3.9347,4.022,4.051,4.0737,4.0882,4.0882,4.0882,4.0882,4.0882,4.0882,4.0882,4.0882,4.0882,4.0882,4.1025,4.1025,4.0882,4.131,4.1167,4.0758,3.9873,3.9337,3.8999,3.8678,3.8645,3.8758,3.8877,3.8946,3.9078,3.921,3.9341,3.9473,3.9604,3.9866,4.0127,4.0344,4.0581,4.0924,4.1415,4.1482,4.1678,4.1934,4.1806,4.1678,4.1806,4.103,4.0338,4.0184,3.9109,3.853,3.9445,3.8933,3.8508,3.8658,3.8959,3.8873,3.8295,3.8274,3.8401,3.8829,3.8872,3.8614,3.8274,3.8274,3.8274,3.8402,3.772,3.7464,3.7758,3.7078,3.6804,3.6804,3.6346,3.6036,3.0538,3.104,0.0,3.1262,3.2065,0.0,3.1653,0.0,0.0,0.0,0.0,0.0,0.0,0.0,0.0,0.0,0.0,0.0,0.0,2.763,0.0,0.0,0.0,0.0,0.0,2.903,2.9002,2.9804,3.018,0.0,0.0,0.0,3.3785,3.4203,3.5724,3.6915,3.7585,3.8763,3.9651,4.0241,4.0675,4.0882,4.0882,4.0882,4.0882,4.0882,4.1048,4.1131,4.1131,4.1296,4.1358,4.1358,4.1358,4.1358,4.1482,4.1557,4.1205,4.0551,3.9806,3.9226,3.9041,3.8758,3.8723,3.8946,3.9231,3.9363,3.9341,3.9625,3.9757,3.9888,3.9866,4.0279,4.0691,4.0884,4.1142,4.1527,4.2074,4.1993,4.2061,4.242,4.2293,4.2189,4.2316,4.1934,4.155,4.1421,4.01,3.9602,4.0545,3.977,3.9322,3.9626,3.9671,3.9563,3.9174,3.9153,3.9282,3.9713,3.9604,3.9344,3.8914,3.8893,3.8893,3.8893,3.8336,3.8077,3.822,3.7853,3.7577,3.7301,3.7707,3.7541]}]]